[[{"header":{"parameterUnit":"m.s-1","parameterCategory":1,"la1":30.6,"la2":28.766,"lo1":-90.7593,"lo2":-88.6598,"dy":0.0162,"dx":0.0183,"nx":116,"ny":114,"refTime":"2024-05-26T12:00:00:Z","depth":0,"parameterNumber":2,"parameterNumberName":"U-component_of_WINDS"},"data":[0.0,0.0,0.0,0.0,0.0,0.0,0.0,0.0,0.0,0.0,0.0,0.0,0.0,0.0,0.0,0.0,0.0,0.0,0.0,0.0,0.0,0.0,0.0,0.0,0.0,0.0,0.0,0.0,0.0,0.0,0.0,0.0,0.0,0.0,0.0,0.0,0.0,0.0,0.0,0.0,0.0,0.0,0.0,0.0,0.0,0.0,0.0,0.0,0.0,0.0,0.0,0.0,0.0,0.0,0.0,0.0,0.0,0.0,0.0,0.0,0.0,0.0,0.0,0.0,0.0,0.0,0.0,0.0,0.0,0.0,0.0,0.0,0.0,0.0,0.0,0.0,0.0,0.0,0.0,0.0,0.0,0.0,0.0,0.0,0.0,0.0,0.0,0.0,0.0,0.0,0.0,0.0,0.0,0.0,0.0,0.0,0.0,0.0,0.0,0.0,0.0,0.0,0.0,0.0,0.0,0.0,0.0,0.0,0.0,0.0,0.0,0.0,0.0,0.0,0.0,0.0,0.0,0.0,0.0,0.0,0.0,0.0,0.0,0.0,0.0,0.0,0.0,0.0,0.0,0.0,0.0,0.0,0.0,0.0,0.0,0.0,0.0,0.0,0.0,0.0,0.0,0.0,0.0,0.0,0.0,0.0,0.0,0.0,0.0,0.0,0.0,0.0,0.0,0.0,0.0,0.0,0.0,0.0,0.0,0.0,0.0,0.0,0.0,0.0,0.0,0.0,0.0,0.0,0.0,0.0,0.0,0.0,0.0,0.0,0.0,0.0,0.0,0.0,0.0,0.0,0.0,0.0,0.0,0.0,0.0,0.0,0.0,0.0,0.0,0.0,0.0,0.0,0.0,0.0,0.0,0.0,0.0,0.0,0.0,0.0,0.0,0.0,0.0,0.0,0.0,0.0,0.0,0.0,0.0,0.0,0.0,0.0,0.0,0.0,0.0,0.0,0.0,0.0,0.0,0.0,0.0,0.0,0.0,0.0,0.0,0.0,0.0,0.0,0.0,0.0,0.0,0.0,0.0,0.0,0.0,0.0,0.0,0.0,0.0,0.0,0.0,0.0,0.0,0.0,0.0,0.0,0.0,0.0,0.0,0.0,0.0,0.0,0.0,0.0,0.0,0.0,0.0,0.0,0.0,0.0,0.0,0.0,0.0,0.0,0.0,0.0,0.0,0.0,0.0,0.0,0.0,0.0,0.0,0.0,0.0,0.0,0.0,0.0,0.0,0.0,0.0,0.0,0.0,0.0,0.0,0.0,0.0,0.0,0.0,0.0,0.0,0.0,0.0,0.0,0.0,0.0,0.0,0.0,0.0,0.0,0.0,0.0,0.0,0.0,0.0,0.0,0.0,0.0,0.0,0.0,0.0,0.0,0.0,0.0,0.0,0.0,0.0,0.0,0.0,0.0,0.0,0.0,0.0,0.0,0.0,0.0,0.0,0.0,0.0,0.0,0.0,0.0,0.0,0.0,0.0,0.0,0.0,0.0,0.0,0.0,0.0,0.0,0.0,0.0,0.0,0.0,0.0,0.0,0.0,0.0,0.0,0.0,0.0,0.0,0.0,0.0,0.0,0.0,0.0,0.0,0.0,0.0,0.0,0.0,0.0,0.0,0.0,0.0,0.0,0.0,0.0,0.0,0.0,0.0,0.0,0.0,0.0,0.0,0.0,0.0,0.0,0.0,0.0,0.0,0.0,0.0,0.0,0.0,0.0,0.0,0.0,0.0,0.0,0.0,0.0,0.0,0.0,0.0,0.0,0.0,0.0,0.0,0.0,0.0,0.0,0.0,0.0,0.0,0.0,0.0,0.0,0.0,0.0,0.0,0.0,0.0,0.0,0.0,0.0,0.0,0.0,0.0,0.0,0.0,0.0,0.0,0.0,0.0,0.0,0.0,0.0,0.0,0.0,0.0,0.0,0.0,0.0,0.0,0.0,0.0,0.0,0.0,0.0,0.0,0.0,0.0,0.0,0.0,0.0,0.0,0.0,0.0,0.0,0.0,0.0,0.0,0.0,0.0,0.0,0.0,0.0,0.0,0.0,0.0,0.0,0.0,0.0,0.0,0.0,0.0,0.0,0.0,0.0,0.0,0.0,0.0,0.0,0.0,0.0,0.0,0.0,0.0,0.0,0.0,0.0,0.0,0.0,0.0,0.0,0.0,0.0,0.0,0.0,0.0,0.0,0.0,0.0,0.0,0.0,0.0,0.0,0.0,0.0,0.0,0.0,0.0,0.0,0.0,0.0,0.0,0.0,0.0,0.0,0.0,0.0,0.0,0.0,0.0,0.0,0.0,0.0,0.0,0.0,0.0,0.0,0.0,0.0,0.0,0.0,0.0,0.0,0.0,0.0,0.0,0.0,0.0,0.0,0.0,0.0,0.0,0.0,0.0,0.0,0.0,0.0,0.0,0.0,0.0,0.0,0.0,0.0,0.0,0.0,0.0,0.0,0.0,0.0,0.0,0.0,0.0,0.0,0.0,0.0,0.0,0.0,0.0,0.0,0.0,0.0,0.0,0.0,0.0,0.0,0.0,0.0,0.0,0.0,0.0,0.0,0.0,0.0,0.0,0.0,0.0,0.0,0.0,0.0,0.0,0.0,0.0,0.0,0.0,0.0,0.0,0.0,0.0,0.0,0.0,0.0,0.0,0.0,0.0,0.0,0.0,0.0,0.0,0.0,0.0,0.0,0.0,0.0,0.0,0.0,0.0,0.0,0.0,0.0,0.0,0.0,0.0,0.0,0.0,0.0,0.0,0.0,0.0,0.0,0.0,0.0,0.0,0.0,0.0,0.0,0.0,0.0,0.0,0.0,0.0,0.0,0.0,0.0,0.0,0.0,0.0,0.0,0.0,0.0,0.0,0.0,0.0,0.0,0.0,0.0,0.0,0.0,0.0,0.0,0.0,0.0,0.0,0.0,0.0,0.0,0.0,0.0,0.0,0.0,0.0,0.0,0.0,0.0,0.0,0.0,0.0,0.0,0.0,0.0,0.0,0.0,0.0,0.0,0.0,0.0,0.0,0.0,0.0,0.0,0.0,0.0,0.0,0.0,0.0,0.0,0.0,0.0,0.0,0.0,0.0,0.0,0.0,0.0,0.0,0.0,0.0,0.0,0.0,0.0,0.0,0.0,0.0,0.0,0.0,0.0,0.0,0.0,0.0,0.0,0.0,0.0,0.0,0.0,0.0,0.0,0.0,0.0,0.0,0.0,0.0,0.0,0.0,0.0,0.0,0.0,0.0,0.0,0.0,0.0,0.0,0.0,0.0,0.0,0.0,0.0,0.0,0.0,0.0,0.0,0.0,0.0,0.0,0.0,0.0,0.0,0.0,0.0,0.0,0.0,0.0,0.0,0.0,0.0,0.0,0.0,0.0,0.0,0.0,0.0,0.0,0.0,0.0,0.0,0.0,0.0,0.0,0.0,0.0,0.0,0.0,0.0,0.0,0.0,0.0,0.0,0.0,0.0,0.0,0.0,0.0,0.0,0.0,0.0,0.0,0.0,0.0,0.0,0.0,0.0,0.0,0.0,0.0,0.0,0.0,0.0,0.0,0.0,0.0,0.0,0.0,0.0,0.0,0.0,0.0,0.0,0.0,0.0,0.0,0.0,0.0,0.0,0.0,0.0,0.0,0.0,0.0,0.0,0.0,0.0,0.0,0.0,0.0,0.0,0.0,0.0,0.0,0.0,0.0,0.0,0.0,0.0,0.0,0.0,0.0,0.0,0.0,0.0,0.0,0.0,0.0,0.0,0.0,0.0,0.0,0.0,0.0,0.0,0.0,0.0,0.0,0.0,0.0,0.0,0.0,0.0,0.0,0.0,0.0,0.0,0.0,0.0,0.0,0.0,0.0,0.0,0.0,0.0,0.0,0.0,0.0,0.0,0.0,0.0,0.0,0.0,0.0,0.0,0.0,0.0,0.0,0.0,0.0,0.0,0.0,0.0,0.0,0.0,0.0,0.0,0.0,0.0,0.0,0.0,0.0,0.0,0.0,0.0,0.0,0.0,0.0,0.0,0.0,0.0,0.0,0.0,0.0,0.0,0.0,0.0,0.0,0.0,0.0,0.0,0.0,0.0,0.0,0.0,0.0,0.0,0.0,0.0,0.0,0.0,0.0,0.0,0.0,0.0,0.0,0.0,0.0,0.0,0.0,0.0,0.0,0.0,0.0,0.0,0.0,0.0,0.0,0.0,0.0,0.0,0.0,0.0,0.0,0.0,0.0,0.0,0.0,0.0,0.0,0.0,0.0,0.0,0.0,0.0,0.0,0.0,0.0,0.0,0.0,0.0,0.0,0.0,0.0,0.0,0.0,0.0,0.0,0.0,0.0,0.0,0.0,0.0,0.0,0.0,0.0,0.0,0.0,0.0,0.0,0.0,0.0,0.0,0.0,0.0,0.0,0.0,0.0,0.0,0.0,0.0,0.0,0.0,0.0,0.0,0.0,0.0,0.0,0.0,0.0,0.0,0.0,0.0,0.0,0.0,0.0,0.0,0.0,0.0,0.0,0.0,0.0,0.0,0.0,0.0,0.0,0.0,0.0,0.0,0.0,0.0,0.0,0.0,0.0,0.0,0.0,0.0,0.0,0.0,0.0,0.0,0.0,0.0,0.0,0.0,0.0,0.0,0.0,0.0,0.0,0.0,0.0,0.0,0.0,0.0,0.0,0.0,0.0,0.0,0.0,0.0,0.0,0.0,0.0,0.0,0.0,0.0,0.0,0.0,0.0,0.0,0.0,0.0,0.0,0.0,0.0,0.0,0.0,0.0,0.0,0.0,0.0,0.0,0.0,0.0,0.0,0.0,0.0,0.0,0.0,0.0,0.0,0.0,0.0,0.0,0.0,0.0,0.0,0.0,0.0,0.0,0.0,0.0,0.0,0.0,0.0,0.0,0.0,0.0,0.0,0.0,0.0,0.0,0.0,0.0,0.0,0.0,0.0,0.0,0.0,0.0,0.0,0.0,0.0,0.0,0.0,0.0,0.0,0.0,0.0,0.0,0.0,0.0,0.0,0.0,0.0,0.0,0.0,0.0,0.0,0.0,0.0,0.0,0.0,0.0,0.0,0.0,0.0,0.0,0.0,0.0,0.0,0.0,0.0,0.0,0.0,0.0,0.0,0.0,0.0,0.0,0.0,0.0,0.0,0.0,0.0,0.0,0.0,0.0,0.0,0.0,0.0,0.0,0.0,0.0,0.0,0.0,0.0,0.0,0.0,0.0,0.0,0.0,0.0,0.0,0.0,0.0,0.0,0.0,0.0,0.0,0.0,0.0,0.0,0.0,0.0,0.0,0.0,0.0,0.0,0.0,0.0,0.0,0.0,0.0,0.0,0.0,0.0,0.0,0.0,0.0,0.0,0.0,0.0,0.0,0.0,0.0,0.0,0.0,0.0,0.0,0.0,0.0,0.0,0.0,0.0,0.0,0.0,0.0,0.0,0.0,0.0,0.0,0.0,0.0,0.0,0.0,0.0,0.0,0.0,0.0,0.0,0.0,0.0,0.0,0.0,0.0,0.0,0.0,0.0,0.0,0.0,0.0,0.0,0.0,0.0,0.0,0.0,0.0,0.0,0.0,0.0,0.0,0.0,0.0,0.0,0.0,0.0,0.0,0.0,0.0,0.0,0.0,0.0,0.0,0.0,0.0,0.0,0.0,0.0,0.0,0.0,0.0,0.0,0.0,0.0,0.0,0.0,0.0,0.0,0.0,0.0,0.0,0.0,0.0,0.0,0.0,0.0,0.0,0.0,0.0,0.0,0.0,0.0,0.0,0.0,0.0,0.0,0.0,0.0,0.0,0.0,0.0,0.0,0.0,0.0,0.0,0.0,0.0,0.0,0.0,0.0,0.0,0.0,0.0,0.0,0.0,0.0,0.0,0.0,0.0,0.0,0.0,0.0,0.0,0.0,0.0,0.0,0.0,0.0,0.0,0.0,0.0,0.0,0.0,0.0,0.0,0.0,0.0,0.0,0.0,0.0,0.0,0.0,0.0,0.0,0.0,0.0,0.0,0.0,0.0,0.0,0.0,0.0,0.0,0.0,0.0,0.0,0.0,0.0,0.0,0.0,0.0,0.0,0.0,0.0,0.0,0.0,0.0,0.0,-2.9892,-2.9763,0.0,0.0,0.0,0.0,0.0,0.0,0.0,0.0,0.0,0.0,0.0,0.0,0.0,0.0,0.0,0.0,0.0,0.0,0.0,0.0,0.0,0.0,0.0,-1.858,-1.902,-1.934,-1.9806,-1.9936,-1.9683,0.0,0.0,0.0,0.0,0.0,-1.8987,-1.9265,-1.9422,-1.9422,-1.9952,-2.0359,-2.061,-2.1177,-2.1565,-2.1817,0.0,0.0,0.0,0.0,0.0,0.0,0.0,0.0,0.0,0.0,0.0,0.0,0.0,0.0,0.0,0.0,0.0,0.0,0.0,0.0,0.0,0.0,0.0,0.0,0.0,0.0,0.0,0.0,0.0,0.0,0.0,0.0,0.0,0.0,0.0,0.0,0.0,0.0,0.0,0.0,0.0,0.0,0.0,0.0,0.0,0.0,0.0,0.0,0.0,0.0,0.0,0.0,0.0,0.0,0.0,0.0,0.0,0.0,0.0,0.0,0.0,0.0,0.0,0.0,0.0,0.0,0.0,0.0,0.0,0.0,-3.0386,-3.0155,0.0,0.0,0.0,0.0,0.0,0.0,0.0,0.0,0.0,0.0,0.0,0.0,0.0,0.0,0.0,0.0,0.0,0.0,0.0,0.0,0.0,-1.6241,-1.7103,-1.7639,-1.8125,-1.8697,-1.9197,-1.9444,-1.9365,-1.9124,0.0,0.0,0.0,-1.8596,-1.9131,-1.9158,-1.9056,-1.8842,-1.9377,-1.9846,-2.0284,-2.0501,-2.0789,-2.1142,-2.1674,0.0,0.0,0.0,0.0,0.0,0.0,0.0,0.0,0.0,0.0,0.0,0.0,0.0,0.0,0.0,0.0,0.0,0.0,0.0,0.0,0.0,0.0,0.0,0.0,0.0,0.0,0.0,0.0,0.0,0.0,0.0,0.0,0.0,0.0,0.0,0.0,0.0,0.0,0.0,0.0,0.0,0.0,0.0,0.0,0.0,0.0,0.0,0.0,0.0,0.0,0.0,0.0,0.0,0.0,0.0,0.0,0.0,0.0,0.0,0.0,0.0,0.0,0.0,-3.1876,-3.1898,-3.1855,-3.1765,-3.1445,-3.0894,-3.084,-3.0435,-2.9868,-3.0854,0.0,0.0,0.0,0.0,0.0,0.0,0.0,0.0,0.0,0.0,0.0,0.0,0.0,0.0,0.0,0.0,0.0,0.0,0.0,-1.6547,-1.7147,-1.7656,-1.8027,-1.8114,-1.8904,-1.9236,-1.883,-1.9096,0.0,0.0,-1.9342,-1.9419,-1.9684,-1.97,-1.9214,-1.8228,-1.8751,-1.9027,-1.9055,-2.0099,-2.0394,-2.0029,-2.0585,-2.0809,-2.0833,0.0,0.0,0.0,0.0,0.0,0.0,0.0,0.0,0.0,0.0,0.0,0.0,0.0,0.0,0.0,0.0,0.0,0.0,0.0,0.0,0.0,0.0,0.0,0.0,0.0,0.0,0.0,0.0,0.0,0.0,0.0,0.0,0.0,0.0,0.0,0.0,0.0,0.0,0.0,0.0,0.0,-2.9413,-2.9115,0.0,0.0,0.0,0.0,0.0,0.0,0.0,0.0,0.0,0.0,0.0,0.0,0.0,-3.0601,-3.1438,-3.1438,-3.1358,-3.1221,-3.1724,-3.185,-3.1621,-3.1225,-3.1138,-3.1313,-3.1321,0.0,-2.9806,-3.1045,0.0,0.0,0.0,0.0,0.0,0.0,0.0,0.0,0.0,0.0,0.0,0.0,0.0,0.0,0.0,0.0,0.0,0.0,0.0,0.0,0.0,-1.6579,-1.7073,-1.7445,-1.8114,-1.852,-1.8521,-1.8468,-1.8562,-1.8822,-1.8563,-1.8627,-1.9054,-1.8857,-1.8482,-1.7985,-1.8833,-1.9229,-1.9229,-1.9845,-2.003,-1.9797,-2.0064,-2.0321,-2.061,-2.0833,0.0,0.0,0.0,0.0,0.0,0.0,0.0,0.0,0.0,0.0,0.0,0.0,0.0,0.0,0.0,0.0,0.0,0.0,0.0,0.0,0.0,0.0,0.0,0.0,0.0,0.0,0.0,0.0,0.0,0.0,0.0,0.0,0.0,0.0,0.0,0.0,0.0,0.0,0.0,-2.8092,-2.842,-2.8845,-2.928,-2.9408,0.0,0.0,0.0,0.0,0.0,0.0,0.0,0.0,0.0,-3.0863,-3.0742,-3.0884,-3.1299,-3.1314,-3.1455,-3.1726,-3.1992,-3.2058,-3.1917,-3.1723,-3.1278,-3.0679,-3.1058,-3.0725,-3.0011,-3.1273,-3.0871,-2.9553,0.0,0.0,0.0,0.0,-2.8605,-2.8622,0.0,0.0,0.0,0.0,0.0,0.0,0.0,0.0,0.0,0.0,0.0,0.0,-1.5118,-1.5445,-1.5879,-1.6564,-1.7083,-1.7492,-1.7788,-1.7615,-1.7769,-1.8307,-1.7894,-1.7925,-1.8525,-1.7978,-1.779,-1.8008,-1.8816,-1.9239,-1.9264,-1.9557,-1.9734,-1.9808,-1.9808,-2.0027,-2.0399,-2.0553,-2.0832,0.0,0.0,0.0,0.0,0.0,0.0,0.0,0.0,0.0,0.0,0.0,0.0,0.0,0.0,0.0,0.0,0.0,0.0,0.0,0.0,0.0,0.0,0.0,0.0,0.0,0.0,0.0,0.0,0.0,0.0,0.0,0.0,0.0,0.0,0.0,0.0,0.0,0.0,-2.8057,-2.816,-2.9102,-2.9372,-2.9511,0.0,0.0,0.0,0.0,0.0,0.0,-3.1004,-3.1184,-3.1373,-3.1546,-3.1626,-3.172,-3.1813,-3.1813,-3.196,-3.2243,-3.2415,-3.2441,-3.2363,-3.2252,-3.1615,-3.0661,-3.1158,-3.0984,-3.0418,-3.1231,-3.085,-2.9749,-2.99,-2.9529,-2.8925,-2.9175,-2.9281,-2.9246,0.0,0.0,0.0,0.0,0.0,0.0,0.0,0.0,0.0,0.0,0.0,-1.4284,-1.4941,-1.4577,-1.4577,-1.5234,-1.5859,-1.6195,0.0,-1.6535,-1.7264,-1.8361,-1.802,-1.8078,-1.8687,-1.7592,-1.746,-1.8287,-1.8404,-1.8501,-1.8544,-1.9212,-1.9622,-1.9808,-1.9808,-1.9824,-1.987,-2.0374,-2.0616,-2.0646,0.0,0.0,0.0,0.0,0.0,0.0,0.0,0.0,0.0,0.0,0.0,0.0,0.0,0.0,0.0,0.0,0.0,0.0,0.0,0.0,0.0,0.0,0.0,0.0,0.0,0.0,0.0,0.0,0.0,0.0,0.0,0.0,0.0,0.0,0.0,0.0,0.0,0.0,0.0,-3.0528,-3.0611,0.0,0.0,0.0,0.0,-3.1022,-3.1047,-3.0979,-3.0816,-3.1415,-3.2086,-3.2799,-3.3132,-3.3429,-3.3751,-3.3751,-3.3301,-3.2407,-3.2964,-3.3129,-3.2861,-3.241,-3.2151,-3.2088,-3.2136,-3.1726,-3.1049,-3.0781,-3.0332,-2.9762,-2.9473,-2.9054,-2.8626,-2.8626,-2.8645,-2.8607,0.0,0.0,0.0,0.0,0.0,-1.2246,-1.2404,-1.2724,-1.2951,-1.3063,-1.3228,-1.3403,-1.3563,-1.3494,-1.3554,-1.3893,-1.4107,-1.4407,-1.479,-1.5358,-1.6005,-1.6703,-1.6945,-1.719,-1.7409,-1.7311,-1.7414,-1.7733,-1.8167,-1.8416,-1.8438,-1.8509,-1.858,-1.8652,-1.8975,-1.9338,-1.9772,-2.0358,-2.0597,-2.0602,-2.0599,-2.0707,0.0,0.0,0.0,0.0,0.0,0.0,0.0,0.0,0.0,0.0,0.0,0.0,0.0,0.0,0.0,0.0,0.0,0.0,0.0,0.0,0.0,0.0,0.0,0.0,0.0,0.0,0.0,0.0,0.0,0.0,0.0,0.0,0.0,0.0,0.0,0.0,0.0,-3.0279,-3.0382,0.0,-3.1587,-3.1457,-3.1653,-3.252,-3.2579,-3.2769,-3.3166,-3.3413,-3.3661,-3.3924,-3.407,-3.4164,-3.4264,-3.3816,-3.3403,-3.3044,-3.2834,-3.2687,-3.2578,-3.2396,-3.2093,-3.1705,-3.214,-3.1938,-3.1254,-3.0697,-3.0273,-2.9993,-3.0105,-2.9783,-2.927,-2.9498,-2.958,-2.9543,0.0,0.0,0.0,0.0,-1.1952,-1.1926,-1.2261,-1.2233,-1.224,-1.2477,-1.2489,-1.2551,-1.2673,-1.2634,-1.2726,-1.3039,-1.31,-1.3291,-1.3698,-1.4386,-1.5007,-1.5473,-1.6252,-1.6697,-1.6697,-1.7158,-1.7484,-1.7598,-1.8041,-1.8228,-1.8133,-1.7938,-1.79,-1.8009,-1.8331,-1.903,-1.9996,-2.0399,-2.068,-2.0847,-2.0674,-2.0717,-2.0849,0.0,0.0,0.0,0.0,0.0,0.0,0.0,0.0,0.0,0.0,0.0,0.0,0.0,0.0,0.0,0.0,0.0,0.0,0.0,0.0,0.0,0.0,0.0,0.0,0.0,0.0,0.0,0.0,0.0,0.0,0.0,0.0,0.0,0.0,-2.8753,-2.9223,-3.0249,-3.0475,-3.0929,-3.1931,-3.2197,-3.2626,-3.3446,-3.3666,-3.3967,-3.4474,-3.472,-3.4844,-3.4844,-3.5075,-3.5075,-3.4844,-3.4121,-3.3644,-3.3398,-3.2721,-3.2398,-3.2398,-3.2398,-3.2151,-3.1751,-3.2198,-3.2136,-3.169,-3.1259,-3.0866,-3.0503,-3.0117,-2.9874,-2.9765,-2.9754,-2.9761,-2.9761,0.0,0.0,0.0,-1.2101,-1.1687,-1.1559,-1.2178,-1.1832,-1.1749,-1.2364,-1.188,-1.1725,-1.2358,-1.2012,-1.202,-1.2673,-1.2856,-1.2917,-1.2948,-1.3696,-1.4354,-1.4883,-1.6027,-1.6687,-1.6685,-1.7168,-1.7588,-1.7974,-1.7998,-1.7846,-1.7606,-1.7575,-1.7702,-1.7941,-1.7941,-1.8862,-2.0415,-2.0408,-2.0808,-2.1326,-2.0822,-2.0913,-2.1309,0.0,0.0,0.0,0.0,0.0,0.0,0.0,0.0,0.0,0.0,0.0,0.0,0.0,0.0,0.0,0.0,0.0,0.0,0.0,0.0,0.0,0.0,0.0,0.0,0.0,0.0,0.0,0.0,0.0,0.0,0.0,0.0,0.0,-2.8614,-2.8917,-2.9535,-3.0588,-3.0991,-3.1659,-3.2801,-3.3375,-3.3682,-3.3713,-3.418,-3.4507,-3.4537,-3.5153,-3.5507,-3.5522,-3.6153,-3.6184,-3.5552,-3.4859,-3.415,-3.3429,-3.2721,-3.2398,-3.2398,-3.2398,-3.2398,-3.2398,-3.2398,-3.2398,-3.2398,-3.2367,-3.1982,-3.1239,-2.9443,-2.9304,-2.999,-2.9328,-2.9075,-2.9029,0.0,0.0,-1.2101,-1.2101,-1.2213,-1.214,-1.1639,-1.1702,-1.1635,-1.1183,-1.0958,-1.0926,-1.1108,-1.1021,-1.1052,-1.1327,-1.1389,-1.1483,-1.1608,-1.2235,-1.3219,-1.4613,-1.5473,-1.6166,-1.6754,-1.7042,-1.7369,-1.7784,-1.7628,-1.753,-1.7437,-1.6823,-1.6567,-1.6617,-1.6617,-1.7159,-1.8072,-1.8708,-1.9667,-2.0754,-2.1057,-2.1034,-2.086,0.0,0.0,0.0,0.0,0.0,0.0,0.0,0.0,0.0,0.0,0.0,0.0,0.0,0.0,0.0,0.0,0.0,0.0,0.0,0.0,0.0,0.0,0.0,0.0,0.0,0.0,0.0,0.0,0.0,0.0,0.0,-2.8411,-2.8899,-2.9131,-2.9658,-3.0228,-3.0987,-3.1158,-3.1653,-3.2803,-3.305,-3.3273,-3.3676,-3.412,-3.4525,-3.491,-3.5406,-3.5811,-3.6215,-3.6384,-3.6399,-3.6215,-3.509,-3.4412,-3.4197,-3.2967,-3.2398,-3.2398,-3.2398,-3.2398,-3.2398,-3.2398,-3.2398,-3.2351,-3.1859,-3.1844,-3.1967,-3.0495,-2.9784,-2.9503,-2.8836,-2.8589,-2.8589,0.0,-1.22,-1.2101,-1.2101,-1.2244,-1.221,-1.1794,-1.1637,-1.1421,-1.1017,-1.0744,-1.0593,-1.0593,-1.0593,-1.0618,-1.0713,-1.0713,-1.0782,-1.0877,-1.1624,-1.2751,-1.4249,-1.483,-1.5358,-1.5822,-1.6441,-1.6872,-1.7104,-1.734,-1.7359,-1.7133,-1.6622,-1.622,-1.5882,-1.5882,-1.6257,-1.6936,-1.7647,-1.8659,-1.9896,-2.0483,-2.0937,-2.1277,-2.1374,-2.1391,-2.1424,-2.15,-2.1678,-2.1858,-2.1858,0.0,0.0,0.0,0.0,0.0,0.0,0.0,0.0,0.0,0.0,0.0,0.0,0.0,0.0,0.0,0.0,0.0,0.0,0.0,0.0,0.0,0.0,0.0,0.0,-2.9051,-2.949,-2.9686,-2.9918,-3.0304,-3.0931,-3.1105,-3.157,-3.2478,-3.2769,-3.3038,-3.3339,-3.3788,-3.4197,-3.4499,-3.4747,-3.5091,-3.5561,-3.58,-3.5943,-3.6038,-3.4941,-3.4342,-3.4268,-3.2946,-3.233,-3.2315,-3.237,-3.2398,-3.2398,-3.2398,-3.2398,-3.2367,-3.1967,-3.2044,-3.2228,0.0,0.0,0.0,0.0,-2.8411,-2.8411,0.0,-1.22,-1.2119,-1.2156,-1.2111,-1.212,-1.2325,-1.1816,-1.1405,-1.1478,-1.1021,-1.0688,-1.0624,-1.0593,-1.0593,-1.0593,-1.0593,-1.0606,0.0,0.0,0.0,-1.3733,-1.4216,-1.4463,-1.4504,-1.567,-1.6271,-1.6271,-1.7107,-1.7281,-1.6878,-1.6831,-1.6406,-1.5718,-1.5671,-1.6001,-1.6578,-1.7061,-1.7852,-1.8829,-1.9414,-2.0623,-2.2002,-2.1535,-2.1428,-2.1428,-2.0959,-2.1084,-2.1503,-2.1462,0.0,0.0,0.0,0.0,0.0,0.0,0.0,0.0,0.0,0.0,0.0,0.0,0.0,0.0,0.0,0.0,0.0,0.0,0.0,0.0,0.0,0.0,0.0,0.0,-2.9797,-3.0113,-3.0179,-3.0036,-3.014,-3.0658,-3.0998,-3.1379,-3.1928,-3.2426,-3.2698,-3.2698,-3.3164,-3.3498,-3.3567,-3.3602,0.0,0.0,0.0,-3.5044,-3.5222,-3.4377,-3.3925,-3.3864,-3.2632,-3.2107,-3.2163,-3.2287,-3.2342,-3.2342,-3.2342,-3.2342,-3.2342,-3.2342,-3.2296,-3.2078,-3.0217,-2.9771,-3.0017,-2.8842,-2.8411,-2.8411,0.0,-1.2283,-1.2202,-1.2523,-1.2839,-1.2976,-1.282,-1.2924,-1.2661,-1.1632,-1.1397,-1.1146,-1.0656,-1.0593,-1.0593,-1.0593,-1.0593,-1.0693,0.0,0.0,-1.2384,-1.3125,-1.3777,-1.4255,-1.4561,-1.5535,-1.607,-1.607,-1.7038,-1.7467,-1.7372,-1.6963,-1.6718,-1.6547,-1.6217,-1.617,-1.6306,-1.6728,-1.7363,-1.8122,-1.8583,-1.9716,-2.1144,-2.1146,-2.151,-2.2029,-2.1921,-2.1976,-2.2025,-2.1861,-2.1865,-2.1998,-2.2281,0.0,0.0,0.0,0.0,0.0,0.0,0.0,0.0,0.0,0.0,0.0,0.0,0.0,0.0,0.0,0.0,0.0,0.0,0.0,0.0,-2.9862,-3.0022,-3.0257,-3.0764,-3.0799,-3.0797,-3.0915,-3.1003,-3.1079,-3.1185,-3.1296,-3.1371,-3.1371,-3.175,-3.2196,-3.2648,-3.2918,-3.3304,-3.3808,-3.391,-3.3979,-3.4013,-3.2923,-3.2601,-3.31,-3.1827,0.0,-3.2038,-3.2066,-3.2066,-3.2066,-3.2066,-3.2066,-3.2066,-3.2066,-3.1746,-3.1195,-3.0492,-2.9617,-2.8765,-2.8504,-2.8411,-2.8411,-1.3568,-1.3086,-1.2745,-1.2974,-1.3314,-1.3569,-1.3418,-1.3449,-1.326,-1.2589,-1.222,-1.1756,-1.1115,-1.1052,-1.1052,-1.1052,-1.1199,0.0,0.0,-1.1682,-1.2172,-1.2627,-1.3364,-1.3831,-1.4063,-1.5251,-1.5903,-1.5903,-1.676,-1.7185,-1.7185,-1.6971,-1.6732,-1.6537,-1.6341,-1.6128,-1.5992,-1.6369,-1.6769,-1.7129,-1.7634,-1.8523,-1.9618,-2.0225,-2.0858,-2.142,-2.1506,-2.1706,-2.1949,-2.1812,-2.1808,-2.1879,-2.2272,-2.2742,-2.3195,0.0,0.0,0.0,0.0,0.0,0.0,0.0,0.0,0.0,0.0,0.0,0.0,0.0,0.0,-2.8673,-2.9523,0.0,-3.032,-3.0857,-3.0949,-3.0949,-3.0986,-3.0986,-3.0986,-3.0986,-3.0986,-3.0986,-3.0986,-3.0986,-3.0986,-3.0986,-3.1198,-3.1408,-3.1676,-3.1859,-3.216,-3.2613,-3.2918,-3.3094,-3.3178,-3.2557,-3.2197,-3.2123,-3.1238,-3.1025,-3.1408,-3.1466,-3.1682,-3.1996,-3.1996,-3.1996,-3.1996,-3.1996,-3.1405,-3.0463,-3.0289,-2.9608,-2.8675,-2.8339,-2.8217,-2.8217,-1.4661,-1.4181,-1.3636,-1.3451,-1.3671,-1.3938,-1.3992,-1.3827,-1.3662,-1.3511,-1.3039,-1.2451,-1.1756,-1.1694,-1.1694,0.0,0.0,0.0,0.0,-1.1907,-1.2242,-1.2505,-1.3135,-1.3571,-1.3709,-1.5081,-1.5798,-1.5798,-1.6542,-1.6908,-1.6908,-1.6908,-1.6734,-1.6431,-1.6431,-1.6239,-1.5945,-1.6285,-1.6431,-1.6459,-1.6943,-1.7457,-1.8041,-1.8936,-1.9825,-2.0623,-2.0784,-2.1201,-2.1698,-2.1667,-2.1624,-2.1717,-2.2145,-2.2563,-2.2905,-2.3184,-2.3851,0.0,0.0,0.0,0.0,0.0,0.0,0.0,0.0,-2.6878,-2.7934,-2.826,-2.9039,-2.9967,-3.1104,-3.1313,-3.147,-3.1889,-3.1967,-3.1771,-3.1235,-3.1156,-3.1117,-3.0999,-3.0986,-3.0986,-3.0986,-3.0986,-3.0986,-3.0986,-3.0986,-3.0986,-3.0986,-3.0986,-3.1161,-3.1482,-3.1882,-3.2209,-3.2381,-3.2159,-3.174,-3.1188,-3.0643,-3.0424,-3.0554,-3.0644,-3.0984,-3.1523,-3.1523,-3.1596,-3.1682,-3.1552,-3.0966,-3.0072,-2.9816,-2.9395,-2.8865,-2.8233,-2.7995,-2.7995,0.0,-1.5141,-1.4898,-1.3987,-1.3883,-1.4011,-1.4387,-1.4419,-1.4169,-1.3571,-1.342,-1.313,-1.2451,-1.2389,-1.2389,0.0,0.0,0.0,-1.2321,-1.2666,-1.3012,-1.3339,-1.3462,-1.3818,-1.4458,-1.5365,-1.5798,-1.5798,-1.6542,-1.6908,-1.6908,-1.6908,-1.689,-1.6844,-1.6844,-1.6817,-1.6771,-1.6817,-1.6844,-1.6844,-1.6925,-1.6968,-1.7072,-1.7364,-1.878,-2.059,-2.0623,-2.1083,-2.1667,-2.1506,-2.1431,-2.1493,-2.1864,-2.2292,-2.2728,-2.2762,-2.3463,-2.4133,-2.3606,-2.4177,-2.5045,-2.5496,-2.6494,-2.7643,0.0,-2.8952,-2.9523,-3.1001,-3.1052,-3.1143,-3.2293,-3.2502,-3.2515,-3.2594,-3.2594,-3.2398,-3.1784,-3.1706,-3.1523,-3.1052,-3.0986,-3.0986,-3.0986,-3.0986,-3.0986,-3.0986,-3.0986,-3.0986,-3.0986,-3.0986,-3.1024,-3.1061,-3.1123,-3.1161,-3.1198,-3.0655,-3.0397,-3.0419,-2.9827,-2.9578,-2.9659,-2.9659,-2.9721,-2.9782,-2.9782,-3.0133,-3.0614,-3.0042,-3.0047,-3.0338,-2.9215,-2.8691,-2.8598,-2.8156,-2.7995,-2.7995,0.0,-1.6113,-1.5774,-1.4917,-1.4464,-1.4304,-1.4458,-1.4515,-1.4387,-1.413,-1.407,-1.3821,-1.3169,-1.307,-1.2917,-1.2543,0.0,0.0,-1.296,-1.3434,-1.379,-1.3861,-1.4266,-1.4617,-1.4939,-1.57,-1.6088,-1.6088,-1.6412,-1.6551,-1.6551,-1.6551,-1.6621,-1.6735,-1.6971,-1.715,-1.7266,-1.7513,-1.7614,-1.7614,-1.7614,-1.7468,-1.7248,-1.7354,-1.808,-1.9112,-1.9189,-1.989,0.0,0.0,-2.0944,-2.1366,-2.1766,-2.2032,-2.2294,-2.2593,-2.3005,0.0,-2.3384,-2.419,-2.5033,-2.5241,-2.613,-2.7144,-2.7581,-2.8175,-2.8874,-2.9567,-3.0343,-3.1203,-3.2026,-3.2733,-3.3208,-3.3208,-3.3208,-3.2894,-3.1928,-3.1797,-3.1588,-3.1052,-3.0986,-3.0986,-3.0986,-3.0986,-3.0986,-3.0986,-3.0986,-3.0986,-3.0986,-3.0986,-3.0986,-3.0986,-3.0986,-3.0986,-3.0986,-3.0751,-3.0309,-2.9719,-2.9454,-2.9201,-2.8935,-2.8935,-2.9111,-2.9504,-2.9504,-2.9659,-2.9889,-2.9628,-2.9461,-2.9291,-2.875,-2.8096,-2.7525,-2.7698,-2.7765,-2.7765,0.0,-1.683,-1.651,-1.5777,-1.5157,-1.4675,-1.4545,-1.4515,-1.4515,-1.4515,-1.4515,-1.4327,-1.3821,-1.3791,-1.3571,-1.31,0.0,0.0,0.0,-1.4201,-1.4482,-1.4418,-1.4919,-1.5311,-1.5488,-1.6026,-1.636,-1.6466,-1.6466,-1.6528,-1.6634,-1.6634,-1.6697,-1.6848,-1.7144,-1.7379,-1.7606,-1.7879,-1.8044,-1.8091,-1.8091,-1.7944,-1.766,-1.7541,-1.7656,-1.7894,-1.8086,-1.9011,0.0,0.0,-2.0459,-2.1236,-2.1433,-2.1676,-2.1974,-2.2363,-2.2673,-2.2983,-2.3488,-2.4202,-2.4802,-2.4909,-2.5769,-2.6627,-2.6753,-2.7633,-2.8514,-2.8674,-2.9758,-3.0931,-3.1853,-3.2746,-3.3327,-3.3305,-3.3563,-3.3201,-3.1691,-3.172,-3.1617,-3.0914,-3.0823,-3.0823,-3.0823,-3.0936,-3.0986,-3.0986,-3.0986,-3.0986,-3.0986,-3.0986,-3.0986,-3.0986,-3.0986,-3.0986,-3.0986,-3.0986,-3.0411,-2.931,-2.931,-2.8924,-2.8222,-2.8222,-2.85,-2.8953,-2.8953,-2.9048,-2.9205,-2.9016,-2.8754,-2.8463,-2.8327,-2.773,-2.6971,-2.7258,-2.7233,-2.7111,0.0,0.0,-1.7129,-1.6397,-1.5777,-1.5186,-1.4595,-1.4515,-1.4515,-1.4515,-1.4515,-1.4476,-1.4476,-1.4476,-1.4455,0.0,0.0,0.0,-1.4321,-1.4834,-1.5161,-1.5169,-1.5204,-1.5524,-1.6237,-1.6272,-1.6493,-1.69,-1.69,-1.7059,-1.7448,-1.7448,-1.7486,-1.7486,-1.7503,-1.7607,-1.7784,-1.7803,-1.7923,-1.8091,-1.8091,-1.8081,-1.8027,-1.7651,-1.7522,-1.7565,-1.7885,0.0,0.0,-1.9497,-2.0169,-2.1109,-2.0607,-2.1103,0.0,-2.1906,-2.2616,-2.3499,-2.4016,-2.4213,-2.437,-2.4874,-2.5789,-2.6738,-2.736,-2.8295,-2.9256,-2.981,-2.9985,-3.0574,-3.2253,-3.2593,-3.2646,-3.2653,-3.3462,-3.329,-3.0956,-3.147,-3.1677,-3.0535,-3.0406,-3.0406,-3.0406,-3.0748,-3.0986,-3.0986,-3.0986,-3.0986,-3.0986,-3.0986,-3.0986,-3.0986,-3.0986,-3.0986,-3.0986,-3.0986,-3.0411,-2.931,-2.931,-2.866,-2.7523,-2.7523,-2.7523,-2.7556,-2.7556,-2.7941,-2.8481,-2.7842,-2.7927,-2.8451,-2.785,-2.7606,-2.7492,-2.6927,-2.6357,-2.5837,0.0,0.0,0.0,-1.7062,-1.6726,-1.6386,-1.5806,-1.502,-1.4515,-1.4515,-1.4515,0.0,0.0,0.0,0.0,0.0,0.0,0.0,-1.4698,-1.5129,-1.5453,-1.5603,-1.5611,-1.5718,-1.5973,-1.6216,-1.6397,-1.651,-1.6778,-1.6977,-1.7107,-1.7107,-1.7174,-1.7296,-1.7597,-1.7826,-1.8026,-1.8294,-1.868,-1.9085,-1.8783,-1.88,-1.8861,-1.8458,-1.8137,-1.7889,0.0,0.0,0.0,-1.9022,-1.9706,-2.0537,-2.0825,-2.1178,-2.1454,-2.1454,-2.2375,-2.3373,-2.3236,-2.3684,-2.4269,-2.4517,-2.4875,-2.5272,-2.5858,-2.6268,-2.6656,-2.717,-2.7909,-2.865,-2.9231,-3.026,-3.1003,-3.0999,-3.1499,-3.153,-3.0346,-3.1039,-3.1377,-3.0614,-3.1061,-3.1483,-3.1483,-3.092,-3.0596,-3.0596,-3.0723,-3.0723,-3.0596,-3.0861,-3.0949,-3.0811,-3.0911,-3.0986,-3.0986,-3.0986,-3.0411,-2.931,-2.849,-2.7868,-2.749,-2.749,-2.749,-2.749,-2.749,-2.7623,-2.7809,-2.759,-2.7623,-2.7829,-2.7597,-2.7326,-2.6961,-2.677,-2.631,-2.5784,0.0,0.0,0.0,0.0,0.0,0.0,0.0,0.0,0.0,0.0,0.0,0.0,0.0,0.0,0.0,0.0,0.0,0.0,0.0,0.0,-1.5498,-1.5788,-1.5805,-1.5794,-1.577,-1.6007,-1.6252,-1.6468,-1.672,-1.7098,-1.7518,-1.7518,-1.7665,-1.7921,-1.8181,-1.8406,-1.8598,-1.873,-1.9037,-1.942,-1.9044,-1.8962,-1.9036,-1.8715,-1.8444,0.0,0.0,0.0,0.0,-1.8696,-1.9369,-2.0204,-2.0751,-2.1071,-2.1306,-2.1652,-2.2321,-2.2973,-2.3002,-2.3398,-2.3782,-2.3873,-2.4047,-2.4271,-2.4627,-2.4832,-2.5095,-2.5535,-2.629,-2.7009,-2.7611,-2.8595,-2.9354,-2.954,-3.0085,-3.0178,-2.9347,-3.0035,-3.045,-2.9905,-3.0389,-3.0762,-3.0762,-3.0133,-2.997,-3.0637,-3.0791,-3.0739,-3.0419,-3.0634,-3.0723,-3.0609,-3.0723,-3.0836,-3.0874,-3.0665,-3.0061,-2.8983,-2.7858,-2.7369,-2.7436,-2.7335,-2.7302,-2.7302,-2.7302,-2.7302,-2.7302,-2.7302,-2.7302,-2.7302,-2.7302,-2.7115,-2.6765,-2.6557,-2.6246,-2.586,0.0,0.0,0.0,0.0,0.0,0.0,0.0,0.0,0.0,0.0,0.0,0.0,0.0,0.0,0.0,0.0,0.0,0.0,0.0,0.0,0.0,-1.578,-1.5822,-1.5779,-1.5704,-1.5753,-1.6108,-1.6752,-1.6807,-1.7411,-1.8562,-1.8562,-1.8759,-1.9162,-1.9162,-1.9238,-1.9417,-1.9018,-1.8994,-1.9182,-1.8802,-1.8709,-1.8763,-1.8545,0.0,0.0,0.0,0.0,0.0,-1.8568,-1.9167,-2.0193,-2.0415,-2.0894,-2.152,-2.24,-2.2437,-2.2379,-2.329,-2.3276,-2.3001,-2.2964,-2.334,-2.3717,-2.3749,-2.4071,-2.4552,-2.5025,-2.5134,-2.5612,0.0,-2.7595,-2.7753,-2.8199,-2.9079,-2.9235,-2.8036,-2.869,-2.9064,-2.8596,-2.8539,0.0,-2.8582,-2.8582,-2.9312,-3.1001,-3.1109,-3.088,-3.0356,-3.0381,-3.0406,-3.0368,-3.0406,-3.0482,-3.0698,-3.0077,-2.9269,-2.8373,-2.7451,-2.7113,-2.7268,-2.7079,-2.699,-2.699,-2.699,-2.699,-2.699,-2.699,-2.699,-2.699,-2.699,-2.699,-2.6913,-2.6363,-2.6145,-2.6024,0.0,0.0,0.0,0.0,0.0,0.0,0.0,0.0,0.0,0.0,0.0,0.0,0.0,0.0,0.0,0.0,0.0,0.0,0.0,0.0,0.0,0.0,0.0,0.0,-1.5712,-1.6239,0.0,0.0,0.0,-1.7383,-1.7688,-1.8014,-1.8188,-1.8331,-1.8331,-1.8323,-1.8396,-1.826,-1.8553,-1.9035,0.0,-1.9012,-1.9791,0.0,0.0,0.0,0.0,0.0,0.0,0.0,-1.993,-2.12,-2.1554,-2.1756,-2.1878,-2.1839,-2.198,-2.2241,-2.2469,-2.2765,-2.2927,-2.2628,-2.2649,-2.2783,-2.2836,-2.2937,-2.3253,-2.4073,-2.4241,-2.4461,-2.519,-2.5901,-2.6388,-2.6496,-2.7338,-2.7806,-2.7489,-2.8261,0.0,-2.8673,-2.9331,-2.978,-2.978,-2.978,-2.9783,-2.9769,-2.9806,-2.9726,-2.9443,-3.0072,-3.033,-3.019,-3.033,-3.0406,-3.0482,-2.9468,-2.8656,-2.8018,-2.7314,-2.7024,-2.7079,-2.7024,-2.699,-2.699,-2.699,-2.699,-2.699,-2.699,-2.699,-2.699,-2.699,-2.699,-2.6964,-2.6824,-2.676,-2.6657,0.0,0.0,0.0,0.0,0.0,0.0,0.0,0.0,0.0,0.0,0.0,0.0,0.0,0.0,0.0,0.0,0.0,0.0,0.0,0.0,0.0,0.0,0.0,-1.6164,-1.5651,-1.6231,0.0,0.0,0.0,0.0,0.0,-1.8075,-1.8374,-1.8537,-1.8818,-1.8941,-1.8933,-1.9043,0.0,0.0,0.0,0.0,0.0,0.0,0.0,0.0,0.0,0.0,0.0,0.0,0.0,-2.2088,-2.2123,-2.216,-2.2182,-2.2146,-2.2088,-2.2046,-2.223,-2.2386,-2.2402,-2.2176,-2.2149,-2.2188,-2.2426,-2.2501,-2.276,-2.3691,-2.3919,-2.4012,-2.4414,-2.5119,-2.5658,-2.5889,-2.6532,0.0,-2.7278,-2.7762,-2.8081,0.0,-2.8574,0.0,-2.8945,-2.8945,-2.869,-2.815,-2.874,-2.9077,-2.9109,-2.9007,-2.9081,-2.9392,-2.9496,-2.9541,-2.9539,-2.8645,-2.7966,-2.752,-2.7028,-2.6807,-2.6875,-2.6807,-2.6773,-2.6773,-2.6773,-2.6773,-2.6773,-2.6773,-2.6773,-2.6773,-2.6773,-2.6773,-2.6773,-2.6773,-2.6773,-2.6722,0.0,0.0,0.0,0.0,0.0,0.0,0.0,0.0,0.0,0.0,0.0,0.0,0.0,0.0,0.0,0.0,0.0,0.0,0.0,0.0,0.0,0.0,0.0,0.0,-1.595,-1.6377,0.0,0.0,0.0,0.0,0.0,0.0,0.0,0.0,0.0,0.0,0.0,0.0,0.0,0.0,0.0,0.0,0.0,0.0,0.0,0.0,0.0,0.0,0.0,0.0,-2.3167,-2.2689,-2.2419,-2.2344,-2.2488,-2.2843,-2.2454,-2.1977,-2.2309,-2.2115,-2.1807,-2.1807,-2.1807,-2.1921,-2.2387,-2.2501,-2.276,-2.3691,-2.3919,-2.4012,-2.4414,-2.4879,-2.5334,-2.5802,-2.6314,-2.6781,-2.7247,-2.7309,-2.7309,-2.7309,-2.7309,-2.7309,-2.7309,-2.7247,-2.705,-2.6646,-2.7623,-2.8399,-2.8751,-2.7702,-2.7452,-2.8195,-2.8235,-2.8133,-2.7936,-2.7578,-2.7202,-2.6773,-2.6487,-2.6418,-2.6508,-2.6383,-2.6349,-2.6349,-2.6452,-2.6499,-2.6499,-2.6499,-2.6499,-2.6499,-2.6499,-2.6499,-2.6499,-2.6499,-2.6499,-2.6499,0.0,0.0,0.0,0.0,0.0,0.0,0.0,0.0,0.0,0.0,-1.9258,-1.9647,0.0,0.0,0.0,0.0,0.0,0.0,0.0,0.0,0.0,0.0,0.0,0.0,0.0,0.0,0.0,0.0,0.0,0.0,0.0,0.0,0.0,0.0,0.0,0.0,0.0,0.0,0.0,0.0,0.0,0.0,0.0,0.0,0.0,0.0,0.0,0.0,0.0,0.0,-2.2835,-2.2537,-2.2857,-2.2962,-2.2984,-2.31,-2.2785,-2.2377,-2.2455,-2.2136,-2.1807,-2.1807,-2.1807,-2.1921,-2.2387,-2.2501,0.0,-2.3691,-2.3919,-2.4012,-2.4414,-2.4879,-2.5334,-2.5802,-2.6314,-2.6781,-2.7247,-2.7309,-2.7309,0.0,-2.7309,-2.7309,-2.7309,-2.6957,-2.6708,-2.6625,-2.6117,-2.6151,-2.6893,-2.7054,-2.7007,-2.6832,-2.6872,-2.645,-2.561,-2.6105,-2.6081,-2.5594,-2.5523,-2.5523,-2.5558,-2.5523,-2.5523,-2.5558,-2.6211,-2.6499,-2.6499,-2.6499,-2.6499,-2.6499,-2.6499,-2.6499,-2.6499,-2.6499,-2.6499,-2.6499,0.0,0.0,0.0,0.0,0.0,0.0,0.0,-2.0675,-2.0822,-2.0911,-2.1332,-2.1434,-2.0864,-2.0905,-2.0963,0.0,0.0,0.0,0.0,0.0,0.0,0.0,0.0,0.0,0.0,0.0,0.0,0.0,0.0,0.0,0.0,0.0,0.0,0.0,0.0,0.0,0.0,0.0,0.0,0.0,0.0,0.0,0.0,0.0,0.0,0.0,0.0,0.0,0.0,0.0,-2.2756,-2.245,-2.2696,-2.2804,-2.2859,-2.313,-2.2863,-2.2501,-2.2501,-2.2335,-2.2159,-2.2159,-2.1983,-2.2056,-2.2998,0.0,0.0,-2.4033,-2.4219,-2.4291,-2.4456,-2.4879,-2.5261,-2.5513,-2.5916,-2.6418,-2.6884,-2.6946,-2.704,-2.7278,-2.7309,-2.7309,-2.7309,-2.6884,-2.6511,-2.6227,-2.5606,-2.5564,-2.6465,-2.647,-2.6229,-2.5829,-2.5508,-2.526,-2.5012,-2.503,-2.4918,-2.4671,-2.4671,-2.4671,-2.4671,-2.4671,-2.4898,-2.5312,-2.5252,-2.5476,-2.5838,-2.5429,-2.5511,-2.5886,-2.5886,-2.6141,-2.6499,-2.6499,-2.6499,-2.6499,0.0,0.0,0.0,0.0,0.0,0.0,0.0,-2.189,-2.2268,-2.2607,-2.3133,-2.3026,-2.1922,-2.2003,-2.2021,0.0,0.0,0.0,0.0,0.0,0.0,0.0,0.0,0.0,0.0,0.0,0.0,0.0,0.0,0.0,0.0,0.0,0.0,0.0,0.0,0.0,0.0,0.0,0.0,0.0,0.0,0.0,0.0,0.0,0.0,0.0,0.0,0.0,0.0,0.0,-2.2783,-2.2414,-2.2379,-2.2418,-2.2584,-2.3049,-2.2925,-2.2625,-2.2522,-2.2501,-2.2501,-2.2501,-2.2149,-2.217,-2.3567,-2.3525,-2.3443,-2.4311,-2.4497,-2.4497,-2.4497,-2.4797,-2.5075,-2.5168,-2.5595,-2.6041,-2.6553,-2.6708,-2.6895,-2.7268,-2.7216,0.0,-2.7154,-2.661,-2.6134,-2.5771,-2.5337,-2.5373,-2.6023,-2.5655,-2.518,-2.4797,-2.4219,-2.4056,-2.4292,-2.4033,-2.3866,-2.3866,-2.3866,-2.3866,-2.3866,-2.3866,-2.4204,-2.4767,-2.4301,-2.4445,-2.5004,-2.4373,-2.448,-2.504,-2.504,-2.5441,-2.5978,-2.5978,-2.5978,-2.6013,0.0,0.0,0.0,0.0,0.0,0.0,0.0,-2.2326,-2.2422,-2.283,-2.3288,-2.3619,-2.373,-2.3233,-2.2819,0.0,0.0,0.0,0.0,0.0,0.0,0.0,0.0,0.0,0.0,0.0,0.0,0.0,0.0,0.0,0.0,0.0,0.0,0.0,0.0,0.0,0.0,0.0,0.0,0.0,0.0,0.0,0.0,0.0,0.0,0.0,0.0,0.0,0.0,0.0,0.0,-2.2405,-2.1983,-2.2159,-2.2584,-2.3049,0.0,0.0,-2.2615,-2.2501,-2.2501,-2.2501,-2.2149,-2.217,-2.3567,0.0,-2.3443,-2.4311,-2.4497,-2.4497,-2.4497,-2.4538,-2.4693,-2.5117,-2.5595,-2.6041,-2.6553,-2.6978,-2.7258,-2.7299,0.0,0.0,-2.6677,-2.5854,-2.5292,-2.5251,-2.4817,-2.4602,-2.4677,-2.4304,-2.3846,-2.3419,-2.291,-2.2481,-2.2088,-2.2751,-2.3102,-2.3102,-2.3102,-2.3102,-2.3102,-2.3102,-2.3139,-2.325,-2.3841,-2.4145,-2.4192,-2.412,-2.4145,-2.4228,-2.4228,-2.4264,-2.4337,-2.4337,-2.4337,-2.4445,0.0,0.0,0.0,0.0,0.0,0.0,-2.2999,-2.2998,-2.3213,-2.4055,-2.4619,-2.505,-2.5336,-2.5461,-2.4995,-2.3593,0.0,0.0,0.0,0.0,0.0,0.0,0.0,0.0,0.0,0.0,0.0,0.0,0.0,0.0,0.0,0.0,0.0,0.0,0.0,0.0,0.0,0.0,0.0,0.0,0.0,0.0,0.0,0.0,0.0,0.0,0.0,0.0,0.0,0.0,0.0,0.0,-2.2766,-2.2534,0.0,0.0,-2.277,-2.2791,-2.2884,-2.2915,-2.2977,-2.3256,-2.2977,-2.2925,-2.4022,-2.3929,-2.3784,-2.4373,-2.4497,-2.4497,-2.4497,-2.4497,-2.4559,-2.4745,-2.4964,-2.5233,-2.5699,-2.6144,-2.648,-2.648,-2.6563,-2.6511,-2.6231,-2.5595,-2.5075,-2.4797,-2.4611,-2.4383,-2.4157,-2.3971,-2.366,-2.3194,-2.2739,-2.2273,-2.1807,-2.2101,-2.2289,-2.2289,-2.2289,-2.2289,-2.2289,-2.2289,-2.2553,-2.3001,-2.2793,-2.3005,-2.3423,-2.2931,-2.3005,-2.3449,-2.3449,-2.3694,-2.4108,-2.4108,-2.4108,-2.4156,0.0,0.0,0.0,0.0,0.0,-2.2853,-2.3469,-2.3606,-2.3994,-2.4928,-2.5672,-2.621,-2.6426,-2.6953,-2.6752,-2.5426,-2.4583,0.0,0.0,0.0,0.0,0.0,0.0,0.0,0.0,0.0,0.0,-2.4226,0.0,0.0,0.0,0.0,0.0,0.0,0.0,0.0,0.0,0.0,0.0,0.0,0.0,0.0,0.0,0.0,0.0,0.0,0.0,0.0,0.0,0.0,0.0,0.0,0.0,0.0,0.0,0.0,-2.2387,-2.2542,-2.2729,-2.2884,-2.3091,-2.3598,-2.3329,-2.3256,-2.4259,-2.4198,-2.4002,-2.4404,-2.4497,-2.4497,-2.4497,-2.4497,-2.4497,-2.4497,-2.4611,-2.4859,-2.5357,-2.5802,-2.6179,-2.6314,-2.6376,-2.6283,-2.5906,-2.5368,-2.4848,-2.4518,-2.4497,-2.4301,-2.3898,-2.3784,-2.3463,-2.2998,-2.2532,-2.2139,-2.1807,-2.1807,-2.1807,-2.1807,-2.1807,-2.1807,-2.1807,-2.1807,-2.2101,-2.2628,-2.2035,-2.2101,-2.259,-2.2025,-2.2138,-2.2665,-2.2665,-2.2942,-2.3427,-2.3427,-2.3427,-2.3463,0.0,0.0,0.0,0.0,0.0,0.0,-2.3601,-2.4152,-2.4654,-2.5149,-2.6188,-2.6854,-2.6812,-2.7197,-2.774,-2.8289,-2.6337,0.0,0.0,0.0,0.0,0.0,0.0,0.0,0.0,0.0,-2.427,-2.5204,-2.5391,-2.5414,0.0,0.0,0.0,0.0,0.0,0.0,0.0,0.0,0.0,0.0,0.0,0.0,0.0,0.0,0.0,0.0,0.0,0.0,0.0,0.0,0.0,0.0,0.0,0.0,0.0,0.0,-2.2139,-2.2397,-2.1942,-2.2159,-2.2615,-2.308,-2.2842,-2.2863,-2.4187,-2.4198,-2.4002,-2.4404,-2.4497,-2.4497,-2.4497,-2.4497,-2.4497,-2.4497,-2.4879,-2.5378,-2.5813,-2.6314,-2.6781,-2.7237,-2.649,-2.593,-2.5875,-2.5068,-2.4507,-2.4497,-2.4497,-2.4301,-2.3898,-2.3443,-2.2977,-2.2511,-2.2056,-2.1807,-2.1807,-2.1807,-2.1807,-2.1807,-2.1807,-2.1807,-2.1807,-2.1807,-2.1807,-2.1807,-2.1807,-2.1807,-2.1807,-2.1807,-2.1807,-2.1807,-2.1807,-2.1807,-2.1807,-2.1807,-2.1807,-2.1959,0.0,0.0,0.0,0.0,0.0,0.0,0.0,-2.3672,-2.4132,-2.4705,-2.6171,-2.7312,-2.7724,-2.8666,-2.9338,-2.9492,-2.7681,0.0,0.0,0.0,0.0,0.0,0.0,0.0,0.0,0.0,-2.7434,-2.8145,-2.8571,-2.8756,-2.8672,-2.8373,-2.7989,0.0,0.0,0.0,0.0,0.0,0.0,0.0,0.0,0.0,0.0,0.0,0.0,0.0,0.0,0.0,0.0,0.0,0.0,0.0,0.0,0.0,0.0,0.0,0.0,0.0,-2.2232,-2.2615,-2.308,-2.3546,-2.3774,-2.397,-2.4394,-2.4394,-2.4332,-2.4466,-2.4497,-2.4497,-2.4497,-2.4497,-2.4497,-2.4497,-2.4621,-2.4879,-2.5378,-2.5564,-2.5709,-2.5865,-2.5337,-2.4964,-2.4964,-2.4662,-2.4497,-2.4497,-2.426,-2.3888,-2.3432,-2.2967,-2.2646,-2.2501,-2.2045,-2.1807,-2.1807,-2.1807,-2.1807,-2.1807,-2.1807,-2.1807,-2.1807,-2.1807,-2.1807,-2.1807,-2.1807,-2.1807,-2.1807,-2.1807,-2.1807,-2.1807,-2.1807,-2.1807,-2.1807,-2.1807,-2.1807,-2.1845,0.0,0.0,0.0,0.0,0.0,0.0,0.0,-2.395,-2.4457,-2.5061,-2.6681,-2.7895,-2.8254,-2.9384,-3.0267,-3.0736,-2.9493,0.0,0.0,0.0,0.0,0.0,0.0,0.0,0.0,-2.8443,-2.8972,-2.9791,-3.0363,-3.0531,-3.0304,-3.0182,-2.9897,-2.9407,-2.9111,0.0,0.0,0.0,0.0,0.0,0.0,0.0,0.0,0.0,0.0,0.0,0.0,0.0,0.0,0.0,0.0,0.0,0.0,0.0,0.0,0.0,-2.2777,-2.2277,0.0,-2.2799,-2.324,-2.3546,-2.396,-2.429,-2.4466,-2.4497,-2.4497,-2.4497,-2.4497,-2.4497,-2.4497,-2.4497,-2.4497,-2.4497,-2.4497,-2.4662,-2.5127,-2.5002,-2.4716,-2.445,-2.4385,-2.4326,-2.412,-2.4368,-2.4497,-2.4497,-2.4136,-2.3588,-2.2869,-2.237,-2.2044,-2.192,-2.1837,-2.1807,-2.1807,-2.1807,-2.1807,-2.1807,-2.1807,-2.1807,-2.1807,-2.1807,-2.1807,-2.1807,-2.1807,-2.1807,0.0,-2.1807,-2.1807,-2.1807,-2.1807,-2.1807,-2.1807,-2.1807,-2.1807,-2.1807,0.0,0.0,0.0,0.0,0.0,0.0,0.0,-2.4802,-2.5379,-2.5873,-2.7499,-2.8581,-2.8468,-2.9443,-3.0656,-3.1933,0.0,0.0,0.0,0.0,0.0,0.0,0.0,0.0,0.0,-2.8853,-2.9409,-3.0506,-3.1068,-3.1068,-3.0544,-3.1106,-3.105,-3.0483,-3.0408,0.0,0.0,0.0,0.0,0.0,0.0,0.0,0.0,0.0,0.0,0.0,0.0,0.0,0.0,0.0,0.0,0.0,0.0,0.0,0.0,0.0,0.0,0.0,0.0,-2.2834,-2.3157,-2.3283,-2.3629,-2.4033,-2.4404,-2.4497,0.0,-2.4497,-2.4497,-2.4497,-2.4497,-2.4454,-2.4411,-2.4411,-2.4368,-2.4522,-2.4985,-2.4494,-2.3875,-2.3117,-2.3656,-2.392,-2.3446,-2.398,-2.4348,-2.4317,-2.3948,-2.3236,-2.2135,-2.1649,-2.1224,-2.0838,-2.1415,-2.1769,-2.1807,-2.1807,-2.1807,-2.1807,-2.1807,-2.1807,-2.1807,-2.1807,-2.1807,-2.1807,-2.1807,-2.1807,-2.1807,-2.1807,-2.1807,-2.1807,-2.1807,-2.1807,-2.1807,-2.1807,-2.1807,-2.1807,0.0,0.0,0.0,0.0,0.0,0.0,0.0,0.0,0.0,0.0,-2.7395,-2.8821,-2.8793,-2.9784,-3.1013,0.0,0.0,0.0,0.0,0.0,0.0,0.0,0.0,0.0,0.0,-3.1302,-3.1853,-3.2596,-3.2739,-3.2739,-3.2596,-3.2739,-3.255,-3.2121,-3.167,-3.093,0.0,0.0,0.0,0.0,0.0,0.0,0.0,0.0,0.0,0.0,-2.5258,-2.4866,0.0,0.0,0.0,0.0,0.0,0.0,0.0,0.0,-2.397,-2.3903,-2.394,0.0,-2.3724,-2.4099,-2.4284,-2.4373,0.0,-2.4497,-2.4497,-2.4497,-2.4497,-2.4497,-2.4497,-2.4067,-2.3721,-2.3721,-2.3256,-2.3042,-2.3522,-2.3435,-2.3175,-2.2628,-2.2723,-2.2773,-2.2677,-2.2799,-2.2805,-2.2537,-2.2078,-2.16,-2.1034,-2.0512,-2.0244,-2.0148,-2.0779,-2.1339,-2.1807,-2.1807,-2.1807,-2.1807,-2.1807,-2.1807,-2.1807,-2.1807,-2.1807,-2.1807,-2.1807,-2.1807,-2.1807,-2.1807,-2.1807,-2.1807,-2.1807,-2.1807,-2.1807,-2.1807,-2.1807,-2.1769,0.0,0.0,0.0,0.0,0.0,0.0,0.0,0.0,0.0,0.0,0.0,-2.9072,-2.9016,-3.0075,0.0,0.0,0.0,0.0,0.0,0.0,0.0,0.0,0.0,0.0,-3.225,-3.252,-3.2933,-3.357,-3.357,-3.357,-3.357,-3.357,-3.3417,-3.308,-3.2117,-3.1362,0.0,0.0,0.0,0.0,0.0,0.0,0.0,0.0,0.0,0.0,-2.53,-2.4748,0.0,-2.42,-2.42,-2.42,0.0,0.0,0.0,0.0,-2.42,-2.4324,-2.4869,-2.4676,-2.4433,-2.4748,-2.4818,-2.4828,-2.4828,-2.4658,-2.4411,0.0,0.0,0.0,-2.3604,-2.3256,-2.2994,-2.2994,-2.2668,-2.2391,-2.2313,-2.2295,-2.2077,-2.1508,-2.1748,-2.1917,-2.1917,-2.2058,-2.2087,-2.1912,-2.1271,-2.0702,-2.0201,-1.9752,-1.949,-1.949,-1.9854,-2.0479,-2.1377,-2.1377,-2.1377,-2.1377,-2.1377,-2.1377,-2.1415,-2.1683,-2.1807,-2.1807,-2.1807,-2.1807,-2.1807,-2.1807,-2.1807,-2.1807,-2.1807,-2.1807,-2.1807,-2.1807,-2.1731,-2.1655,0.0,0.0,0.0,0.0,0.0,0.0,0.0,0.0,0.0,0.0,0.0,0.0,0.0,0.0,0.0,0.0,0.0,0.0,0.0,0.0,0.0,0.0,0.0,-3.2434,-3.293,-3.3011,-3.3339,-3.3896,-3.3896,-3.3896,-3.3896,-3.3896,-3.3713,-3.3314,-3.2182,-3.165,0.0,0.0,0.0,0.0,0.0,0.0,0.0,0.0,0.0,0.0,0.0,0.0,0.0,-2.4309,-2.4273,-2.4236,-2.4236,0.0,0.0,0.0,0.0,0.0,-2.544,-2.5422,-2.5144,-2.5334,-2.5288,-2.52,-2.52,0.0,0.0,0.0,0.0,0.0,0.0,-2.2306,0.0,-2.2262,-2.2129,-2.1872,-2.1311,-2.1221,-2.1006,-2.0382,-2.0871,-2.1204,-2.1141,-2.1406,-2.1502,-2.1414,-2.0697,-2.0033,-1.9466,-1.9062,-1.8843,-1.8843,-1.8962,-1.9508,-2.0595,-2.0702,-2.0741,-2.0741,-2.0741,-2.0741,-2.0741,-2.129,-2.153,-2.153,-2.153,0.0,-2.1655,-2.1655,-2.1731,-2.1807,-2.1807,-2.1683,-2.1568,-2.1568,-2.1328,-2.1059,0.0,0.0,0.0,0.0,0.0,0.0,0.0,0.0,0.0,0.0,0.0,0.0,0.0,0.0,0.0,0.0,0.0,0.0,0.0,0.0,0.0,0.0,-3.3521,-3.3058,-3.3144,-3.3522,-3.3796,-3.3896,-3.3896,-3.3896,-3.3896,-3.3896,-3.3311,-3.2249,-3.244,-3.2198,-3.1683,0.0,0.0,0.0,0.0,0.0,0.0,0.0,0.0,0.0,0.0,0.0,0.0,-2.4718,-2.461,-2.4454,-2.4454,0.0,0.0,0.0,0.0,0.0,-2.544,-2.5627,-2.5688,-2.6192,-2.5766,-2.52,-2.52,0.0,0.0,0.0,0.0,0.0,0.0,-2.1917,-2.1526,-2.1526,-2.1042,-2.06,-2.0464,-2.0473,-2.0428,-2.0292,-2.0382,-2.0344,-1.9988,-1.999,-1.9765,-1.9146,-1.8981,-1.8739,-1.8264,-1.8187,-1.8152,-1.8152,-1.8723,-1.9082,-1.9271,-1.9795,-2.006,-2.006,-2.006,-2.006,-2.006,-2.0138,-2.0177,-2.0177,0.0,-2.0498,-2.1059,-2.1059,-2.1339,-2.1807,-2.1807,-2.1242,-2.044,-2.044,-1.9836,-1.9128,0.0,0.0,0.0,0.0,0.0,0.0,0.0,0.0,0.0,0.0,0.0,0.0,0.0,0.0,0.0,0.0,0.0,0.0,0.0,0.0,0.0,-3.4404,-3.3897,-3.3573,-3.3474,-3.3613,-3.3513,-3.3134,-3.3134,-3.3321,-3.3686,-3.3916,-3.3518,-3.2629,-3.2763,-3.2634,-3.2364,0.0,0.0,0.0,0.0,0.0,0.0,0.0,0.0,0.0,0.0,0.0,0.0,0.0,-2.4754,-2.4646,-2.4538,0.0,0.0,0.0,0.0,0.0,-2.5084,-2.5497,-2.5849,-2.6371,-2.6214,-2.5726,-2.5115,-2.436,0.0,0.0,0.0,0.0,0.0,-2.0997,-2.0826,-2.0826,-2.051,-2.0292,-2.0292,-2.0292,-2.0215,-2.0018,-2.0001,-1.9847,-1.9478,-1.9239,-1.8973,-1.8614,-1.84,-1.822,-1.8008,-1.8,-1.8,-1.8,-1.8322,-1.8482,-1.8482,-1.8745,-1.9054,-1.9411,-1.9411,-1.9411,-1.9411,-1.9747,-1.9904,-1.9904,0.0,-2.006,-2.0343,-2.0343,-2.0537,-2.0731,-2.0527,-2.0168,-1.9689,-1.9325,-1.885,-1.8492,0.0,0.0,0.0,0.0,0.0,0.0,0.0,0.0,0.0,0.0,0.0,0.0,0.0,0.0,0.0,0.0,0.0,0.0,0.0,0.0,-3.4196,-3.4327,-3.4147,-3.3888,-3.3533,-3.3433,-3.3103,-3.2544,-3.2544,-3.2864,-3.3518,-3.3975,-3.3864,-3.3258,-3.3202,-3.3121,-3.2959,-3.2962,0.0,0.0,0.0,0.0,0.0,0.0,0.0,0.0,0.0,0.0,0.0,0.0,0.0,0.0,0.0,0.0,0.0,-2.4273,-2.42,-2.4303,-2.4786,-2.521,-2.5608,-2.5944,0.0,-2.5823,-2.4978,-2.4076,0.0,0.0,0.0,0.0,0.0,-2.0292,-2.0292,-2.0292,-2.0292,-2.0292,-2.0292,-2.0215,-2.0061,-1.9734,-1.9623,-1.9461,-1.9076,-1.8759,-1.8554,-1.8468,-1.8153,-1.8,-1.8,-1.8,-1.8,-1.8,-1.8,-1.8,-1.8,-1.8,-1.8282,-1.8763,-1.8763,-1.8763,-1.8803,-1.9244,-1.9471,-1.9471,-1.9471,-1.955,-1.9678,-1.9678,-1.9747,-1.9864,-1.958,-1.9225,-1.8829,-1.794,-1.7626,-1.7706,0.0,0.0,0.0,0.0,0.0,0.0,0.0,0.0,0.0,0.0,0.0,0.0,0.0,0.0,0.0,0.0,0.0,0.0,0.0,0.0,-3.4724,-3.5367,-3.4609,-3.3826,-3.3061,-3.3046,-3.2922,-3.2674,-3.2674,-3.2978,-3.3518,-3.4109,-3.408,-3.3485,-3.383,-3.3705,-3.3202,-3.3636,0.0,0.0,0.0,0.0,0.0,0.0,0.0,0.0,0.0,0.0,0.0,0.0,0.0,0.0,0.0,0.0,-2.4454,-2.4273,-2.42,-2.4303,-2.4786,-2.4946,-2.4895,-2.4687,-2.4694,0.0,-2.4777,-2.2978,0.0,-2.1373,0.0,0.0,0.0,-2.0292,-2.0292,-2.0292,-2.0292,-2.0292,-2.0292,-2.0001,-1.9725,-1.97,-1.9427,-1.9059,-1.8665,-1.8605,-1.8451,-1.8059,-1.8017,-1.8,-1.8,-1.8,-1.8,-1.8,-1.8,-1.8,-1.8,-1.8,-1.804,-1.8072,-1.8072,-1.8072,-1.8072,-1.8112,-1.8152,-1.8152,-1.8152,-1.8474,-1.9073,-1.9073,-1.9371,-1.9904,-1.9864,-1.9036,-1.7651,-1.6154,-1.5631,-1.579,0.0,0.0,0.0,0.0,0.0,0.0,0.0,0.0,0.0,0.0,0.0,0.0,0.0,0.0,0.0,0.0,0.0,0.0,0.0,0.0,-3.3559,-3.4233,-3.3543,-3.3019,-3.272,-3.2491,-3.2147,-3.1719,-3.2374,-3.2791,-3.3004,-3.3954,-3.4283,-3.4066,-3.423,-3.4168,-3.3965,0.0,0.0,0.0,0.0,0.0,0.0,0.0,0.0,0.0,0.0,0.0,0.0,0.0,-2.5664,-2.5218,0.0,-2.4849,-2.4646,-2.4465,-2.4309,-2.4235,-2.4418,-2.4935,-2.518,-2.4227,-2.3888,0.0,0.0,-2.2193,-2.1392,-2.0836,-2.051,0.0,0.0,-2.0292,-2.0292,-2.0292,-2.0103,-1.9905,-1.9905,-1.9632,-1.9299,-1.9059,-1.8896,-1.8656,-1.828,-1.8245,-1.8145,-1.8008,-1.8,-1.8,-1.8,-1.8,-1.8,-1.8,-1.8,-1.8,-1.8,-1.8,-1.8,-1.8,-1.8,-1.8,-1.7991,-1.7757,-1.7757,-1.7951,-1.7424,-1.7505,-1.8,-1.8,-1.7983,-1.7885,-1.7642,-1.7,-1.6203,-1.5631,-1.559,-1.5922,0.0,0.0,0.0,0.0,0.0,0.0,0.0,0.0,0.0,0.0,0.0,0.0,0.0,0.0,0.0,0.0,0.0,0.0,-3.2718,-3.2601,-3.2811,-3.3469,-3.3036,-3.2675,-3.2512,-3.2258,-3.1797,-3.1161,-3.2278,-3.2903,-3.3123,-3.4072,-3.4481,-3.4481,-3.4244,-3.4124,-3.4095,0.0,0.0,0.0,0.0,0.0,0.0,0.0,0.0,0.0,0.0,0.0,0.0,0.0,-2.5896,0.0,0.0,0.0,0.0,0.0,-2.4418,-2.4273,-2.4236,-2.4519,-2.4561,-2.3384,0.0,0.0,-2.1367,-2.1172,-2.0985,-2.0414,-2.0198,-2.0155,-2.0275,0.0,-2.0121,-2.0121,-1.9862,-1.9657,-1.9537,-1.923,-1.8888,-1.8622,-1.8485,-1.8314,-1.8025,-1.8,-1.8,-1.8,-1.8,-1.8,-1.8,-1.8,-1.8,-1.8,-1.8,-1.8,-1.8,-1.8,-1.7959,-1.7797,-1.7959,-1.8,-1.8,-1.7595,-1.7554,-1.7757,-1.7017,-1.6894,-1.7188,-1.7188,-1.6984,-1.6656,-1.6252,-1.588,-1.559,-1.5472,-1.559,-1.5922,0.0,0.0,0.0,0.0,0.0,0.0,0.0,0.0,0.0,0.0,0.0,0.0,0.0,0.0,0.0,0.0,0.0,0.0,-3.3308,-3.2821,-3.2781,-3.3485,-3.3448,-3.3111,-3.2527,-3.2457,-3.2051,-3.1322,-3.2462,-3.3328,-3.4009,-3.449,-3.4683,-3.4654,-3.3846,-3.3503,-3.346,0.0,0.0,0.0,0.0,0.0,0.0,0.0,0.0,0.0,0.0,0.0,0.0,0.0,-2.5931,-2.5276,0.0,0.0,0.0,-2.4634,-2.449,-2.4454,-2.4236,-2.3604,-2.2815,-2.1993,0.0,0.0,-2.0009,-1.982,-1.9912,-2.0228,-2.0001,-1.9811,-2.0215,-1.9992,-1.9691,-1.9691,-1.9691,-1.9554,-1.9222,-1.8828,-1.8579,-1.8579,-1.8254,-1.8,-1.8,-1.8,-1.8,-1.8,-1.8,-1.8,-1.8,-1.8,-1.8,-1.8,-1.8,-1.8,-1.8,-1.8,-1.7797,-1.7392,-1.7797,-1.8,-1.7951,-1.7554,-1.7392,-1.7351,-1.6902,-1.6689,-1.6689,-1.6689,-1.6689,-1.6648,-1.6252,-1.6087,-1.6046,-1.5555,-1.5431,-1.5472,0.0,0.0,0.0,0.0,0.0,0.0,0.0,0.0,0.0,0.0,0.0,0.0,0.0,0.0,0.0,0.0,0.0,0.0,-3.2719,-3.2302,-3.2423,-3.331,-3.3383,-3.3521,-3.3768,-3.3788,-3.325,-3.2124,-3.2822,-3.3234,-3.3456,-3.4386,-3.4284,-3.329,-3.3553,-3.3339,0.0,0.0,0.0,0.0,0.0,0.0,0.0,0.0,0.0,0.0,0.0,0.0,0.0,0.0,0.0,0.0,0.0,0.0,0.0,-2.479,-2.461,-2.4345,-2.3556,-2.3839,0.0,-2.1446,0.0,0.0,0.0,-2.0023,0.0,0.0,-2.0001,-1.9734,-1.9845,-1.9598,-1.9341,-1.9341,-1.911,-1.8888,-1.8776,-1.8434,-1.8162,-1.8162,-1.8059,-1.8,-1.8,-1.8,-1.8,-1.8,-1.8,-1.8,-1.8,-1.8,-1.8,-1.8,-1.8,-1.8,-1.8,-1.7716,-1.7514,-1.7392,-1.7188,-1.7098,-1.7098,-1.6976,-1.6902,-1.6861,-1.6121,-1.5963,-1.6252,-1.5922,-1.5963,-1.6252,-1.5797,-1.5797,-1.6046,-1.5555,-1.5797,-1.6286,0.0,0.0,0.0,0.0,0.0,0.0,0.0,0.0,0.0,0.0,0.0,0.0,0.0,0.0,0.0,0.0,0.0,0.0,0.0,0.0,-3.2335,-3.2891,-3.3444,-3.3995,-3.4603,-3.4748,-3.4707,-3.448,-3.4179,-3.4317,-3.4851,-3.4894,-3.4437,-3.3577,-3.3435,-3.31,0.0,0.0,0.0,0.0,-3.2573,-3.2173,-3.1428,0.0,0.0,0.0,0.0,0.0,0.0,0.0,0.0,0.0,-2.5511,0.0,0.0,-2.4861,-2.4718,-2.4454,-2.3666,-2.3571,0.0,-2.1669,-2.167,-2.1741,-2.0382,0.0,0.0,0.0,-1.9778,-1.9513,-1.9513,-1.9204,-1.8981,-1.8981,-1.8742,-1.8537,-1.8382,-1.8136,-1.8,-1.8,-1.8,-1.8,-1.8,-1.8,-1.8,-1.8,-1.8,-1.8,-1.8,-1.8,-1.8,-1.8,-1.7838,-1.7757,-1.7757,-1.7351,-1.7025,-1.6861,-1.6779,-1.6525,-1.6203,-1.6368,-1.6451,-1.6409,-1.5714,-1.5555,-1.5797,-1.5514,-1.5555,-1.5797,-1.5514,-1.5555,-1.5797,-1.5514,-1.5714,-1.6162,0.0,0.0,0.0,0.0,0.0,0.0,0.0,0.0,0.0,0.0,0.0,0.0,0.0,0.0,0.0,0.0,0.0,0.0,0.0,0.0,-3.2574,-3.2499,-3.3727,-3.4722,-3.5402,-3.563,-3.6428,-3.7775,-3.6124,-3.5992,-3.7273,-3.5655,-3.4839,-3.4597,-3.3441,-3.2863,0.0,0.0,0.0,-3.1729,-3.1531,-3.1438,-3.1438,-3.1281,0.0,0.0,0.0,0.0,0.0,0.0,0.0,0.0,-2.5546,-2.5276,-2.5206,-2.4897,-2.4801,-2.4682,-2.42,-2.3049,-2.1998,-2.2239,-2.1351,0.0,-2.0436,-2.035,-2.014,-1.9717,0.0,-1.9162,-1.9162,-1.8802,-1.8537,-1.8537,-1.8537,-1.8425,-1.8042,-1.8,-1.8,-1.8,-1.8,-1.8,-1.8,-1.8,-1.8,-1.8,-1.8,-1.8,-1.8,-1.8,-1.8,-1.8,-1.7595,-1.7392,-1.7392,-1.6902,-1.6451,-1.6087,-1.6451,-1.6162,-1.5431,-1.588,-1.6087,-1.6004,-1.5597,-1.5389,-1.5389,-1.5389,-1.5431,-1.5472,-1.5431,-1.5472,-1.5514,-1.5431,-1.5431,-1.5472,0.0,0.0,0.0,0.0,0.0,0.0,0.0,0.0,0.0,0.0,0.0,0.0,0.0,0.0,0.0,0.0,0.0,0.0,0.0,0.0,-3.3608,-3.386,-3.5144,-3.6427,-3.7665,-3.8258,-3.893,-3.9785,-3.6758,-3.5739,-3.659,-3.561,-3.4269,-3.2714,0.0,-3.246,0.0,0.0,-3.1132,-3.122,-3.1041,-3.0936,-3.0936,-3.0816,-3.0577,0.0,0.0,0.0,0.0,0.0,0.0,0.0,-2.5721,-2.5241,-2.5123,-2.4861,-2.4682,-2.4381,-2.3482,-2.3226,0.0,-2.1709,-2.0819,-2.0219,-2.0002,-1.9825,-1.9592,-1.935,-1.8982,-1.8716,-1.8716,-1.8408,-1.8119,-1.8119,-1.8119,-1.8085,-1.8008,-1.8,-1.8,-1.8,-1.8,-1.8,-1.8,-1.8,-1.8,-1.8,-1.8,-1.8,-1.8,-1.8,-1.8,-1.8,-1.7595,-1.7392,-1.7392,-1.6623,-1.617,-1.6087,-1.5797,-1.559,-1.5431,-1.588,-1.5888,-1.5555,-1.5431,-1.5389,-1.5389,-1.5389,-1.5639,-1.5922,-1.5555,-1.5839,-1.6327,-1.5631,-1.5631,-1.5888,0.0,0.0,0.0,0.0,0.0,0.0,0.0,0.0,0.0,0.0,0.0,0.0,0.0,0.0,0.0,0.0,0.0,0.0,0.0,0.0,-3.4505,-3.5357,-3.6307,-3.7107,-3.7878,-3.8513,-3.9172,-3.9879,-3.7035,-3.6195,0.0,0.0,0.0,-3.3958,0.0,-3.328,0.0,0.0,-3.119,-3.1176,-3.1014,-3.0895,-3.0791,-3.0732,-3.0598,-3.0417,-3.028,0.0,0.0,0.0,0.0,0.0,0.0,0.0,-2.5147,-2.4897,-2.4718,-2.4418,-2.3298,0.0,0.0,-2.0893,0.0,-2.0105,-1.9656,-1.9402,-1.9089,-1.8707,-1.8605,-1.8528,-1.8357,-1.8128,-1.8,-1.8,-1.8,-1.8,-1.8,-1.8,-1.8,-1.8,-1.8,-1.8,-1.8,-1.8,-1.8,-1.8,-1.8,-1.8,-1.8,-1.8,-1.8,-1.8,-1.7392,-1.7066,-1.7066,-1.6203,-1.5756,-1.5756,-1.5514,-1.5389,-1.5431,-1.5631,-1.5631,-1.5389,-1.5389,-1.5389,-1.5431,-1.5639,-1.5756,-1.5756,-1.5756,-1.588,-1.6038,-1.5548,-1.5548,-1.5722,0.0,0.0,0.0,0.0,0.0,0.0,0.0,0.0,0.0,0.0,0.0,0.0,0.0,0.0,0.0,0.0,0.0,0.0,0.0,-3.4083,-3.5121,-3.6525,-3.6933,-3.7195,-3.7295,-3.7891,-3.8444,-3.8934,-3.7085,0.0,0.0,0.0,0.0,-3.5803,0.0,0.0,0.0,0.0,-3.1322,-3.1322,-3.119,-3.1043,-3.0881,-3.0821,-3.0732,-3.0598,-3.0387,-3.0249,-3.0005,-2.9089,0.0,0.0,0.0,0.0,-2.5218,-2.4897,-2.4801,-2.4502,-2.3335,-2.2359,-2.1385,-2.0199,-2.0016,0.0,-1.9342,-1.9006,-1.8704,-1.81,-1.828,-1.84,-1.8051,-1.8,-1.7974,-1.7914,-1.7957,-1.7974,-1.7906,-1.7957,-1.8,-1.8,-1.8,-1.8,-1.8,-1.8,-1.8,-1.8,-1.8,-1.8,-1.8,-1.8,-1.7959,-1.7919,-1.7098,-1.6656,-1.6615,-1.5797,-1.5389,-1.5389,-1.5389,-1.5389,-1.5389,-1.5389,-1.5389,-1.5389,-1.5472,-1.5514,-1.5555,-1.5922,-1.5922,-1.5631,-1.588,-1.5797,-1.5514,-1.5298,-1.5298,-1.5382,0.0,0.0,0.0,0.0,0.0,0.0,0.0,0.0,0.0,0.0,0.0,-3.4489,-3.4489,-3.3846,0.0,0.0,0.0,0.0,-3.3406,0.0,0.0,-3.6525,-3.6544,-3.6775,-3.7295,-3.7891,-3.7947,-3.74,0.0,0.0,0.0,0.0,0.0,-3.5166,0.0,0.0,0.0,0.0,-3.1467,-3.1467,-3.1322,-3.1263,-3.1205,-3.091,-3.0791,-3.0732,-3.0417,-3.0296,-3.0129,-2.9139,-2.8312,0.0,0.0,0.0,-2.5087,-2.4861,-2.4682,-2.4309,-2.3298,0.0,-2.0984,0.0,-1.993,-1.9743,0.0,0.0,-1.8593,-1.8089,-1.8034,-1.8059,-1.8008,-1.8,-1.7889,-1.7595,-1.7826,-1.788,-1.7595,-1.7826,-1.8,-1.8,-1.8,-1.8,-1.8,-1.8,-1.8,-1.8,-1.8,-1.8,-1.8,-1.8,-1.7838,-1.7473,-1.6984,-1.6533,-1.617,-1.568,-1.5389,-1.5389,-1.5389,-1.5389,-1.5389,-1.5389,-1.5389,-1.5431,-1.5846,-1.6004,-1.6004,-1.6087,-1.6286,-1.6451,-1.5756,-1.5714,-1.588,-1.4908,-1.4915,-1.5298,0.0,0.0,0.0,0.0,0.0,0.0,0.0,0.0,0.0,0.0,0.0,-3.3794,-3.3897,-3.322,0.0,0.0,0.0,0.0,-3.3372,-3.3711,0.0,0.0,-3.5923,-3.6142,-3.6783,-3.6978,-3.6896,-3.6489,0.0,0.0,0.0,-3.6787,-3.6595,0.0,0.0,0.0,0.0,0.0,0.0,-3.2407,-3.2048,-3.1851,-3.168,-3.1176,-3.0895,-3.0762,-3.0538,-3.0417,-3.0221,-2.9699,-2.8698,-2.763,-2.717,0.0,0.0,0.0,-2.4754,-2.4288,-2.2479,-2.1226,-2.0217,0.0,-1.9137,-1.8997,-1.8763,-1.8612,-1.8442,-1.808,-1.8,-1.7931,-1.7757,-1.7723,-1.7595,-1.7218,-1.7475,-1.7655,-1.7531,-1.7792,-1.8,-1.8,-1.8,-1.8,-1.8,-1.8,-1.8,-1.8,-1.8,-1.8,-1.8,-1.8,-1.7919,-1.7757,-1.6863,-1.6418,-1.6451,-1.5569,-1.5206,-1.5389,-1.5389,-1.5389,-1.5389,-1.5389,-1.5389,-1.5431,-1.5888,-1.5963,-1.5756,-1.6245,-1.6245,-1.5955,-1.5839,-1.5541,-1.5117,-1.4999,-1.4915,-1.4866,0.0,0.0,0.0,0.0,0.0,0.0,0.0,0.0,0.0,0.0,0.0,0.0,-3.3402,0.0,0.0,0.0,0.0,0.0,-3.3068,0.0,0.0,0.0,0.0,-3.5423,-3.6102,-3.5993,-3.5873,0.0,0.0,0.0,-3.8195,-3.7649,-3.8162,0.0,-3.7976,-3.6778,0.0,0.0,0.0,0.0,0.0,-3.2299,-3.2089,-3.1394,-3.1073,-3.091,-3.0732,-3.0538,-3.0387,-3.0219,-2.9219,-2.7992,-2.7657,-2.6561,0.0,0.0,0.0,-2.3792,0.0,0.0,-1.983,-1.8925,-1.8643,-1.8545,0.0,-1.8452,-1.8322,-1.808,-1.8,-1.7854,-1.7415,-1.7445,-1.7312,-1.685,-1.7167,-1.7471,-1.7346,-1.7732,-1.8,-1.8,-1.8,-1.8,-1.8,-1.8,-1.8,-1.8,-1.8,-1.8,-1.8,-1.7906,-1.7814,-1.7686,-1.6738,-1.6238,-1.6258,-1.5378,-1.5061,-1.5389,-1.5389,-1.5389,-1.5389,-1.5389,-1.5389,-1.5431,-1.6004,-1.6128,-1.5963,-1.6492,-1.6327,-1.5714,-1.5665,-1.5159,-1.444,-1.479,-1.4699,-1.4482,0.0,0.0,0.0,0.0,0.0,0.0,0.0,0.0,0.0,0.0,0.0,0.0,0.0,0.0,0.0,0.0,0.0,0.0,0.0,0.0,0.0,0.0,0.0,0.0,-3.5341,-3.5225,0.0,0.0,0.0,0.0,-3.8186,-3.8153,-3.8924,-4.0249,-3.8204,-3.6518,-3.5117,0.0,0.0,0.0,0.0,-3.2398,-3.2299,-3.1567,-3.1278,-3.1219,-3.091,-3.0791,-3.0732,-3.0417,-2.9687,-2.8812,-2.7946,-2.6716,-2.5402,0.0,0.0,0.0,0.0,-2.1115,0.0,-1.8999,-1.8852,-1.8836,-1.8243,-1.825,-1.8322,-1.808,-1.8,-1.7777,-1.7043,-1.7235,-1.7227,-1.6445,-1.6987,-1.7385,-1.6995,-1.7538,-1.8,-1.8,-1.8,-1.8,-1.8,-1.8,-1.8,-1.8,-1.8,-1.8,-1.8,-1.7697,-1.7335,-1.6895,-1.6486,-1.5922,-1.511,-1.4946,-1.5061,-1.5389,-1.5389,-1.5389,-1.5389,-1.5389,-1.5389,-1.5472,-1.6286,-1.6902,-1.727,-1.6861,-1.6648,-1.6484,-1.5068,-1.444,-1.4314,-1.373,-1.3899,-1.4398,0.0,0.0,0.0,0.0,0.0,0.0,0.0,0.0,0.0,0.0,0.0,0.0,0.0,-3.2983,-3.2273,-3.1275,-3.119,0.0,0.0,0.0,0.0,0.0,0.0,0.0,0.0,0.0,0.0,0.0,0.0,-3.5545,-3.6804,-3.7284,-3.7533,-3.7582,-3.7771,-3.7314,-3.6319,-3.5175,0.0,0.0,0.0,-3.2922,-3.2788,-3.1709,-3.1307,-3.1263,-3.091,-3.0791,-3.0762,-3.0417,-2.9808,-2.8961,-2.7603,-2.6557,-2.5573,-2.445,-2.37,-2.31,0.0,0.0,0.0,-1.9705,-1.8757,-1.8041,-1.811,-1.797,-1.7721,-1.7372,-1.7509,-1.7441,-1.6733,-1.6858,-1.6944,-1.6376,-1.6773,-1.715,-1.7261,-1.7715,-1.8,-1.8,-1.8,-1.8,-1.8,-1.8,-1.8,-1.8,-1.8,-1.7929,-1.7689,-1.7583,-1.7277,-1.6885,-1.6305,-1.5581,-1.4698,-1.466,-1.4801,-1.5075,-1.5075,-1.5349,-1.5839,-1.5555,-1.5714,-1.6245,-1.6286,-1.6245,-1.6121,-1.6252,-1.5865,-1.5186,-1.4608,-1.3886,-1.313,-1.3349,-1.3264,-1.3167,0.0,0.0,0.0,0.0,0.0,0.0,0.0,0.0,0.0,-3.4119,0.0,0.0,0.0,0.0,-3.2591,-3.1647,-3.1582,-3.1464,-3.1207,0.0,0.0,0.0,0.0,0.0,0.0,0.0,0.0,0.0,0.0,0.0,0.0,-3.6506,-3.6605,-3.6406,-3.7135,-3.7201,0.0,0.0,0.0,-3.5134,0.0,-3.3182,-3.3066,-3.1823,-3.138,-3.1322,-3.1058,-3.094,-3.0866,-3.0568,-3.0099,-2.9372,-2.7849,-2.6416,-2.5073,-2.3888,-2.3568,0.0,-2.2644,0.0,0.0,0.0,-1.8826,-1.7988,-1.7902,-1.7865,-1.767,-1.7184,-1.7295,-1.7274,-1.6527,-1.6559,-1.6636,-1.6379,-1.667,-1.7047,-1.7454,-1.7792,-1.8,-1.8,-1.8,-1.8,-1.8,-1.8,-1.8,-1.8,-1.8,-1.7829,-1.7531,-1.7355,-1.7055,-1.6559,-1.5781,-1.5157,-1.471,-1.4454,-1.4465,-1.4787,-1.4787,-1.5189,-1.5912,-1.5472,-1.5784,-1.6689,-1.6293,-1.6103,-1.6087,-1.6087,-1.5616,-1.4761,-1.4272,-1.3385,-1.2448,-1.2881,-1.2796,-1.2491,0.0,0.0,0.0,0.0,0.0,0.0,0.0,0.0,-3.4197,-3.4231,0.0,0.0,0.0,0.0,0.0,-3.2462,-3.2327,-3.2022,-3.1275,-3.1224,0.0,0.0,0.0,0.0,0.0,0.0,0.0,0.0,0.0,0.0,0.0,0.0,-3.6357,-3.7003,-3.629,-3.5959,-3.5943,0.0,-3.5976,-3.5795,0.0,-3.3182,-3.3093,-3.1923,-3.1511,-3.1467,-3.1351,-3.122,-3.1073,-3.0866,-3.0568,-3.0076,-2.8682,-2.6346,-2.3935,-2.2975,-2.2935,0.0,0.0,0.0,0.0,0.0,0.0,-1.8719,-1.7727,-1.7951,-1.8223,-1.7605,-1.7497,-1.7282,-1.6544,-1.6362,-1.6353,-1.6416,-1.6687,-1.7055,-1.7471,-1.78,-1.8,-1.8,-1.8,-1.8,-1.8,-1.8,-1.8,-1.8,-1.8,-1.7869,-1.7514,-1.7098,-1.6559,-1.5822,-1.5007,-1.4771,-1.5075,-1.4336,-1.4128,-1.4496,-1.4496,-1.4855,-1.5553,-1.5178,-1.5613,-1.6642,-1.6301,-1.6629,-1.7286,-1.6409,-1.5899,-1.5496,-1.3971,-1.2966,-1.2363,-1.2363,-1.2363,-1.2448,0.0,0.0,0.0,0.0,0.0,-3.5494,-3.4764,-3.4309,-3.4245,0.0,0.0,0.0,-3.4224,-3.3907,-3.3499,-3.3136,-3.3102,-3.278,-3.2039,-3.2005,-3.2429,-3.3372,-3.3406,-3.4074,-3.5487,0.0,0.0,0.0,0.0,0.0,0.0,-3.5197,-3.5313,0.0,-3.5297,-3.4916,-3.4435,-3.4982,0.0,-3.5084,-3.3745,-3.3182,-3.3093,-3.1923,-3.1511,-3.1467,-3.1351,-3.1292,-3.1205,-3.091,-3.0732,-3.0245,-2.7817,-2.5778,-2.404,-2.3123,-2.3099,0.0,-2.3363,0.0,0.0,0.0,0.0,0.0,-1.7931,-1.7634,-1.7491,-1.731,-1.7394,-1.7368,-1.685,-1.6764,-1.6841,-1.7154,-1.7021,-1.7141,-1.7792,-1.7931,-1.8,-1.8,-1.8,-1.8,-1.8,-1.8,-1.8,-1.8,-1.8,-1.7718,-1.7107,-1.6456,-1.6019,-1.5805,-1.5007,-1.4653,-1.4748,-1.4027,-1.3799,-1.4152,-1.4152,-1.4513,-1.5249,-1.5064,-1.5358,-1.596,-1.5841,-1.5763,-1.5717,-1.5491,-1.5012,-1.4329,-1.3167,-1.224,-1.1602,-1.1602,-1.1602,-1.1645,0.0,0.0,0.0,-3.7069,-3.6406,-3.586,-3.5413,-3.4797,-3.4529,0.0,0.0,0.0,-3.4645,-3.479,-3.4556,-3.3914,-3.3863,-3.3406,-3.2361,-3.2293,-3.2496,-3.2916,-3.3174,-3.384,-3.497,-3.5147,-3.5175,0.0,0.0,-3.4899,-3.4899,-3.4899,-3.4899,-3.4899,-3.4899,-3.4651,-3.4286,-3.4717,0.0,-3.4358,-3.3512,-3.3182,-3.3093,-3.1923,-3.1511,-3.1511,-3.1409,-3.1351,-3.1263,-3.1087,-3.0764,-3.0075,-2.8012,-2.6401,0.0,-2.4078,-2.3871,0.0,0.0,0.0,0.0,0.0,0.0,0.0,-1.8704,-1.8122,-1.7638,-1.7485,-1.7553,-1.748,-1.6987,-1.688,-1.7038,-1.7445,-1.7287,-1.7355,-1.7914,-1.8,-1.8,-1.8,-1.8,-1.8059,-1.8213,-1.8085,-1.8128,-1.8485,-1.8179,-1.7675,-1.6961,-1.6208,-1.5805,-1.5805,-1.5007,-1.4677,-1.4856,-1.3956,-1.3697,-1.403,-1.3889,-1.4276,-1.5118,-1.494,-1.5328,-1.6171,-1.5645,-1.5378,-1.5296,-1.4422,-1.3804,-1.3324,-1.2535,-1.1787,-1.1155,-1.1155,-1.1219,-1.1305,0.0,0.0,-3.8186,-3.8186,-3.7119,-3.6224,-3.6141,-3.5495,-3.5048,0.0,-3.5171,-3.5267,-3.5519,-3.6279,-3.6231,-3.4861,-3.4658,-3.4015,-3.2649,-3.2547,-3.2513,-3.2429,-3.3014,-3.364,-3.4275,-3.4843,-3.5105,-3.5065,-3.497,-3.4899,-3.4899,-3.4899,-3.4899,-3.4899,-3.4899,-3.4849,-3.4783,-3.4802,-3.4348,-3.3578,-3.3294,-3.3156,-3.2986,-3.1923,-3.1511,-3.1496,-3.1421,-3.1304,-3.1188,-3.1113,-3.0511,-2.9667,-2.8746,-2.7564,-2.6331,-2.5419,-2.488,0.0,0.0,0.0,0.0,0.0,-2.15,0.0,-1.9746,-1.8976,-1.8299,-1.7997,-1.7851,-1.76,-1.7076,-1.6978,-1.7107,-1.7505,-1.76,-1.7715,-1.8008,-1.8059,-1.8076,-1.8119,-1.8128,-1.8288,-1.8622,-1.8357,-1.8442,-1.917,-1.8468,-1.7675,-1.6961,-1.6251,-1.584,-1.5805,-1.507,-1.4848,-1.5204,-1.4137,-1.3775,-1.4093,-1.3739,-1.4108,-1.5086,-1.4748,-1.5312,-1.6501,-1.5564,-1.5215,-1.518,-1.3289,-1.2554,-1.2565,-1.2051,-1.1485,-1.095,-1.0977,-1.1122,-1.1273,0.0,-3.7673,-3.8186,-3.8186,-3.7954,-3.7582,-3.6986,-3.6257,-3.6009,-3.6605,-3.6746,-3.6895,-3.7066,-3.675,-3.6498,-3.6349,-3.5757,-3.5013,-3.4138,-3.4066,-3.3795,-3.322,-3.3875,-3.424,-3.4225,-3.49,-3.5152,-3.4947,-3.4923,-3.4899,-3.4899,0.0,0.0,-3.4899,-3.4899,-3.4568,-3.4015,-3.4202,-3.3527,-3.2389,-3.2975,-3.2949,-3.2492,-3.1768,-3.1511,-3.1436,-3.0883,-3.0673,-3.0571,-2.9909,-2.9491,-2.9122,-2.834,-2.7482,-2.6572,-2.5752,-2.5173,-2.4755,-2.4534,-2.4624,0.0,0.0,-2.1924,0.0,-2.0118,-1.9061,-1.8389,-1.8628,-1.807,-1.7556,-1.7609,-1.7605,-1.7696,-1.7869,-1.8168,-1.84,-1.8468,-1.8477,-1.8596,-1.8913,-1.8956,-1.8982,-1.9093,-1.8999,-1.9016,-1.9204,-1.8468,-1.7675,-1.6961,-1.6445,-1.6096,-1.5814,-1.5319,-1.5133,-1.5204,-1.4669,-1.4281,-1.4093,-1.4021,-1.4095,-1.4338,-1.4521,-1.4604,-1.4569,-1.4672,-1.4055,-1.2926,-1.2369,-1.2291,-1.2466,-1.1329,-1.0784,-1.0683,-1.0912,-1.1015,-1.1085,-3.6489,-3.7152,-3.7665,-3.7665,-3.7367,-3.7102,-3.7102,-3.6473,-3.6257,-3.7003,-3.7544,-3.7753,-3.7534,-3.7246,-3.702,-3.6806,-3.6062,-3.5256,-3.4435,-3.4401,-3.3891,-3.2749,-3.3693,-3.4024,-3.3556,-3.4562,-3.5018,-3.4899,-3.4899,-3.4899,-3.4899,-3.4899,-3.4763,-3.4521,-3.478,-3.4541,-3.3973,-3.4333,-3.3762,-3.2613,-3.2762,-3.2439,-3.1881,-3.159,-3.1286,-3.0943,-3.0627,-3.0313,-3.0016,-2.985,-2.9516,-2.9184,-2.9072,-2.8483,-2.7705,-2.7203,-2.6564,-2.5975,-2.5629,-2.5444,-2.5026,-2.3606,-2.2879,0.0,0.0,-2.0486,-1.9901,-2.0093,-1.9278,-1.8562,-1.8545,-1.8136,-1.7818,-1.789,-1.8115,-1.8374,-1.8562,-1.8759,-1.8956,-1.9196,-1.9213,-1.9247,-1.9436,-1.929,-1.9213,-1.9213,-1.8639,-1.7989,-1.7235,-1.6644,-1.6129,-1.5814,-1.5426,-1.5311,-1.5505,-1.4748,-1.4346,-1.4346,-1.3992,-1.3992,-1.4353,-1.4533,-1.4489,-1.4286,-1.4106,-1.3382,-1.2238,-1.1665,-1.1536,-1.1638,-1.0886,-1.0585,-1.0636,-1.0756,-1.0795,-1.0842,-3.5976,-3.6489,-3.6936,-3.7085,-3.6721,-3.6622,-3.7235,-3.682,-3.6655,-3.7235,-3.805,-3.8394,-3.7937,-3.7876,-3.7638,-3.7192,-3.6455,-3.5633,-3.4785,-3.4734,-3.4056,-3.2504,-3.3612,-3.3889,-3.3117,-3.4306,-3.4923,-3.4899,-3.4899,-3.4899,-3.4899,-3.4899,-3.4667,-3.4275,-3.4594,0.0,0.0,0.0,0.0,-3.294,-3.2319,-3.1787,-3.1411,-3.1351,-3.0957,-3.0477,-3.0223,-2.9729,-2.9265,-2.9652,-2.9419,-2.9065,-2.9609,-2.9202,-2.8495,-2.8412,-2.766,-2.6836,-2.645,-2.5872,-2.5158,-2.4426,-2.3779,-2.3201,0.0,0.0,0.0,-2.1516,-2.0521,-1.9658,-1.9484,-1.8703,-1.8065,-1.7993,-1.814,-1.8363,-1.8578,-1.8964,-1.9204,-1.9273,-1.9281,-1.9427,-1.9768,-1.9564,-1.9358,-1.929,-1.899,-1.8451,-1.762,-1.6927,-1.6353,-1.5917,-1.5539,-1.5461,-1.5805,-1.4892,-1.4525,-1.4713,-1.4036,-1.4065,-1.4713,-1.4489,-1.4374,-1.435,-1.36,-1.2806,-1.2003,-1.1149,-1.0812,-1.0836,-1.0599,-1.0529,-1.0534,-1.0545,-1.0525,-1.056,-3.5876,-3.6075,-3.634,-3.7003,-3.7582,-3.7996,-3.8079,-3.7987,-3.7996,-3.8079,-3.8735,-3.9229,-3.9278,-3.8703,-3.8337,-3.838,-3.7816,-3.7107,-3.6286,-3.6316,-3.5666,-3.4107,-3.4751,-3.4754,-3.39,-3.4665,-3.5018,-3.4899,-3.4899,-3.4899,-3.4899,-3.4899,-3.4875,-3.4787,-3.4374,0.0,0.0,0.0,-3.1987,-3.2215,-3.1134,-3.1026,-3.1417,-3.0821,-3.0567,-3.0357,-2.922,-2.8382,-2.7839,0.0,-2.7859,-2.7893,-2.8337,-2.808,-2.7607,-2.7812,-2.6929,-2.5825,-2.5597,-2.4965,-2.4303,-2.4089,-2.3833,-2.3587,-2.3431,0.0,-2.2055,-2.1889,0.0,-2.0056,-1.9996,0.0,0.0,-1.873,-1.9008,-1.911,-1.8652,-1.8964,-1.9299,-1.9597,-1.9631,-1.9785,-2.0189,-2.0189,-2.0035,-1.9657,-1.9597,-1.9085,-1.7991,-1.7569,-1.7013,-1.6257,-1.5897,-1.5761,-1.5805,-1.5655,-1.5434,-1.5133,-1.4669,-1.4705,-1.5098,-1.4078,-1.3608,-1.3564,-1.2776,-1.1966,-1.1223,-1.0925,-1.0925,-1.0999,-1.0472,-1.0262,-1.0252,-1.0329,-1.0349,-1.0363,-3.5297,-3.5363,-3.5462,-3.5777,-3.6075,-3.6572,-3.7433,-3.8295,-3.8825,-3.8825,-3.9116,-3.9352,-3.9501,-3.8835,-3.8437,-3.8581,-3.7986,-3.744,-3.7105,-3.6614,-3.6071,-3.5419,-3.5185,-3.4908,-3.4522,-3.4821,-3.4947,-3.4899,-3.4899,-3.4899,0.0,0.0,-3.4715,-3.4423,-3.4201,0.0,-3.3869,0.0,-3.2159,-3.1726,-3.1634,-3.1114,-3.0417,-3.0477,-3.0043,-2.928,-2.8338,-2.7839,-2.766,0.0,-2.7929,0.0,-2.8275,-2.8211,-2.7947,-2.8061,-2.7541,-2.6891,-2.6723,-2.5826,-2.4969,-2.5198,-2.4788,-2.4396,-2.4672,-2.4022,-2.3351,-2.3156,0.0,0.0,0.0,0.0,0.0,0.0,-1.9612,-1.9576,-1.9232,-1.8933,-1.8987,-1.9597,-1.9547,-1.9564,-1.9941,-2.0163,-2.0223,-2.0069,-1.9819,-1.929,-1.8408,-1.7997,-1.7355,-1.637,-1.6235,-1.6055,-1.5805,-1.5576,-1.539,-1.5204,-1.4776,-1.4561,-1.4482,-1.4006,-1.3426,-1.2776,-1.2445,-1.1855,-1.1074,-1.0999,-1.1037,-1.1074,-1.07,-1.0481,-1.038,-1.0264,-1.0155,-1.011,-3.4899,0.0,0.0,-3.4899,-3.5065,-3.5694,-3.7185,-3.8477,-3.9299,-3.9299,-3.9299,-3.9325,-3.9432,-3.8966,-3.8702,-3.8779,-3.8321,-3.7945,-3.7753,-3.7136,-3.6703,-3.6511,-3.5667,-3.5197,-3.5197,-3.4998,-3.4899,-3.4899,-3.4899,-3.4899,0.0,0.0,-3.4691,-3.4325,-3.4176,-3.3841,-3.3407,0.0,-3.2309,-3.169,-3.1818,-3.0967,-2.9636,-2.9879,-2.9295,-2.8248,-2.7779,-2.76,-2.7675,-2.8143,-2.8004,0.0,-2.8158,-2.8215,-2.8107,-2.8055,-2.775,-2.74,-2.7286,-2.6301,-2.5494,-2.6165,-2.5793,-2.5352,-2.5656,-2.5206,-2.4621,-2.4209,-2.2889,0.0,0.0,0.0,0.0,0.0,0.0,-2.0265,-1.9737,-1.9134,-1.8906,-1.9359,-1.9273,-1.9281,-1.9555,-1.9829,-2.0026,-2.0129,-1.9853,-1.9453,-1.8785,-1.8391,-1.7672,-1.6579,-1.6441,-1.621,-1.5805,-1.5505,-1.5355,-1.5355,-1.4963,-1.4553,-1.4142,-1.3825,-1.3178,-1.2305,-1.2305,-1.1855,-1.1111,-1.1335,-1.126,-1.0999,-1.0812,-1.0588,-1.04,-1.0255,-1.0067,-0.9943,-3.4899,-3.4899,0.0,-3.4899,-3.5495,-3.6456,-3.7947,-3.8808,-3.9299,-3.9299,-3.9299,-3.9299,-3.9299,-3.9282,-3.9265,-3.9265,-3.9382,-3.9118,-3.8428,-3.8344,-3.8002,-3.7295,-3.6447,-3.5959,-3.5959,-3.5263,-3.4899,-3.4899,-3.4899,-3.4899,0.0,0.0,0.0,0.0,-3.4325,-3.4101,-3.3951,-3.2207,-3.1809,-3.225,-3.1056,-3.0176,-2.9547,0.0,-2.8218,-2.763,-2.76,0.0,0.0,-2.7615,-2.7615,0.0,0.0,0.0,0.0,0.0,0.0,-2.6515,0.0,0.0,0.0,-2.6443,0.0,-2.6383,-2.6123,-2.5957,-2.5573,-2.4677,-2.3929,-2.3512,-2.3837,0.0,0.0,0.0,0.0,0.0,0.0,-1.9708,-1.9328,-1.8695,-1.899,-1.9222,-1.9196,-1.9247,-1.9367,-1.9691,-1.9708,-1.9529,-1.9222,-1.8785,-1.8057,-1.6935,-1.6579,-1.621,-1.5805,-1.5797,-1.577,-1.577,-1.539,-1.4974,-1.453,-1.3433,-1.2709,-1.2305,-1.2305,-1.1855,-1.1149,-1.1929,-1.1706,-1.0775,-1.0588,-1.0406,-1.0218,-1.0218,-1.0067,-0.9922,0.0,0.0,0.0,-3.5628,-3.5827,-3.6506,-3.7954,-3.8825,-3.9299,-3.9299,-3.9299,-3.9299,-3.9299,-3.9299,-3.9299,-3.9299,-3.9325,-3.9305,-3.9135,-3.8591,-3.8399,-3.8752,-3.746,-3.6738,-3.6738,-3.6009,-3.5396,-3.4899,-3.4899,-3.4899,0.0,0.0,0.0,0.0,0.0,-3.3866,0.0,0.0,0.0,0.0,0.0,-3.0013,-3.0073,0.0,-2.8173,-2.76,-2.76,-2.76,0.0,-2.76,-2.76,-2.76,-2.76,-2.76,-2.76,-2.7549,-2.7321,-2.7089,0.0,0.0,-2.6212,-2.7353,0.0,0.0,0.0,-2.6276,-2.5532,-2.5613,-2.4988,-2.4457,-2.4517,0.0,0.0,0.0,0.0,0.0,0.0,-2.0518,-1.9338,-1.8568,-1.8911,-1.9119,-1.8811,-1.9025,-1.9333,-1.9665,-1.9513,-1.9307,-1.9222,-1.8802,-1.8186,-1.7304,-1.6918,-1.655,-1.621,-1.5925,-1.5541,-1.5018,-1.4867,-1.4214,-1.3062,-1.2666,-1.215,-1.1521,-1.1521,-1.1335,-1.1111,-1.1409,-1.1298,-1.0962,-1.0775,-1.0588,-1.0368,-1.0105,-0.9954,-0.9884,-3.5346,-3.5893,-3.6307,-3.6059,-3.6439,-3.7102,-3.8037,-3.8825,-3.9299,-3.9299,-3.9299,-3.9299,-3.9299,-3.9299,-3.9299,-3.9299,-3.9299,-3.9325,-3.9422,-3.8894,-3.8844,-3.9388,-3.8181,-3.75,-3.75,-3.6771,-3.6025,-3.5297,-3.5297,-3.5148,0.0,0.0,0.0,0.0,0.0,-3.3926,-3.3198,-3.2841,-3.1983,0.0,0.0,-3.0238,0.0,0.0,-2.8558,-2.7929,0.0,-2.76,-2.76,-2.76,-2.76,-2.76,-2.76,-2.76,-2.76,-2.76,-2.7524,-2.7463,-2.7463,-2.6913,0.0,-2.7612,-2.7019,0.0,-2.7271,0.0,-2.6196,-2.6334,-2.6037,-2.5634,-2.5286,0.0,0.0,0.0,0.0,0.0,0.0,-2.1048,-1.9559,-1.8904,-1.8789,0.0,0.0,-1.8622,-1.8982,-1.9495,-1.9307,-1.9213,0.0,-1.893,-1.8432,-1.754,-1.7107,-1.673,-1.6381,-1.5985,-1.539,-1.4601,-1.4601,-1.3774,-1.2305,-1.2305,-1.1855,-1.1111,-1.1409,-1.1372,-1.1111,-1.1409,-1.1335,-1.0962,-1.0775,-1.0556,-1.0368,-1.0105,-0.9954,-0.9884,-3.6191,-3.663,-3.6902,-3.6199,-3.7266,-3.8261,-3.8261,-3.8841,-3.9299,-3.9299,-3.9299,-3.9299,-3.9299,-3.9299,-3.9299,-3.9299,-3.9299,-3.9299,-3.9299,-3.9299,-3.9299,-3.9299,-3.8626,-3.8245,-3.8186,-3.7516,-3.6787,-3.6009,-3.6009,-3.5628,0.0,0.0,0.0,0.0,-3.4899,0.0,-3.3182,-3.3182,-3.2544,-3.1511,-3.1511,-3.0761,-2.9651,-2.9621,-2.9175,-2.8502,-2.7839,-2.76,-2.76,-2.76,-2.76,-2.76,-2.76,-2.76,-2.76,-2.76,-2.757,-2.754,-2.754,-2.6966,-2.65,-2.7149,-2.7155,0.0,0.0,0.0,-2.7379,-2.6761,-2.687,-2.6858,-2.6153,0.0,0.0,0.0,0.0,0.0,0.0,0.0,-2.009,-1.9678,0.0,0.0,0.0,-1.8,-1.8316,-1.9162,-1.9196,-1.9196,0.0,-1.9196,-1.8681,-1.7574,-1.7124,-1.6701,-1.6325,-1.5949,-1.5355,-1.4565,-1.4494,-1.3702,-1.2305,-1.2261,-1.1855,-1.1186,-1.1929,-1.1818,-1.1149,-1.1929,-1.1669,-1.0775,-1.0588,-1.0406,-1.0218,-1.018,-1.0067,-0.9884,-3.6854,-3.7006,-3.7151,-3.7058,-3.8128,-3.9033,-3.9033,-3.9183,-3.9299,-3.9299,-3.9299,-3.9299,-3.9299,-3.9299,-3.9299,-3.9299,-3.9299,-3.9299,-3.9299,-3.9299,-3.9299,-3.9299,-3.9133,-3.8758,-3.8202,-3.803,-3.7301,-3.6009,-3.6009,-3.5628,-3.4899,0.0,0.0,0.0,0.0,-3.4267,-3.3182,-3.3182,-3.2544,-3.1511,-3.1511,-3.1002,-3.0223,0.0,-2.9175,-2.8502,-2.7839,-2.76,-2.76,-2.76,-2.76,-2.76,-2.76,-2.76,-2.76,-2.76,-2.7255,-2.6866,-2.6866,-2.6338,-2.5842,-2.6031,-2.594,-2.5825,0.0,0.0,0.0,0.0,0.0,0.0,0.0,0.0,0.0,0.0,0.0,0.0,0.0,-2.1962,-2.0817,-2.0129,0.0,0.0,-1.804,-1.8,-1.8316,-1.9162,-1.8905,-1.8862,-1.9204,-1.8938,-1.8477,-1.7912,-1.7222,-1.6829,-1.6773,-1.5518,-1.4545,-1.3781,-1.3164,-1.2696,-1.2268,-1.1669,-1.1632,-1.1966,-1.1595,-1.1298,-1.1111,-1.1335,-1.126,-1.0999,-1.0812,-1.0519,-1.018,-1.003,-0.996,-0.9884,-3.7209,-3.6956,-3.6937,-3.7331,-3.821,-3.8871,-3.8871,-3.9104,-3.9299,-3.9299,-3.9299,-3.9299,-3.9299,-3.9299,-3.9299,-3.9299,-3.9299,-3.9299,-3.9299,-3.9299,-3.9299,-3.9299,-3.9299,-3.9116,-3.8692,-3.8676,-3.8112,-3.697,-3.6655,-3.6108,-3.5363,0.0,0.0,0.0,0.0,-3.4068,-3.3172,-3.268,-3.2076,-3.1511,-3.1511,-3.1092,0.0,-2.9846,-2.9175,-2.8502,-2.7839,-2.76,-2.76,-2.76,-2.76,-2.76,-2.76,-2.76,-2.76,-2.76,-2.7136,-2.6587,-2.6587,-2.5899,-2.5158,-2.5158,-2.5111,-2.5125,-2.5422,-2.5306,-2.5167,0.0,-2.5294,-2.5354,0.0,0.0,0.0,0.0,0.0,0.0,-2.3911,-2.2574,-2.1431,-2.0817,-1.9608,0.0,-1.8241,-1.8152,-1.8402,-1.8913,-1.887,-1.8981,0.0,-1.9007,-1.8665,-1.8288,-1.703,-1.64,-1.64,-1.4885,-1.3814,-1.3222,-1.2604,-1.2195,-1.2038,-1.1391,-1.1335,-1.1744,-1.1298,-1.1111,-1.1111,-1.1111,-1.1111,-1.1074,-1.0775,-1.0481,-1.018,-0.996,-0.9884,-0.9884,-3.7323,-3.6756,-3.655,-3.7037,-3.7682,-3.8119,-3.8067,-3.8745,-3.9299,-3.9299,-3.9299,-3.9299,-3.9299,-3.9299,-3.9299,-3.9299,-3.9299,-3.9299,-3.9299,-3.9299,-3.9299,-3.9299,-3.9299,-3.9299,-3.9299,-3.9299,-3.895,-3.8186,-3.7466,-3.6721,-3.5976,0.0,0.0,0.0,0.0,0.0,0.0,-3.1981,-3.1555,-3.163,-3.154,-3.1092,-3.0447,-2.9909,-2.925,-2.8517,-2.7944,-2.7675,-2.76,-2.76,-2.76,-2.76,-2.76,-2.76,-2.76,-2.76,-2.7136,-2.6572,-2.6482,-2.5555,-2.459,-2.4485,-2.447,-2.4619,-2.5211,-2.547,-2.5475,-2.5016,-2.5127,-2.5009,0.0,0.0,0.0,0.0,0.0,-2.4874,-2.4541,-2.3172,-2.2027,0.0,0.0,0.0,-1.8514,-1.8434,-1.847,-1.8595,-1.8905,0.0,0.0,0.0,-1.8922,-1.8528,-1.6688,-1.5718,-1.5718,-1.4148,-1.3215,-1.2954,-1.2356,-1.2052,-1.1911,-1.1334,-1.1112,-1.126,-1.1149,-1.1111,-1.1111,-1.1111,-1.1111,-1.1074,-1.0663,-1.0406,-1.0218,-0.9992,-0.9884,-0.9884,-3.7281,-3.7046,-3.6669,-3.5731,-3.6545,-3.7188,-3.68,-3.8197,-3.9299,-3.9299,-3.9299,-3.9299,-3.9299,-3.9299,-3.9299,-3.9299,-3.9299,-3.9299,-3.9299,-3.9299,-3.9299,-3.9299,-3.9299,-3.9299,-3.9299,-3.9299,-3.895,-3.8186,-3.7466,-3.6721,-3.5976,0.0,0.0,0.0,0.0,0.0,-3.328,-3.2038,0.0,-3.2273,-3.172,-3.1092,-3.0492,-3.0387,-2.9624,-2.8577,-2.8472,-2.8079,-2.76,-2.76,-2.76,-2.76,-2.76,-2.76,-2.76,-2.76,-2.7136,-2.6467,-2.5929,-2.5187,-2.447,-2.3924,-2.3789,-2.3804,-2.3924,-2.3198,-2.2458,-2.2373,-2.1962,-2.1847,-2.2643,0.0,0.0,0.0,0.0,-2.4525,-2.4375,-2.3688,-2.2888,0.0,-2.1058,-2.0079,-1.8993,-1.8594,-1.847,-1.8595,-1.8648,-1.8691,-1.8691,0.0,-1.8519,0.0,-1.6526,-1.5718,0.0,0.0,-1.2821,-1.3375,-1.1735,-1.1742,-1.3114,-1.1512,-1.1235,-1.204,-1.1409,-1.1111,-1.1111,-1.1111,-1.1111,-1.1074,-1.0663,-1.0481,-1.04,-1.003,-0.9884,-0.9884,-3.7397,-3.7008,-3.6697,-3.641,-3.6559,-3.6781,-3.689,-3.7725,-3.8439,-3.8745,-3.9077,-3.9299,-3.9299,-3.9299,-3.9299,-3.9299,-3.9299,-3.9299,-3.9299,-3.9299,-3.9299,-3.9299,-3.9299,-3.9299,-3.9299,-3.9299,-3.9133,-3.8758,-3.803,-3.75,-3.7093,-3.5662,0.0,-3.4593,0.0,-3.3426,0.0,0.0,0.0,-3.2452,-3.1765,-3.1316,-3.0972,-3.0642,-2.9924,-2.9071,-2.8727,-2.8184,-2.76,-2.76,-2.76,-2.76,-2.76,-2.76,-2.76,-2.76,-2.7136,-2.6512,-2.6213,-2.5367,-2.453,-2.4201,-2.3864,-2.353,-2.329,-2.2725,-2.2077,-2.1558,-2.1057,-2.0991,-2.1826,-2.3195,0.0,0.0,0.0,-2.4502,-2.4046,-2.3571,-2.298,-2.228,-2.1364,-2.0382,-1.9262,-1.8882,-1.8633,-1.8492,-1.865,-1.8713,-1.8629,0.0,-1.8502,0.0,0.0,0.0,-1.4926,0.0,-1.2096,-1.213,-1.1035,-1.1071,-1.2137,-1.1146,-1.0966,-1.1467,-1.1199,-1.1111,-1.1111,-1.1111,-1.1037,-1.0925,-1.0625,-1.0443,-1.0331,-0.9992,-0.9884,-0.9938,-3.7683,-3.7191,-3.6937,-3.7097,-3.6778,-3.6636,-3.6945,-3.7157,-3.7557,-3.821,-3.8772,-3.9148,-3.9272,-3.9175,-3.9148,-3.9299,-3.9175,-3.9148,-3.9299,-3.9175,-3.9148,-3.9299,-3.9148,-3.9148,-3.9299,-3.9299,-3.9299,-3.9299,-3.8411,-3.7985,-3.7953,-3.6015,-3.5069,0.0,0.0,0.0,0.0,0.0,-3.2363,-3.2452,-3.1765,-3.1511,-3.1451,-3.0898,-3.0328,-2.9726,-2.919,-2.8487,-2.7809,-2.7809,-2.772,-2.76,-2.76,-2.76,-2.76,-2.76,-2.7225,-2.6767,-2.6632,-2.5734,-2.4784,-2.4649,-2.4096,-2.3486,-2.3001,-2.2694,-2.2267,-2.1345,-2.0845,-2.0784,-2.139,-2.2343,0.0,0.0,0.0,0.0,-2.3986,-2.3593,-2.3084,-2.251,-2.1669,-2.0682,-1.946,0.0,-1.8913,-1.8554,-1.8682,-1.8724,-1.8551,-1.8509,-1.8468,-1.8468,0.0,-1.5215,-1.4433,0.0,-1.1606,-1.1235,-1.0538,-1.0498,-1.1022,-1.0756,-1.0635,-1.0695,-1.0997,-1.1111,-1.1111,-1.1111,-1.0999,-1.085,-1.0594,-1.04,-1.0218,-0.9992,-0.9884,-0.9965,-3.8141,-3.8076,-3.7674,-3.651,-3.662,-3.658,-3.5791,-3.6408,-3.7265,-3.8189,-3.8351,-3.8634,-3.9245,-3.8745,-3.8645,-3.9245,-3.8745,-3.8645,-3.9272,-3.8745,-3.8645,-3.9272,-3.8717,-3.8689,-3.9299,-3.9299,-3.9299,-3.9299,-3.7959,-3.7285,0.0,-3.5848,-3.4908,0.0,0.0,0.0,0.0,-3.2108,-3.1944,-3.2452,-3.1765,-3.1511,-3.1496,-3.1436,-3.0972,-3.0417,-3.0342,-2.9535,-2.8502,-2.8502,-2.8109,-2.76,-2.76,-2.76,-2.76,-2.76,-2.7555,-2.7375,-2.6776,-2.6063,-2.5352,-2.4754,-2.4096,-2.3486,-2.3001,-2.242,-2.1799,-2.1151,-2.0421,-2.0216,-2.1307,-2.1204,-2.1562,0.0,0.0,0.0,0.0,0.0,-2.3921,-2.2722,-2.2328,-2.1469,-1.9754,-1.939,-1.9192,0.0,-1.8638,-1.8455,-1.8414,-1.8172,-1.8051,-1.8051,-1.6245,-1.5218,-1.5112,-1.2621,-1.1696,-1.2337,-1.0701,-1.0478,-1.1438,-1.0679,-1.046,-1.0695,-1.0997,-1.1111,-1.1111,-1.1111,-1.1074,-1.1037,-1.0663,-1.0475,-1.0438,-1.003,-0.9884,-0.9948,-3.8949,-3.8513,-3.7961,-3.7491,-3.6768,-3.6182,-3.5815,-3.5725,-3.5991,-3.6753,-3.7279,-3.7677,-3.7953,-3.7867,-3.7867,-3.8141,-3.7924,-3.7851,-3.8141,-3.7924,-3.7895,-3.8141,-3.7895,-3.7895,-3.8141,-3.8169,-3.8169,-3.8169,-3.7594,-3.7336,-3.7291,0.0,0.0,0.0,0.0,-3.2662,-3.2871,-3.2318,-3.2243,-3.2452,-3.1765,-3.1511,-3.1511,-3.1511,-3.1077,-3.0507,-3.0507,-2.9939,-2.919,-2.919,-2.8498,-2.76,-2.76,-2.76,-2.76,-2.76,-2.76,-2.754,-2.727,-2.6692,-2.5962,-2.5023,-2.429,-2.3445,-2.2166,-2.168,-2.1296,-2.066,-2.0195,-2.0039,-2.0415,-2.0853,-2.123,-2.1359,0.0,0.0,0.0,0.0,0.0,-2.3545,-2.2888,-2.1847,-2.03,-1.9751,-1.9298,0.0,-1.8788,-1.8634,-1.8393,-1.8322,-1.8161,-1.8,0.0,-1.5422,-1.4358,-1.2653,-1.1419,-1.0699,-1.0009,-0.9884,-1.0291,-1.0284,-1.0521,-1.096,-1.1063,-1.1111,-1.1074,-1.0962,-1.085,-1.07,-1.055,-1.0368,-1.0143,-1.0105,-0.9997,-0.997,-3.9388,-3.8856,-3.8362,-3.8204,-3.703,-3.6045,-3.5922,-3.5247,-3.4953,-3.5494,-3.6039,-3.6538,-3.6965,-3.7041,-3.7101,-3.7205,-3.7131,-3.7131,-3.731,-3.7191,-3.7191,-3.7399,-3.7221,-3.7191,-3.7399,-3.7399,-3.7399,-3.7399,-3.7191,0.0,0.0,0.0,0.0,0.0,-3.2886,-3.2691,-3.2497,-3.2273,-3.2198,-3.2153,-3.169,-3.1511,-3.1511,-3.1511,-3.1212,-3.0806,-3.0806,-3.0387,-2.9849,-2.9849,-2.9127,-2.8154,-2.7959,-2.7764,-2.76,-2.76,-2.7458,-2.7331,-2.7331,-2.6716,-2.5868,-2.4881,-2.4134,-2.3212,-2.1577,-2.1199,-2.0993,-2.0296,-2.0029,-1.9926,-1.9837,-2.0451,-2.084,-2.0376,0.0,0.0,0.0,-2.3506,0.0,-2.3777,-2.3073,-2.2014,-2.0458,-1.9878,-1.9397,0.0,0.0,-1.8797,-1.8594,-1.8329,0.0,0.0,0.0,0.0,-1.3795,-1.2539,-1.1223,-0.9798,-0.9606,-0.9516,-0.9534,-1.0057,-1.0539,-1.1003,-1.1081,-1.1111,-1.1074,-1.0962,-1.0775,-1.0588,-1.0513,-1.0293,-0.9997,-1.0067,-1.003,-0.9954,-3.9388,-3.9213,-3.8882,-3.8207,-3.7273,-3.645,-3.5962,-3.5044,-3.4481,-3.4698,-3.4731,-3.5267,-3.6661,-3.6461,-3.6384,-3.6783,-3.643,-3.6461,-3.7055,-3.6662,-3.6723,0.0,-3.6784,-3.6723,-3.7399,-3.7399,-3.7399,-3.7399,0.0,0.0,-3.6399,0.0,-3.5115,-3.4459,-3.3769,-3.3125,-3.2452,-3.1795,-3.1511,-3.1511,-3.1511,-3.1511,-3.1511,-3.1511,-3.1496,-3.1496,-3.1496,-3.1047,-3.0492,-3.0492,-3.0073,-2.9472,-2.8801,-2.8113,-2.76,-2.76,-2.7178,-2.6709,-2.6709,-2.5826,-2.4783,-2.4165,-2.3508,-2.2693,-2.148,-2.1199,-2.0968,-2.0182,-1.9901,-1.9798,-1.9798,-1.9811,-2.0175,-2.1292,0.0,0.0,0.0,-2.398,0.0,-2.3058,-2.2787,-2.1876,-2.0079,-1.9715,-1.9508,0.0,0.0,0.0,0.0,0.0,0.0,-1.7229,-1.592,0.0,-1.3716,-1.2243,-1.1156,-1.0485,-0.983,-0.9516,-0.9534,-1.0057,-1.0436,-1.0701,-1.0997,-1.1111,-1.1111,-1.1111,-1.0962,-1.0775,-1.0588,-1.0368,-1.018,-0.9992,-0.9922,-0.9954,-3.9017,-3.8848,-3.8495,-3.7863,-3.6988,-3.6204,-3.5618,-3.4889,-3.4414,-3.4481,-3.4597,-3.4817,-3.5139,-3.5267,-3.5365,0.0,-3.5397,-3.5462,0.0,-3.5527,-3.5606,-3.6085,-3.5767,-3.575,-3.6085,-3.6116,-3.6116,-3.6116,0.0,0.0,0.0,-3.4641,-3.4023,-3.3769,-3.2647,-3.2019,-3.1795,-3.1585,-3.1511,-3.1511,-3.1511,-3.1511,-3.1511,-3.1511,-3.1511,-3.1511,-3.1409,-3.1231,-3.1023,-3.0952,-3.0479,-2.9902,-2.9709,-2.9015,-2.8263,-2.8263,-2.7453,-2.6563,-2.6563,-2.5926,-2.4997,-2.3987,-2.3295,-2.2532,-2.1277,-2.0605,-2.0169,-1.9914,-1.9837,-1.9798,-1.9798,-2.0151,-2.0528,-2.0893,-2.1387,0.0,-2.3482,0.0,-2.3885,-2.3741,-2.3243,-2.227,-2.0752,-2.012,0.0,0.0,0.0,0.0,0.0,0.0,0.0,0.0,-1.547,0.0,-1.3024,-1.1546,-1.0478,-0.983,-0.9612,-0.9703,-1.0057,-1.04,-1.0701,-1.0991,-1.1075,-1.1111,-1.1074,-1.0962,-1.085,-1.0775,-1.0738,-1.0513,-1.0218,-1.0293,-1.0143,-0.9954,-3.8943,-3.8686,-3.8399,-3.7989,-3.704,-3.617,-3.5778,-3.498,-3.4414,-3.4414,-3.4515,-3.4549,-3.4414,-3.4582,0.0,-3.4702,-3.4769,-3.4883,-3.4983,-3.4935,-3.5001,-3.5261,-3.5148,-3.5148,-3.5261,-3.5359,0.0,-3.5392,-3.5472,-3.5504,-3.5489,-3.4382,-3.3724,-3.3455,-3.2632,-3.1974,-3.1525,-3.1765,-3.1735,-3.1511,-3.1511,-3.1511,-3.1511,-3.1511,-3.1467,-3.1409,-3.1322,-3.1263,-3.1205,-3.1132,-3.0807,-3.0483,-3.0483,-2.9675,-2.8649,-2.8191,-2.7295,-2.6352,-2.588,-2.5259,-2.4477,-2.3553,-2.2877,-2.2139,-2.0845,-2.0179,-1.9798,-1.9798,-1.9798,-1.9798,-1.9798,-2.0302,-2.0691,-2.0691,-2.1494,-2.2414,-2.3273,-2.377,-2.3881,-2.3491,-2.3002,-2.2124,0.0,-1.982,-1.9372,0.0,0.0,0.0,0.0,0.0,-1.7308,-1.6675,-1.5005,-1.3488,-1.2276,-1.1074,-1.0174,-0.9516,-0.9618,-0.9883,-1.0304,-1.0563,-1.0773,-1.0972,-1.1069,-1.1111,-1.1074,-1.0962,-1.085,-1.0812,-1.0812,-1.0594,-1.0331,-1.0368,-1.0218,-1.003,-3.9031,-3.8738,-3.8478,-3.8478,-3.7266,-3.6301,-3.6301,-3.5227,-3.4414,-3.4414,-3.4414,-3.4414,-3.4414,-3.4414,-3.4414,-3.4414,0.0,0.0,-3.4698,-3.4817,-3.4868,-3.4902,-3.4902,-3.4902,-3.4902,-3.5082,-3.518,-3.518,-3.5392,-3.5504,-3.5489,-3.4801,-3.4113,-3.3499,-3.3469,-3.2736,-3.1526,-3.2169,-3.2079,-3.1467,-3.1467,-3.1467,-3.1467,-3.1467,-3.138,-3.1278,-3.1263,-3.1176,-3.1087,-3.1087,-3.1087,-3.1087,-3.1087,-3.0147,-2.8823,-2.7669,-2.6849,-2.604,-2.4867,-2.407,-2.3441,-2.2946,-2.2344,-2.1548,-2.032,-1.9926,-1.9798,-1.9798,-1.9836,-1.9861,-1.9861,-2.039,-2.0805,-2.0805,-2.1606,-2.2513,-2.3334,-2.375,-2.3548,-2.2421,0.0,0.0,-1.976,-1.9096,-1.8976,0.0,0.0,0.0,0.0,0.0,-1.7153,-1.5906,-1.4547,-1.3097,-1.1553,-1.08,-1.0117,-0.9546,-0.9805,-1.0069,-1.0328,-1.0593,-1.0749,-1.0725,-1.1003,-1.1111,-1.1111,-1.1111,-1.0999,-1.0812,-1.0812,-1.07,-1.0513,-1.0293,-1.0229,-1.0241,0.0,0.0,-3.8277,-3.8277,-3.7194,-3.6301,-3.6301,-3.5227,-3.4414,-3.4414,-3.4414,-3.4414,-3.4414,-3.4414,-3.4414,-3.4414,-3.4448,-3.4549,-3.4698,-3.4582,-3.4635,-3.4902,-3.4817,-3.4783,-3.4902,-3.4935,-3.5034,-3.518,-3.5392,-3.5504,-3.5489,-3.4658,-3.3925,-3.333,-3.3206,-3.2404,-3.1235,-3.1856,-3.1752,-3.119,-3.119,-3.119,-3.119,-3.119,-3.1161,-3.1132,-3.0969,-3.0881,-3.0866,-3.0762,-3.0732,-3.0732,-3.0732,-3.0151,-2.9334,-2.8751,-2.7086,-2.5332,-2.5051,-2.4103,-2.3203,-2.3064,-2.2324,-2.1415,-2.0707,-2.0151,-1.9798,-1.9798,-2.0189,-2.049,-2.049,-2.1255,-2.192,-2.192,-2.2844,-2.3642,-2.398,-2.364,-2.3118,0.0,-2.1482,-2.0529,-1.947,-1.9378,-1.9268,0.0,0.0,-1.8415,-1.7935,-1.7423,-1.699,-1.6723,-1.4398,-1.2755,-1.1961,-1.0495,-0.9774,-0.9817,-1.0075,-1.034,-1.0599,-1.0863,-1.1021,-1.1021,-1.1087,-1.1111,-1.1111,-1.1111,-1.1074,-1.1037,-1.1037,-1.0925,-1.07,-1.0513,-1.0454,-1.0506,-3.8366,-3.824,-3.8202,-3.8202,-3.7404,-3.6664,-3.6359,-3.5473,-3.4748,-3.4443,-3.4414,-3.4414,-3.4414,-3.4414,-3.4414,-3.4414,-3.4414,-3.4448,-3.4563,-3.4448,-3.4481,-3.4668,-3.4616,-3.4582,-3.4668,-3.4769,-3.4883,-3.5082,-3.518,-3.5213,-3.5198,-3.4466,-3.3782,-3.3175,-3.3035,-3.2296,-3.1132,-3.1751,-3.1648,-3.1117,-3.1117,-3.1117,-3.1117,-3.1117,-3.1043,-3.0955,-3.0821,-3.0762,-3.0702,-3.0612,-3.0598,-3.0538,-3.0251,-2.967,-2.8993,-2.8459,-2.7131,-2.5638,-2.4835,-2.406,-2.3371,-2.2857,-2.2309,-2.1656,-2.088,-2.0453,-2.02,-2.02,-2.0478,-2.0767,-2.1018,-2.1732,-2.2397,-2.2619,-2.3427,-2.4002,-2.4065,-2.3544,-2.2776,-2.1628,-2.0723,-1.9853,-1.9066,-1.8771,-1.8564,-1.8444,-1.8191,0.0,-1.7248,-1.6853,-1.6378,-1.5878,-1.383,-1.237,-1.1521,-1.0276,-0.9823,-1.0088,-1.0346,-1.0611,-1.09,-1.1045,-1.1111,-1.1111,-1.1111,-1.1111,-1.1111,-1.1111,-1.1111,-1.1111,-1.1111,-1.1037,-1.0925,-1.07,-1.0684,-1.0757,-3.8441,-3.8315,-3.8202,-3.8202,-3.7709,-3.7085,-3.6402,-3.5813,-3.5174,-3.4501,-3.4414,-3.4414,-3.4414,-3.4414,-3.4414,-3.4414,-3.4414,-3.4414,-3.4414,-3.4414,-3.4414,-3.4414,-3.4414,-3.4414,-3.4414,-3.4597,-3.4765,-3.4868,-3.4902,-3.4902,-3.4887,-3.4239,-3.3591,-3.2987,-3.2956,-3.2235,-3.1058,-3.1676,-3.1588,-3.1014,-3.1014,-3.1014,-3.1014,-3.1014,-3.0925,-3.0762,-3.0762,-3.0702,-3.0598,-3.0598,-3.0538,-3.0357,-2.9777,-2.903,-2.8247,-2.767,-2.7111,-2.6291,-2.4596,-2.4004,-2.364,-2.2644,-2.2372,-2.2071,-2.1157,-2.088,-2.0817,-2.0817,-2.088,-2.1081,-2.1531,-2.2071,-2.2594,-2.3115,-2.3542,-2.3813,-2.3871,0.0,-2.2185,-2.0684,-1.9899,-1.9225,-1.8482,-1.7873,-1.7624,-1.7818,-1.7216,-1.6824,-1.6725,-1.6349,-1.5569,-1.4344,-1.3267,-1.2069,-1.0777,-1.0244,-1.0094,-1.0358,-1.0575,-1.0858,-1.1111,-1.1111,-1.1111,-1.1111,-1.1111,-1.1111,-1.1111,-1.1111,-1.1111,-1.1111,-1.1111,-1.1111,-1.108,-1.0935,-1.0894,-1.0965,-3.824,-3.8202,-3.8202,-3.8202,-3.7709,-3.7085,-3.6402,-3.5813,-3.5174,-3.4501,-3.4414,-3.4414,-3.4414,-3.4414,-3.4414,-3.4414,-3.4414,-3.4414,-3.4414,-3.4414,-3.4414,-3.4414,-3.4414,-3.4414,-3.4414,-3.4597,-3.4698,-3.4731,-3.4835,-3.4902,-3.4887,-3.4094,-3.3431,-3.2813,-3.264,-3.1849,-3.0716,-3.1311,-3.124,-3.0672,-3.0672,-3.0672,-3.0672,-3.0672,-3.0672,-3.0642,-3.0642,-3.0612,-3.0598,-3.0598,-3.0221,-2.9747,-2.9623,-2.8712,-2.7637,-2.755,-2.7043,-2.6245,-2.5016,-2.396,-2.3195,-2.302,-2.2631,-2.2272,-2.2096,-2.1694,-2.1383,-2.1383,-2.1732,-2.2083,-2.2171,-2.2606,-2.3097,-2.3536,-2.3201,-2.3096,-2.3583,0.0,-2.0543,-2.05,-1.9202,-1.8094,-1.7641,-1.7707,-1.7389,-1.6565,-1.6595,-1.6405,-1.59,-1.5505,-1.4674,-1.3364,-1.3231,-1.2361,-1.065,-1.0386,-1.0364,-1.0623,-1.0665,-1.0858,-1.1111,-1.1111,-1.1111,-1.1111,-1.1111,-1.1111,-1.1111,-1.1111,-1.1111,-1.1111,-1.1111,-1.1111,-1.1104,-1.1109,-1.1122,-1.1175,-3.8202,-3.8202,-3.8202,-3.8202,-3.797,-3.7578,-3.6939,-3.6591,-3.6054,-3.5053,-3.4922,-3.4791,-3.4443,-3.4414,-3.4414,-3.4414,-3.4414,-3.4414,-3.4414,-3.4414,-3.4414,-3.4414,-3.4414,-3.4414,-3.4414,-3.4481,-3.4549,-3.4549,-3.4616,-3.4635,-3.462,-3.3911,-3.3252,-3.2608,-3.2167,-3.1642,-3.1076,-3.1032,-3.1032,-3.1061,-3.0743,-3.0598,-3.0598,-3.0598,-3.0598,-3.0598,-3.0598,-3.0387,-3.0068,-3.0068,-2.9608,-2.8921,-2.8583,-2.8032,-2.7417,-2.7061,-2.6519,-2.5858,-2.5034,-2.4217,-2.3496,-2.3183,-2.2907,-2.2644,-2.2385,-2.2121,-2.1933,-2.1933,-2.2133,-2.2397,-2.2669,-2.2932,-2.3162,-2.3303,-2.2963,-2.2585,-2.2259,-2.0991,-1.9844,-1.9247,-1.8275,-1.75,-1.708,-1.7035,-1.6718,-1.5939,-1.6089,-1.5868,-1.5084,-1.4724,-1.4004,-1.2797,-1.2195,-1.1492,-1.0604,-1.0647,-1.0669,-1.0689,-1.0864,-1.0997,-1.1111,-1.1111,-1.1111,-1.1111,-1.1111,-1.1111,-1.1111,-1.1111,-1.1111,-1.1111,-1.1111,-1.1111,-1.111,-1.131,-1.1303,-1.1231,-3.8202,-3.8202,-3.8202,-3.8202,-3.8202,-3.7999,-3.7404,-3.7302,-3.6896,-3.577,-3.5494,-3.5203,-3.469,-3.4501,-3.4414,-3.4414,-3.4414,-3.4414,-3.4414,-3.4414,-3.4414,-3.4414,-3.4414,-3.4414,-3.4414,-3.4414,-3.4414,-3.4414,-3.4414,-3.4414,-3.4399,-3.3794,-3.3122,-3.2466,-3.1944,-3.164,-3.1466,-3.1163,-3.1308,-3.1669,-3.1047,-3.0917,-3.1019,-3.0714,-3.0699,-3.0771,-3.046,-3.0038,-2.9577,-2.939,-2.8857,-2.8182,-2.767,-2.7384,-2.7162,-2.6658,-2.6185,-2.5649,-2.4963,-2.4418,-2.3866,-2.3246,-2.3108,-2.2995,-2.2569,-2.2498,-2.2498,-2.2498,-2.2498,-2.2606,-2.3032,-2.2975,-2.2874,-2.2879,0.0,-2.1728,-2.1,-2.0062,-1.9131,-1.8105,-1.7549,-1.7061,-1.659,-1.6374,-1.6045,-1.5503,-1.5551,-1.5303,-1.4543,-1.4162,-1.3497,-1.2508,-1.1381,-1.0823,-1.086,-1.0994,-1.0991,-1.0816,-1.1015,-1.1111,-1.1111,-1.1111,-1.1111,-1.1111,-1.1111,-1.1111,-1.1111,-1.1111,-1.1111,-1.1111,-1.1111,-1.1111,-1.1154,-1.1459,-1.1429,-1.1237,-3.8202,-3.8202,-3.8202,-3.8202,-3.8202,-3.7999,-3.7404,-3.7302,-3.7056,-3.633,-3.577,-3.5378,-3.5334,-3.4762,-3.4414,-3.4414,-3.4414,-3.4414,-3.4414,-3.4414,-3.4414,-3.4414,-3.4414,-3.4414,-3.4414,-3.4414,-3.4414,-3.4414,-3.4414,-3.4414,-3.4399,-3.3794,-3.3122,-3.2481,-3.2469,-3.206,-3.1524,-3.2135,-3.2396,-3.235,-3.1683,-3.183,-3.2251,-3.1032,-3.0945,-3.1273,-3.0114,-2.9654,-2.9484,-2.8826,-2.8149,-2.7571,-2.7517,-2.7061,-2.6555,-2.6499,-2.6461,-2.6197,-2.5109,-2.4418,-2.3866,-2.3246,-2.3108,-2.3095,-2.3058,-2.3045,-2.3045,-2.3045,-2.3045,-2.3058,-2.3095,-2.2586,-2.2219,-2.2406,0.0,0.0,-2.0452,-1.8839,-1.7707,-1.7969,-1.7252,-1.6602,-1.6183,-1.597,-1.5615,-1.5076,-1.4888,-1.4701,-1.4515,-1.3877,-1.3191,-1.2416,-1.1546,-1.1243,-1.16,-1.144,-1.1267,-1.1081,-1.1099,-1.1111,-1.1111,-1.1111,-1.1111,-1.1111,-1.1111,-1.1111,-1.1111,-1.1111,-1.1111,-1.1111,-1.1111,-1.1111,-1.1178,-1.1663,-1.1582,-1.1266,-3.8202,-3.8202,-3.8037,-3.7491,-3.7848,-3.7927,-3.7192,-3.7503,-3.7491,-3.6446,-3.5691,-3.5139,-3.483,-3.4106,-3.3859,-3.4346,-3.4414,-3.4414,-3.4414,-3.4414,-3.4414,-3.4414,-3.4414,-3.4414,-3.4414,-3.4414,-3.4414,-3.4414,-3.4414,-3.4414,-3.4399,-3.3794,-3.3373,-3.3093,-3.2701,-3.26,-3.2716,-3.2571,-3.2745,-3.305,-3.2396,-3.2263,-3.2394,-3.1511,-3.1046,-3.0785,-2.991,-2.903,-2.826,-2.7953,-2.7417,-2.6871,-2.6871,-2.6714,-2.6499,-2.6499,-2.6499,-2.6248,-2.5121,-2.4637,-2.4261,-2.3333,-2.3108,-2.3108,-2.3108,-2.3108,-2.2975,-2.2555,-2.2494,-2.2341,-2.1939,-2.1659,-2.134,-2.0848,0.0,-1.9491,-1.9188,-1.8339,-1.7637,-1.7233,-1.6902,-1.6414,-1.5732,-1.5605,-1.5399,-1.5048,-1.4941,-1.4764,-1.4506,-1.3672,-1.3004,-1.2557,-1.1909,-1.1676,-1.1892,-1.1706,-1.1484,-1.1298,-1.1149,-1.1111,-1.1111,-1.1111,-1.1111,-1.1111,-1.1111,-1.1111,-1.1111,-1.1111,-1.1111,-1.1111,-1.1111,-1.122,-1.1375,-1.1748,-1.1821,-1.1723,-3.781,-3.7553,-3.7193,-3.6596,-3.7,-3.7193,-3.6557,-3.7,-3.7087,-3.6196,-3.5335,-3.4626,-3.4264,-3.3621,-3.3332,-3.3638,-3.3894,-3.3928,-3.3687,-3.3894,-3.4147,-3.438,-3.4414,-3.4414,-3.4414,-3.4414,-3.4414,-3.4414,-3.4414,-3.4414,-3.4399,-3.3978,-3.3692,-3.3489,-3.3224,-3.3253,-3.3489,-3.3209,-3.3369,-3.3736,-3.3079,-3.2933,-3.2988,-3.185,-3.1169,-3.0652,-2.9573,-2.8454,-2.7484,-2.7263,-2.6871,-2.6499,-2.6499,-2.6499,-2.6499,-2.6499,-2.6499,-2.6285,-2.5322,-2.4946,-2.4525,-2.3384,-2.3108,-2.3108,-2.3108,-2.3108,-2.2914,-2.2237,-2.2101,-2.1896,-2.1219,-2.0869,-2.0484,-1.9835,-1.9441,-1.8944,-1.8303,-1.7841,-1.736,-1.6775,-1.6453,-1.6044,-1.5469,-1.541,-1.5303,-1.5029,-1.5,-1.4666,-1.3911,-1.3332,-1.2781,-1.2253,-1.2228,-1.222,-1.2114,-1.1818,-1.1595,-1.1409,-1.1186,-1.1111,-1.1111,-1.1111,-1.1111,-1.1111,-1.1111,-1.1111,-1.1111,-1.1111,-1.1111,-1.1111,-1.1111,-1.1242,-1.1525,-1.1784,-1.1927,-1.2022,-3.6897,-3.6188,-3.5615,-3.5574,-3.5615,-3.5615,-3.5574,-3.5574,-3.5601,-3.5601,-3.4611,-3.3892,-3.3892,-3.3467,-3.2897,-3.2146,-3.2755,-3.2861,-3.2146,-3.2791,-3.3555,-3.4346,-3.4414,-3.4414,-3.4414,-3.4414,-3.4414,-3.4414,-3.4414,-3.4414,-3.4414,-3.438,-3.408,-3.3532,-3.4124,-3.4066,-3.3547,-3.4138,-3.438,-3.4356,-3.3765,-3.3848,-3.4153,-3.2079,-3.1382,-3.1212,-2.9057,-2.7968,-2.7384,-2.6714,-2.6499,-2.6499,-2.6499,-2.6499,-2.6499,-2.6499,-2.6499,-2.6361,-2.5749,-2.5222,-2.4525,-2.3396,-2.3108,-2.3108,-2.3108,-2.3108,-2.2914,-2.2237,-2.2082,-2.1896,-2.1219,-2.0387,-1.9737,-1.9595,-1.8854,-1.8245,-1.8042,-1.7243,-1.6707,-1.6697,-1.5917,-1.5391,-1.541,-1.541,-1.5303,-1.5029,-1.5,-1.427,-1.2604,-1.2893,-1.2593,-1.145,-1.2465,-1.2778,-1.2298,-1.1892,-1.1595,-1.1409,-1.1186,-1.1111,-1.1111,-1.1111,-1.1111,-1.1111,-1.1111,-1.1111,-1.1111,-1.1111,-1.1111,-1.1111,-1.1111,-1.1286,-1.1531,-1.179,-1.1967,-1.2022,-3.5989,-3.5789,-3.5427,-3.4855,-3.5237,-3.5427,-3.4855,-3.4929,-3.5004,-3.4992,-3.3536,-3.2686,-3.3128,-3.224,-3.1733,-3.2074,-3.229,-3.2326,-3.211,-3.229,-3.2755,-3.352,-3.4113,-3.4414,-3.4414,-3.4414,-3.4414,-3.4414,-3.4414,-3.4414,-3.438,-3.3811,-3.3759,-3.4105,-3.3206,-3.3296,-3.4105,-3.3705,-3.3894,-3.4385,-3.4196,-3.3907,-3.3435,-3.241,-3.1158,-2.9808,-2.8681,-2.764,-2.6782,-2.6555,-2.6499,-2.6499,-2.6499,-2.6499,-2.6499,-2.6499,-2.6499,-2.6361,-2.5749,-2.5222,-2.4612,-2.3916,-2.3409,-2.3108,-2.3108,-2.275,-2.2206,-2.1522,-2.1017,-2.0505,-1.9813,-1.9363,-1.9031,-1.8865,-1.8539,-1.8245,-1.8042,-1.7539,-1.708,-1.6736,-1.6221,-1.5752,-1.5439,-1.541,-1.5303,-1.5029,-1.4773,-1.4336,-1.3653,-1.396,-1.39,-1.337,-1.336,-1.3295,-1.3135,-1.2181,-1.1669,-1.1595,-1.126,-1.1111,-1.1111,-1.1111,-1.1111,-1.1111,-1.1111,-1.1111,-1.1111,-1.1111,-1.1111,-1.1129,-1.1329,-1.1531,-1.1796,-1.206,-1.2319,-1.2469,-3.5128,-3.4828,-3.447,-3.3979,-3.4288,-3.4441,-3.3979,-3.4029,-3.4108,-3.4053,-3.2891,-3.2187,-3.2568,-3.1795,-3.1273,-3.1487,-3.1314,-3.1182,-3.1182,-3.1466,-3.1806,-3.2277,-3.3052,-3.3638,-3.3928,-3.3928,-3.3791,-3.35,-3.35,-3.35,-3.3465,-3.2981,-3.3017,-3.3465,-3.2519,-3.2627,-3.3465,-3.2981,-3.3052,-3.35,-3.35,-3.3206,-3.2678,-3.2022,-3.086,-2.9483,-2.8557,-2.7618,-2.6788,-2.6562,-2.6499,-2.6499,-2.6499,-2.6499,-2.6499,-2.6499,-2.6499,-2.6411,-2.6072,-2.5548,-2.5046,-2.4707,-2.3847,-2.3035,-2.275,-2.2402,-2.1822,-2.0901,-2.0387,-1.9911,-1.9231,-1.8875,-1.865,-1.8516,-1.8313,-1.8144,-1.8008,-1.7646,-1.7285,-1.7021,-1.6602,-1.6221,-1.5927,-1.5907,-1.5787,-1.5484,-1.4995,-1.46,-1.4345,-1.4411,-1.4209,-1.3731,-1.3573,-1.3353,-1.3025,-1.2224,-1.1781,-1.1706,-1.1372,-1.1186,-1.1111,-1.1111,-1.1111,-1.1111,-1.1111,-1.1111,-1.1123,-1.1194,-1.1274,-1.1266,-1.1537,-1.1808,-1.2095,-1.2252,-1.2481,-1.2662,-3.4272,-3.3654,-3.3124,-3.3124,-3.3124,-3.3124,-3.3124,-3.3031,-3.3061,-3.3111,-3.2528,-3.2152,-3.2202,-3.1867,-3.137,-3.0647,-3.0118,-2.9792,-2.9792,-3.0444,-3.082,-3.0895,-3.1599,-3.2326,-3.2967,-3.3073,-3.2755,-3.211,-3.211,-3.211,-3.211,-3.2051,-3.2037,-3.2074,-3.1978,-3.1978,-3.211,-3.2001,-3.2037,-3.211,-3.211,-3.2037,-3.1928,-3.118,-3.0518,-2.9837,-2.8605,-2.7795,-2.7241,-2.6688,-2.6499,-2.6499,-2.6499,-2.6499,-2.6499,-2.6499,-2.6499,-2.6499,-2.6499,-2.6072,-2.5598,-2.5598,-2.4355,-2.2978,-2.2321,-2.2075,-2.1635,-2.0344,-2.0063,-1.9813,-1.9198,-1.8774,-1.8516,-1.8516,-1.8212,-1.8008,-1.8008,-1.7646,-1.7383,-1.7383,-1.7002,-1.6697,-1.6697,-1.6707,-1.6529,-1.6128,-1.5477,-1.5009,-1.4758,-1.4504,-1.3997,-1.3157,-1.3445,-1.3171,-1.2305,-1.2114,-1.1929,-1.1706,-1.1484,-1.1298,-1.1149,-1.1111,-1.1111,-1.1111,-1.1111,-1.1111,-1.1135,-1.1375,-1.1495,-1.1519,-1.1802,-1.206,-1.2318,-1.2337,-1.2499,-1.2705,-3.3368,-3.324,-3.3124,-3.3124,-3.3124,-3.3124,-3.3124,-3.2692,-3.2566,-3.3061,-3.2202,-3.1738,-3.2164,-3.1763,-3.1236,-3.0645,-3.0118,-2.9792,-2.9792,-2.9934,-3.0317,-3.0857,-3.1082,-3.1217,-3.1402,-3.2037,-3.2254,-3.211,-3.211,-3.211,-3.2074,-3.1452,-3.1489,-3.2051,-3.0835,-3.0972,-3.2037,-3.1415,-3.1526,-3.211,-3.211,-3.1709,-3.1156,-3.097,-3.0183,-2.9125,-2.8825,-2.8109,-2.7241,-2.6688,-2.6499,-2.6499,-2.6499,-2.6499,-2.6499,-2.6499,-2.6499,-2.6499,-2.6499,-2.6072,-2.5598,-2.5598,-2.4526,-2.3385,-2.2911,-2.2048,-2.1092,-2.0258,-1.9682,-1.9264,-1.9131,-1.8774,-1.8516,-1.8516,-1.8212,-1.8008,-1.8008,-1.7646,-1.7383,-1.7383,-1.7002,-1.6697,-1.6697,-1.6602,-1.6211,-1.5389,-1.5601,-1.5575,-1.5111,-1.5578,-1.5369,-1.4304,-1.4311,-1.3709,-1.2298,-1.2261,-1.212,-1.1929,-1.1558,-1.1372,-1.1335,-1.1186,-1.1111,-1.1111,-1.1111,-1.1111,-1.1135,-1.1375,-1.1495,-1.1537,-1.2047,-1.2264,-1.2337,-1.2542,-1.2656,-1.2705,-3.3124,-3.3124,-3.3124,-3.3124,-3.3124,-3.3124,-3.3124,-3.2817,-3.2729,-3.3074,-3.2566,-3.2303,-3.2591,-3.2114,-3.1574,-3.1035,-3.0495,-3.0181,-3.0181,-2.9942,-2.996,-3.0343,-3.0381,-3.0381,-3.0381,-3.0784,-3.1009,-3.1009,-3.1009,-3.1009,-3.0972,-3.0558,-3.0608,-3.0972,-3.0152,-3.0254,-3.0972,-3.0558,-3.0608,-3.1009,-3.1009,-3.0746,-3.0381,-3.0381,-2.9948,-2.9302,-2.8988,-2.8222,-2.7241,-2.6688,-2.6499,-2.6499,-2.6499,-2.6499,-2.6499,-2.6499,-2.6499,-2.6499,-2.6499,-2.6273,-2.6047,-2.6047,-2.5038,-2.3747,-2.2719,-2.1696,-2.0708,-1.9791,-1.933,-1.9108,-1.9108,-1.8774,-1.8516,-1.8516,-1.8212,-1.8008,-1.8008,-1.7822,-1.7686,-1.7686,-1.748,-1.7311,-1.7311,-1.7278,-1.6939,-1.63,-1.62,-1.608,-1.6032,-1.5679,-1.5235,-1.4637,-1.425,-1.3491,-1.2305,-1.2305,-1.2268,-1.215,-1.1818,-1.1595,-1.1409,-1.1298,-1.1186,-1.1117,-1.1256,-1.1273,-1.1303,-1.17,-1.1862,-1.1904,-1.2343,-1.2499,-1.2518,-1.265,-1.2705,-1.2705,-3.3124,-3.3124,-3.3124,-3.3124,-3.3124,-3.3124,-3.3124,-3.3124,-3.3124,-3.3124,-3.3124,-3.3124,-3.3124,-3.2554,-3.2026,-3.1574,-3.1047,-3.0746,-3.0746,-3.0231,-2.998,-3.0068,-2.9892,-2.9829,-2.993,-2.9842,-2.9792,-2.9792,-2.9792,-2.9792,-2.9792,-2.9792,-2.9792,-2.9792,-2.9792,-2.9792,-2.9792,-2.9792,-2.9792,-2.9792,-2.9792,-2.9792,-2.9792,-2.9792,-2.9792,-2.9729,-2.9252,-2.836,-2.7344,-2.6826,-2.6575,-2.6499,-2.6499,-2.6499,-2.6499,-2.6499,-2.6499,-2.6499,-2.6499,-2.6499,-2.6499,-2.6499,-2.5473,-2.4032,-2.2506,-2.152,-2.0614,-1.944,-1.9222,-1.9202,-1.9119,-1.8774,-1.8516,-1.8516,-1.8212,-1.8008,-1.8008,-1.8008,-1.8008,-1.8008,-1.8008,-1.8008,-1.8008,-1.8008,-1.7803,-1.7323,-1.6664,-1.642,-1.6691,-1.5498,-1.4744,-1.4601,-1.3998,-1.3244,-1.2305,-1.2305,-1.2325,-1.2378,-1.223,-1.19,-1.1484,-1.1496,-1.1371,-1.1233,-1.1479,-1.1561,-1.1597,-1.2113,-1.2312,-1.2337,-1.2602,-1.2705,-1.2705,-1.2705,-1.2705,-1.2705,-3.3124,-3.3124,-3.3124,-3.3124,-3.3124,-3.3124,-3.3124,-3.3124,-3.3124,-3.3124,-3.3124,-3.3124,-3.3124,-3.2554,-3.2177,-3.2102,-3.1599,-3.1286,-3.1286,-3.0796,-3.0708,-3.1148,-3.0281,-3.0018,-3.0495,-3.0043,-2.9792,-2.9792,-2.9792,-2.9792,-2.9792,-2.9792,-2.9792,-2.9792,-2.9792,-2.9792,-2.9792,-2.9792,-2.9792,-2.9792,-2.9792,-2.9792,-2.9792,-2.9792,-2.9792,-2.9779,-2.9704,-2.895,-2.7908,-2.7356,-2.6889,-2.6499,-2.6499,-2.6499,-2.6499,-2.6499,-2.6499,-2.6499,-2.6499,-2.6499,-2.6499,-2.6499,-2.5298,-2.3975,-2.334,-2.2282,-2.1088,-1.993,-1.9699,-1.9585,-1.9181,-1.8774,-1.8516,-1.8516,-1.8212,-1.8008,-1.8008,-1.8008,-1.8008,-1.8008,-1.8008,-1.8008,-1.8008,-1.8008,-1.7579,-1.6559,-1.6376,-1.621,-1.5974,-1.5762,-1.533,-1.4601,-1.4494,-1.3745,-1.2298,-1.2305,-1.2432,-1.2723,-1.2685,-1.2439,-1.1905,-1.1784,-1.1743,-1.1723,-1.1791,-1.1832,-1.185,-1.2192,-1.2312,-1.2337,-1.2602,-1.2705,-1.2705,-1.2705,-1.2705,-1.2705,-3.3124,-3.3124,-3.3124,-3.3124,-3.3124,-3.3124,-3.3124,-3.3124,-3.3124,-3.3124,-3.3124,-3.3124,-3.3124,-3.2855,-3.2692,-3.2692,-3.2177,-3.1851,-3.1851,-3.1348,-3.1148,-3.1386,-3.0934,-3.0658,-3.062,-3.0382,-3.0105,-2.9792,-2.9792,-2.9792,-2.9792,-2.9792,-2.9792,-2.9792,-2.9792,-2.9792,-2.9792,-2.9792,-2.9792,-2.9792,-2.9792,-2.9792,-2.9792,-2.9792,-2.9792,-2.9754,-2.9428,-2.8787,-2.8021,-2.7469,-2.6952,-2.6499,-2.6499,-2.6499,-2.6499,-2.6499,-2.6499,-2.6499,-2.6499,-2.6499,-2.6499,-2.6499,-2.5288,-2.4051,-2.3833,-2.2694,-2.1391,-2.0346,-1.9969,-1.9696,-1.9397,-1.888,-1.8482,-1.8414,-1.8178,-1.8008,-1.8008,-1.8008,-1.8008,-1.8008,-1.8008,-1.8008,-1.8008,-1.8008,-1.7588,-1.6524,-1.5983,-1.5561,-1.5294,-1.4796,-1.4358,-1.3998,-1.3998,-1.3455,-1.2305,-1.2305,-1.2489,-1.2784,-1.2784,-1.2689,-1.2505,-1.2447,-1.2308,-1.2085,-1.2271,-1.2266,-1.2161,-1.2421,-1.253,-1.2542,-1.2656,-1.2705,-1.2705,-1.2705,-1.2705,-1.2705]},{"header":{"parameterUnit":"m.s-1","parameterCategory":1,"la1":30.6,"la2":28.766,"lo1":-90.7593,"lo2":-88.6598,"dy":0.0162,"dx":0.0183,"nx":116,"ny":114,"refTime":"2024-05-26T12:00:00:Z","depth":0,"parameterNumber":3,"parameterNumberName":"V-component_of_WINDS"},"data":[0.0,0.0,0.0,0.0,0.0,0.0,0.0,0.0,0.0,0.0,0.0,0.0,0.0,0.0,0.0,0.0,0.0,0.0,0.0,0.0,0.0,0.0,0.0,0.0,0.0,0.0,0.0,0.0,0.0,0.0,0.0,0.0,0.0,0.0,0.0,0.0,0.0,0.0,0.0,0.0,0.0,0.0,0.0,0.0,0.0,0.0,0.0,0.0,0.0,0.0,0.0,0.0,0.0,0.0,0.0,0.0,0.0,0.0,0.0,0.0,0.0,0.0,0.0,0.0,0.0,0.0,0.0,0.0,0.0,0.0,0.0,0.0,0.0,0.0,0.0,0.0,0.0,0.0,0.0,0.0,0.0,0.0,0.0,0.0,0.0,0.0,0.0,0.0,0.0,0.0,0.0,0.0,0.0,0.0,0.0,0.0,0.0,0.0,0.0,0.0,0.0,0.0,0.0,0.0,0.0,0.0,0.0,0.0,0.0,0.0,0.0,0.0,0.0,0.0,0.0,0.0,0.0,0.0,0.0,0.0,0.0,0.0,0.0,0.0,0.0,0.0,0.0,0.0,0.0,0.0,0.0,0.0,0.0,0.0,0.0,0.0,0.0,0.0,0.0,0.0,0.0,0.0,0.0,0.0,0.0,0.0,0.0,0.0,0.0,0.0,0.0,0.0,0.0,0.0,0.0,0.0,0.0,0.0,0.0,0.0,0.0,0.0,0.0,0.0,0.0,0.0,0.0,0.0,0.0,0.0,0.0,0.0,0.0,0.0,0.0,0.0,0.0,0.0,0.0,0.0,0.0,0.0,0.0,0.0,0.0,0.0,0.0,0.0,0.0,0.0,0.0,0.0,0.0,0.0,0.0,0.0,0.0,0.0,0.0,0.0,0.0,0.0,0.0,0.0,0.0,0.0,0.0,0.0,0.0,0.0,0.0,0.0,0.0,0.0,0.0,0.0,0.0,0.0,0.0,0.0,0.0,0.0,0.0,0.0,0.0,0.0,0.0,0.0,0.0,0.0,0.0,0.0,0.0,0.0,0.0,0.0,0.0,0.0,0.0,0.0,0.0,0.0,0.0,0.0,0.0,0.0,0.0,0.0,0.0,0.0,0.0,0.0,0.0,0.0,0.0,0.0,0.0,0.0,0.0,0.0,0.0,0.0,0.0,0.0,0.0,0.0,0.0,0.0,0.0,0.0,0.0,0.0,0.0,0.0,0.0,0.0,0.0,0.0,0.0,0.0,0.0,0.0,0.0,0.0,0.0,0.0,0.0,0.0,0.0,0.0,0.0,0.0,0.0,0.0,0.0,0.0,0.0,0.0,0.0,0.0,0.0,0.0,0.0,0.0,0.0,0.0,0.0,0.0,0.0,0.0,0.0,0.0,0.0,0.0,0.0,0.0,0.0,0.0,0.0,0.0,0.0,0.0,0.0,0.0,0.0,0.0,0.0,0.0,0.0,0.0,0.0,0.0,0.0,0.0,0.0,0.0,0.0,0.0,0.0,0.0,0.0,0.0,0.0,0.0,0.0,0.0,0.0,0.0,0.0,0.0,0.0,0.0,0.0,0.0,0.0,0.0,0.0,0.0,0.0,0.0,0.0,0.0,0.0,0.0,0.0,0.0,0.0,0.0,0.0,0.0,0.0,0.0,0.0,0.0,0.0,0.0,0.0,0.0,0.0,0.0,0.0,0.0,0.0,0.0,0.0,0.0,0.0,0.0,0.0,0.0,0.0,0.0,0.0,0.0,0.0,0.0,0.0,0.0,0.0,0.0,0.0,0.0,0.0,0.0,0.0,0.0,0.0,0.0,0.0,0.0,0.0,0.0,0.0,0.0,0.0,0.0,0.0,0.0,0.0,0.0,0.0,0.0,0.0,0.0,0.0,0.0,0.0,0.0,0.0,0.0,0.0,0.0,0.0,0.0,0.0,0.0,0.0,0.0,0.0,0.0,0.0,0.0,0.0,0.0,0.0,0.0,0.0,0.0,0.0,0.0,0.0,0.0,0.0,0.0,0.0,0.0,0.0,0.0,0.0,0.0,0.0,0.0,0.0,0.0,0.0,0.0,0.0,0.0,0.0,0.0,0.0,0.0,0.0,0.0,0.0,0.0,0.0,0.0,0.0,0.0,0.0,0.0,0.0,0.0,0.0,0.0,0.0,0.0,0.0,0.0,0.0,0.0,0.0,0.0,0.0,0.0,0.0,0.0,0.0,0.0,0.0,0.0,0.0,0.0,0.0,0.0,0.0,0.0,0.0,0.0,0.0,0.0,0.0,0.0,0.0,0.0,0.0,0.0,0.0,0.0,0.0,0.0,0.0,0.0,0.0,0.0,0.0,0.0,0.0,0.0,0.0,0.0,0.0,0.0,0.0,0.0,0.0,0.0,0.0,0.0,0.0,0.0,0.0,0.0,0.0,0.0,0.0,0.0,0.0,0.0,0.0,0.0,0.0,0.0,0.0,0.0,0.0,0.0,0.0,0.0,0.0,0.0,0.0,0.0,0.0,0.0,0.0,0.0,0.0,0.0,0.0,0.0,0.0,0.0,0.0,0.0,0.0,0.0,0.0,0.0,0.0,0.0,0.0,0.0,0.0,0.0,0.0,0.0,0.0,0.0,0.0,0.0,0.0,0.0,0.0,0.0,0.0,0.0,0.0,0.0,0.0,0.0,0.0,0.0,0.0,0.0,0.0,0.0,0.0,0.0,0.0,0.0,0.0,0.0,0.0,0.0,0.0,0.0,0.0,0.0,0.0,0.0,0.0,0.0,0.0,0.0,0.0,0.0,0.0,0.0,0.0,0.0,0.0,0.0,0.0,0.0,0.0,0.0,0.0,0.0,0.0,0.0,0.0,0.0,0.0,0.0,0.0,0.0,0.0,0.0,0.0,0.0,0.0,0.0,0.0,0.0,0.0,0.0,0.0,0.0,0.0,0.0,0.0,0.0,0.0,0.0,0.0,0.0,0.0,0.0,0.0,0.0,0.0,0.0,0.0,0.0,0.0,0.0,0.0,0.0,0.0,0.0,0.0,0.0,0.0,0.0,0.0,0.0,0.0,0.0,0.0,0.0,0.0,0.0,0.0,0.0,0.0,0.0,0.0,0.0,0.0,0.0,0.0,0.0,0.0,0.0,0.0,0.0,0.0,0.0,0.0,0.0,0.0,0.0,0.0,0.0,0.0,0.0,0.0,0.0,0.0,0.0,0.0,0.0,0.0,0.0,0.0,0.0,0.0,0.0,0.0,0.0,0.0,0.0,0.0,0.0,0.0,0.0,0.0,0.0,0.0,0.0,0.0,0.0,0.0,0.0,0.0,0.0,0.0,0.0,0.0,0.0,0.0,0.0,0.0,0.0,0.0,0.0,0.0,0.0,0.0,0.0,0.0,0.0,0.0,0.0,0.0,0.0,0.0,0.0,0.0,0.0,0.0,0.0,0.0,0.0,0.0,0.0,0.0,0.0,0.0,0.0,0.0,0.0,0.0,0.0,0.0,0.0,0.0,0.0,0.0,0.0,0.0,0.0,0.0,0.0,0.0,0.0,0.0,0.0,0.0,0.0,0.0,0.0,0.0,0.0,0.0,0.0,0.0,0.0,0.0,0.0,0.0,0.0,0.0,0.0,0.0,0.0,0.0,0.0,0.0,0.0,0.0,0.0,0.0,0.0,0.0,0.0,0.0,0.0,0.0,0.0,0.0,0.0,0.0,0.0,0.0,0.0,0.0,0.0,0.0,0.0,0.0,0.0,0.0,0.0,0.0,0.0,0.0,0.0,0.0,0.0,0.0,0.0,0.0,0.0,0.0,0.0,0.0,0.0,0.0,0.0,0.0,0.0,0.0,0.0,0.0,0.0,0.0,0.0,0.0,0.0,0.0,0.0,0.0,0.0,0.0,0.0,0.0,0.0,0.0,0.0,0.0,0.0,0.0,0.0,0.0,0.0,0.0,0.0,0.0,0.0,0.0,0.0,0.0,0.0,0.0,0.0,0.0,0.0,0.0,0.0,0.0,0.0,0.0,0.0,0.0,0.0,0.0,0.0,0.0,0.0,0.0,0.0,0.0,0.0,0.0,0.0,0.0,0.0,0.0,0.0,0.0,0.0,0.0,0.0,0.0,0.0,0.0,0.0,0.0,0.0,0.0,0.0,0.0,0.0,0.0,0.0,0.0,0.0,0.0,0.0,0.0,0.0,0.0,0.0,0.0,0.0,0.0,0.0,0.0,0.0,0.0,0.0,0.0,0.0,0.0,0.0,0.0,0.0,0.0,0.0,0.0,0.0,0.0,0.0,0.0,0.0,0.0,0.0,0.0,0.0,0.0,0.0,0.0,0.0,0.0,0.0,0.0,0.0,0.0,0.0,0.0,0.0,0.0,0.0,0.0,0.0,0.0,0.0,0.0,0.0,0.0,0.0,0.0,0.0,0.0,0.0,0.0,0.0,0.0,0.0,0.0,0.0,0.0,0.0,0.0,0.0,0.0,0.0,0.0,0.0,0.0,0.0,0.0,0.0,0.0,0.0,0.0,0.0,0.0,0.0,0.0,0.0,0.0,0.0,0.0,0.0,0.0,0.0,0.0,0.0,0.0,0.0,0.0,0.0,0.0,0.0,0.0,0.0,0.0,0.0,0.0,0.0,0.0,0.0,0.0,0.0,0.0,0.0,0.0,0.0,0.0,0.0,0.0,0.0,0.0,0.0,0.0,0.0,0.0,0.0,0.0,0.0,0.0,0.0,0.0,0.0,0.0,0.0,0.0,0.0,0.0,0.0,0.0,0.0,0.0,0.0,0.0,0.0,0.0,0.0,0.0,0.0,0.0,0.0,0.0,0.0,0.0,0.0,0.0,0.0,0.0,0.0,0.0,0.0,0.0,0.0,0.0,0.0,0.0,0.0,0.0,0.0,0.0,0.0,0.0,0.0,0.0,0.0,0.0,0.0,0.0,0.0,0.0,0.0,0.0,0.0,0.0,0.0,0.0,0.0,0.0,0.0,0.0,0.0,0.0,0.0,0.0,0.0,0.0,0.0,0.0,0.0,0.0,0.0,0.0,0.0,0.0,0.0,0.0,0.0,0.0,0.0,0.0,0.0,0.0,0.0,0.0,0.0,0.0,0.0,0.0,0.0,0.0,0.0,0.0,0.0,0.0,0.0,0.0,0.0,0.0,0.0,0.0,0.0,0.0,0.0,0.0,0.0,0.0,0.0,0.0,0.0,0.0,0.0,0.0,0.0,0.0,0.0,0.0,0.0,0.0,0.0,0.0,0.0,0.0,0.0,0.0,0.0,0.0,0.0,0.0,0.0,0.0,0.0,0.0,0.0,0.0,0.0,0.0,0.0,0.0,0.0,0.0,0.0,0.0,0.0,0.0,0.0,0.0,0.0,0.0,0.0,0.0,0.0,0.0,0.0,0.0,0.0,0.0,0.0,0.0,0.0,0.0,0.0,0.0,0.0,0.0,0.0,0.0,0.0,0.0,0.0,0.0,0.0,0.0,0.0,0.0,0.0,0.0,0.0,0.0,0.0,0.0,0.0,0.0,0.0,0.0,0.0,0.0,0.0,0.0,0.0,0.0,0.0,0.0,0.0,0.0,0.0,0.0,0.0,0.0,0.0,0.0,0.0,0.0,0.0,0.0,0.0,0.0,0.0,0.0,0.0,0.0,0.0,0.0,0.0,0.0,0.0,0.0,0.0,0.0,0.0,0.0,0.0,0.0,0.0,0.0,0.0,0.0,0.0,0.0,0.0,0.0,0.0,0.0,0.0,0.0,0.0,0.0,0.0,0.0,0.0,0.0,0.0,0.0,0.0,0.0,0.0,0.0,0.0,0.0,0.0,0.0,0.0,0.0,0.0,0.0,0.0,0.0,0.0,0.0,0.0,0.0,0.0,0.0,0.0,0.0,0.0,0.0,0.0,0.0,0.0,0.0,0.0,0.0,0.0,0.0,0.0,0.0,0.0,0.0,0.0,0.0,0.0,0.0,0.0,0.0,0.0,0.0,0.0,0.0,0.0,0.0,0.0,0.0,0.0,0.0,0.0,0.0,0.0,0.0,0.0,0.0,0.0,0.0,0.0,0.0,0.0,0.0,0.0,0.0,0.0,0.0,0.0,0.0,0.0,0.0,0.0,1.4985,1.4316,0.0,0.0,0.0,0.0,0.0,0.0,0.0,0.0,0.0,0.0,0.0,0.0,0.0,0.0,0.0,0.0,0.0,0.0,0.0,0.0,0.0,0.0,0.0,2.5514,2.5821,2.5607,2.6283,2.6576,2.618,0.0,0.0,0.0,0.0,0.0,2.4302,2.4057,2.3931,2.3931,2.3465,2.3113,2.2889,2.2365,2.1992,2.1769,0.0,0.0,0.0,0.0,0.0,0.0,0.0,0.0,0.0,0.0,0.0,0.0,0.0,0.0,0.0,0.0,0.0,0.0,0.0,0.0,0.0,0.0,0.0,0.0,0.0,0.0,0.0,0.0,0.0,0.0,0.0,0.0,0.0,0.0,0.0,0.0,0.0,0.0,0.0,0.0,0.0,0.0,0.0,0.0,0.0,0.0,0.0,0.0,0.0,0.0,0.0,0.0,0.0,0.0,0.0,0.0,0.0,0.0,0.0,0.0,0.0,0.0,0.0,0.0,0.0,0.0,0.0,0.0,0.0,0.0,1.6072,1.52,0.0,0.0,0.0,0.0,0.0,0.0,0.0,0.0,0.0,0.0,0.0,0.0,0.0,0.0,0.0,0.0,0.0,0.0,0.0,0.0,0.0,2.4078,2.5357,2.615,2.6434,2.6032,2.6851,2.7323,2.7211,2.6687,0.0,0.0,0.0,2.5017,2.4487,2.4466,2.4446,2.439,2.4143,2.3809,2.3437,2.3274,2.2938,2.2426,2.1912,0.0,0.0,0.0,0.0,0.0,0.0,0.0,0.0,0.0,0.0,0.0,0.0,0.0,0.0,0.0,0.0,0.0,0.0,0.0,0.0,0.0,0.0,0.0,0.0,0.0,0.0,0.0,0.0,0.0,0.0,0.0,0.0,0.0,0.0,0.0,0.0,0.0,0.0,0.0,0.0,0.0,0.0,0.0,0.0,0.0,0.0,0.0,0.0,0.0,0.0,0.0,0.0,0.0,0.0,0.0,0.0,0.0,0.0,0.0,0.0,0.0,0.0,0.0,1.9678,1.9643,1.9712,1.9561,1.9223,1.8701,1.736,1.6354,1.5673,1.5636,0.0,0.0,0.0,0.0,0.0,0.0,0.0,0.0,0.0,0.0,0.0,0.0,0.0,0.0,0.0,0.0,0.0,0.0,0.0,2.4648,2.5422,2.6115,2.6477,2.6418,2.7699,2.8253,2.7655,2.8112,0.0,0.0,2.6867,2.6303,2.5195,2.5158,2.504,2.4803,2.534,2.5597,2.5576,2.4765,2.4037,2.3399,2.2912,2.2709,2.2686,0.0,0.0,0.0,0.0,0.0,0.0,0.0,0.0,0.0,0.0,0.0,0.0,0.0,0.0,0.0,0.0,0.0,0.0,0.0,0.0,0.0,0.0,0.0,0.0,0.0,0.0,0.0,0.0,0.0,0.0,0.0,0.0,0.0,0.0,0.0,0.0,0.0,0.0,0.0,0.0,0.0,2.2013,2.1299,0.0,0.0,0.0,0.0,0.0,0.0,0.0,0.0,0.0,0.0,0.0,0.0,0.0,2.1777,2.1809,2.1809,2.1957,2.2219,2.16,2.1483,2.1784,2.1012,2.0366,1.9805,1.9572,0.0,1.7513,1.7032,0.0,0.0,0.0,0.0,0.0,0.0,0.0,0.0,0.0,0.0,0.0,0.0,0.0,0.0,0.0,0.0,0.0,0.0,0.0,0.0,0.0,2.6857,2.7125,2.6864,2.7827,2.8518,2.8657,2.8575,2.8514,2.8437,2.8046,2.7486,2.6713,2.6254,2.597,2.5865,2.6343,2.6588,2.6588,2.5515,2.4846,2.4557,2.4339,2.374,2.2889,2.2686,0.0,0.0,0.0,0.0,0.0,0.0,0.0,0.0,0.0,0.0,0.0,0.0,0.0,0.0,0.0,0.0,0.0,0.0,0.0,0.0,0.0,0.0,0.0,0.0,0.0,0.0,0.0,0.0,0.0,0.0,0.0,0.0,0.0,0.0,0.0,0.0,0.0,0.0,0.0,2.3157,2.3065,2.2689,2.2671,2.2312,0.0,0.0,0.0,0.0,0.0,0.0,0.0,0.0,0.0,2.2116,2.2284,2.2387,2.248,2.2491,2.2697,2.3156,2.282,2.2761,2.2924,2.2524,2.1901,2.1085,2.1396,2.1018,2.0053,1.8791,1.7779,1.6977,0.0,0.0,0.0,0.0,1.497,1.4979,0.0,0.0,0.0,0.0,0.0,0.0,0.0,0.0,0.0,0.0,0.0,0.0,2.6858,2.7368,2.7503,2.7096,2.774,2.8405,2.8957,2.8674,2.8785,2.944,2.8777,2.8204,2.779,2.7098,2.6941,2.7336,2.757,2.7539,2.7259,2.625,2.5601,2.5296,2.5296,2.4622,2.3518,2.3384,2.3136,0.0,0.0,0.0,0.0,0.0,0.0,0.0,0.0,0.0,0.0,0.0,0.0,0.0,0.0,0.0,0.0,0.0,0.0,0.0,0.0,0.0,0.0,0.0,0.0,0.0,0.0,0.0,0.0,0.0,0.0,0.0,0.0,0.0,0.0,0.0,0.0,0.0,0.0,2.4497,2.4318,2.4204,2.3998,2.3421,0.0,0.0,0.0,0.0,0.0,0.0,2.2785,2.297,2.3109,2.3236,2.3456,2.3525,2.3433,2.3433,2.3595,2.3968,2.3768,2.3732,2.3838,2.3594,2.3075,2.2328,2.2741,2.2615,2.1999,2.033,1.9184,1.8364,1.77,1.7135,1.6658,1.6256,1.6106,1.6128,0.0,0.0,0.0,0.0,0.0,0.0,0.0,0.0,0.0,0.0,0.0,2.7222,2.7024,2.72,2.72,2.6927,2.7469,2.7839,0.0,2.8568,2.9091,2.9383,2.8698,2.8106,2.7705,2.735,2.7874,2.9337,2.931,2.8763,2.7753,2.7248,2.6397,2.5296,2.5296,2.5259,2.5148,2.4716,2.4515,2.4388,0.0,0.0,0.0,0.0,0.0,0.0,0.0,0.0,0.0,0.0,0.0,0.0,0.0,0.0,0.0,0.0,0.0,0.0,0.0,0.0,0.0,0.0,0.0,0.0,0.0,0.0,0.0,0.0,0.0,0.0,0.0,0.0,0.0,0.0,0.0,0.0,0.0,0.0,0.0,2.539,2.529,0.0,0.0,0.0,0.0,2.2695,2.2661,2.2819,2.3169,2.3673,2.4178,2.466,2.548,2.5767,2.5376,2.5376,2.5323,2.5205,2.4504,2.4347,2.4707,2.3873,2.3467,2.3421,2.3455,2.3156,2.2559,2.1453,2.0555,1.9792,1.8731,1.7892,1.7243,1.7243,1.7211,1.7274,0.0,0.0,0.0,0.0,0.0,2.3152,2.4609,2.4972,2.5624,2.7158,2.7578,2.771,2.7654,2.7666,2.7636,2.7489,2.7687,2.7973,2.8412,2.8509,2.8801,2.9372,2.8984,2.868,2.8548,2.8881,2.9343,2.988,2.9573,2.9187,2.8803,2.7377,2.6474,2.6089,2.6602,2.6678,2.6358,2.5882,2.5266,2.4552,2.4171,2.3457,0.0,0.0,0.0,0.0,0.0,0.0,0.0,0.0,0.0,0.0,0.0,0.0,0.0,0.0,0.0,0.0,0.0,0.0,0.0,0.0,0.0,0.0,0.0,0.0,0.0,0.0,0.0,0.0,0.0,0.0,0.0,0.0,0.0,0.0,0.0,0.0,0.0,2.7025,2.6998,0.0,2.5578,2.5303,2.5121,2.4898,2.4886,2.5088,2.5564,2.5755,2.5946,2.6149,2.6439,2.6572,2.6411,2.6065,2.5864,2.5817,2.5195,2.4969,2.5111,2.4803,2.446,2.4164,2.4495,2.4341,2.382,2.3132,2.2197,2.1148,2.0402,1.976,1.919,1.8838,1.8709,1.8731,0.0,0.0,0.0,0.0,2.2777,2.3406,2.5138,2.5433,2.61,2.7861,2.8134,2.8106,2.8051,2.8047,2.8006,2.7883,2.7855,2.8023,2.8478,2.8159,2.8298,2.9024,2.9021,2.8993,2.8993,2.9719,3.0207,3.048,3.0174,2.9673,2.9019,2.7755,2.6916,2.6512,2.7049,2.7304,2.7334,2.701,2.635,2.5516,2.5304,2.4634,2.3722,0.0,0.0,0.0,0.0,0.0,0.0,0.0,0.0,0.0,0.0,0.0,0.0,0.0,0.0,0.0,0.0,0.0,0.0,0.0,0.0,0.0,0.0,0.0,0.0,0.0,0.0,0.0,0.0,0.0,0.0,0.0,0.0,0.0,0.0,2.8255,2.822,2.8332,2.8233,2.791,2.7211,2.6957,2.6776,2.6664,2.648,2.6538,2.6873,2.7066,2.7162,2.7162,2.7342,2.7342,2.7162,2.6659,2.6286,2.6093,2.5564,2.5312,2.5312,2.5312,2.5119,2.4807,2.5155,2.5107,2.4759,2.4422,2.3685,2.2674,2.1681,2.1113,2.0793,2.0259,2.0074,2.0074,0.0,0.0,0.0,2.2699,2.2936,2.3633,2.5178,2.5666,2.6389,2.7933,2.8417,2.8482,2.817,2.8298,2.8316,2.8051,2.7968,2.794,2.7926,2.7545,2.7648,2.8363,2.8766,2.8976,2.9045,2.9736,3.0463,3.121,3.1173,3.0222,2.845,2.84,2.772,2.6535,2.6535,2.7064,2.7971,2.8025,2.7802,2.7357,2.671,2.6115,2.5565,0.0,0.0,0.0,0.0,0.0,0.0,0.0,0.0,0.0,0.0,0.0,0.0,0.0,0.0,0.0,0.0,0.0,0.0,0.0,0.0,0.0,0.0,0.0,0.0,0.0,0.0,0.0,0.0,0.0,0.0,0.0,0.0,0.0,2.9631,2.9362,2.9215,2.9281,2.9026,2.882,2.8892,2.8317,2.7951,2.7914,2.7371,2.7021,2.6983,2.7464,2.7741,2.7753,2.8246,2.827,2.7714,2.7174,2.6621,2.6117,2.5564,2.5312,2.5312,2.5312,2.5312,2.5312,2.5312,2.5312,2.5312,2.5288,2.4987,2.4352,2.2491,2.1833,2.1889,2.1406,2.1221,2.1285,0.0,0.0,2.2699,2.2699,2.3214,2.4086,2.5539,2.6282,2.7164,2.8573,2.8827,2.8839,2.8749,2.8803,2.8791,2.8663,2.8639,2.8601,2.8551,2.8224,2.8187,2.8526,2.8424,2.8867,2.9993,3.0122,3.0544,3.1274,3.0688,3.0135,2.9602,2.8489,2.7778,2.7452,2.7452,2.7394,2.7434,2.8535,2.8549,2.7793,2.7319,2.6742,2.6108,0.0,0.0,0.0,0.0,0.0,0.0,0.0,0.0,0.0,0.0,0.0,0.0,0.0,0.0,0.0,0.0,0.0,0.0,0.0,0.0,0.0,0.0,0.0,0.0,0.0,0.0,0.0,0.0,0.0,0.0,0.0,3.0202,3.052,3.0298,3.0577,3.103,3.1463,3.1431,3.1378,3.1402,3.1227,3.096,3.0522,3.0054,2.9618,2.9163,2.8992,2.8741,2.8294,2.8426,2.8438,2.8294,2.7354,2.6825,2.6657,2.5757,2.5312,2.5312,2.5312,2.5312,2.5312,2.5312,2.5312,2.5276,2.4891,2.4879,2.4975,2.3718,2.3009,2.2638,2.2127,2.1937,2.1937,0.0,2.2646,2.2699,2.2699,2.3396,2.4357,2.5511,2.6525,2.7572,2.87,2.8929,2.9005,2.9005,2.9005,2.8975,2.894,2.894,2.8935,2.89,2.886,2.8979,2.9297,2.9423,2.9899,3.0803,3.092,3.1155,3.1584,3.0963,3.0527,3.0206,2.9305,2.8523,2.7929,2.7929,2.7667,2.7302,2.8517,2.88,2.8414,2.8453,2.7974,2.7172,2.6572,2.6357,2.628,2.5736,2.5381,2.52,2.52,0.0,0.0,0.0,0.0,0.0,0.0,0.0,0.0,0.0,0.0,0.0,0.0,0.0,0.0,0.0,0.0,0.0,0.0,0.0,0.0,0.0,0.0,0.0,0.0,3.1634,3.1972,3.1764,3.1734,3.1933,3.2523,3.2492,3.2478,3.2763,3.2555,3.2254,3.1915,3.1439,3.0994,3.0657,3.0405,3.0037,2.951,2.925,2.9106,2.8988,2.7669,2.7073,2.7136,2.5973,2.543,2.5418,2.5347,2.5312,2.5312,2.5312,2.5312,2.5288,2.4975,2.5035,2.518,0.0,0.0,0.0,0.0,2.2197,2.2197,0.0,2.2646,2.2733,2.2802,2.3641,2.4576,2.5411,2.6616,2.7705,2.8498,2.8803,2.897,2.8994,2.9005,2.9005,2.9005,2.9005,2.9042,0.0,0.0,0.0,3.0487,3.1104,3.1464,3.1552,3.1863,3.2021,3.2021,3.1671,3.1175,3.0528,3.0442,2.9673,2.8357,2.8271,2.7996,2.7658,2.8394,2.8849,2.9132,2.9753,2.9384,2.8415,2.7813,2.755,2.7426,2.6826,2.6329,2.5912,2.592,0.0,0.0,0.0,0.0,0.0,0.0,0.0,0.0,0.0,0.0,0.0,0.0,0.0,0.0,0.0,0.0,0.0,0.0,0.0,0.0,0.0,0.0,0.0,0.0,3.3093,3.3518,3.359,3.285,3.2462,3.3021,3.2809,3.2851,3.3353,3.2925,3.2627,3.2627,3.2096,3.1719,3.1646,3.1609,0.0,0.0,0.0,3.0063,2.9884,2.8275,2.7533,2.7607,2.6366,2.5711,2.5641,2.5453,2.5382,2.5382,2.5382,2.5382,2.5382,2.5382,2.5346,2.5118,2.3661,2.3312,2.3505,2.2534,2.2197,2.2197,0.0,2.2623,2.2888,2.3491,2.4275,2.5195,2.6212,2.7095,2.7864,2.852,2.8657,2.8755,2.8982,2.9005,2.9005,2.9005,2.9005,2.928,0.0,0.0,3.0365,3.1686,3.1685,3.1923,3.2513,3.2298,3.2144,3.2144,3.1709,3.143,3.1259,3.0681,3.0237,2.9929,2.9331,2.9022,2.8968,2.9717,2.9848,2.9646,3.0325,3.0,2.9035,2.884,2.8545,2.8196,2.8057,2.7939,2.7876,2.798,2.7305,2.6567,2.727,0.0,0.0,0.0,0.0,0.0,0.0,0.0,0.0,0.0,0.0,0.0,0.0,0.0,0.0,0.0,0.0,0.0,0.0,0.0,0.0,3.3166,3.3416,3.3678,3.4167,3.4057,3.3979,3.411,3.4057,3.4066,3.4182,3.4079,3.4011,3.4011,3.3604,3.3122,3.2648,3.2349,3.1951,3.1389,3.1278,3.1204,3.1167,2.984,2.897,2.8458,2.7243,0.0,2.5828,2.5793,2.5793,2.5793,2.5793,2.5793,2.5793,2.5793,2.5536,2.5037,2.4038,2.3192,2.2474,2.227,2.2197,2.2197,2.3266,2.3608,2.3971,2.4336,2.504,2.5722,2.6263,2.7122,2.78,2.811,2.8273,2.8469,2.8767,2.8791,2.8791,2.8791,2.9174,0.0,0.0,3.1038,3.1709,3.2894,3.2665,3.2682,3.3029,3.2519,3.2249,3.2249,3.1856,3.1651,3.1651,3.1256,3.0897,3.0536,3.0176,2.9781,2.9454,3.0227,3.0409,3.0275,3.0932,3.0751,2.9994,2.9635,2.9241,2.8881,2.8865,2.874,2.8604,2.8684,2.8293,2.7941,2.87,2.8654,2.8263,0.0,0.0,0.0,0.0,0.0,0.0,0.0,0.0,0.0,0.0,0.0,0.0,0.0,0.0,3.1845,3.2788,0.0,3.3674,3.4346,3.4448,3.4448,3.4414,3.4414,3.4414,3.4414,3.4414,3.4414,3.4414,3.4414,3.4414,3.4414,3.4196,3.3977,3.3673,3.35,3.3157,3.2684,3.2349,3.2169,3.211,3.0895,3.0024,2.95,2.8499,2.7509,2.653,2.6461,2.6233,2.591,2.591,2.591,2.591,2.591,2.5431,2.4669,2.4201,2.3551,2.2809,2.2542,2.2445,2.2445,2.4161,2.4874,2.5311,2.5232,2.5712,2.6146,2.6316,2.7063,2.7627,2.7701,2.7883,2.8129,2.8469,2.8495,2.8495,0.0,0.0,0.0,0.0,3.2059,3.2852,3.3671,3.3451,3.3276,3.3199,3.262,3.2301,3.2301,3.1948,3.18,3.18,3.18,3.1472,3.0903,3.0903,3.0541,2.9989,3.0627,3.0903,3.0955,3.1449,3.1413,3.1013,3.0452,2.9881,2.9384,2.9341,2.9114,2.8794,2.8818,2.8826,2.8951,2.9656,2.9806,2.9716,2.9475,2.9718,0.0,0.0,0.0,0.0,0.0,0.0,0.0,0.0,3.0514,3.1092,3.1455,3.2251,3.3282,3.4545,3.4777,3.4951,3.5494,3.5581,3.5363,3.469,3.4603,3.4559,3.4428,3.4414,3.4414,3.4414,3.4414,3.4414,3.4414,3.4414,3.4414,3.4414,3.4414,3.423,3.3908,3.3451,3.3136,3.3023,3.1949,3.1123,3.0515,2.9786,2.8745,2.7451,2.7291,2.6934,2.6393,2.6393,2.6336,2.6233,2.6358,2.5811,2.49,2.4688,2.4339,2.3847,2.3016,2.272,2.272,0.0,2.5899,2.6399,2.6031,2.6042,2.635,2.7057,2.7261,2.7436,2.7672,2.7745,2.784,2.8129,2.8156,2.8156,0.0,0.0,0.0,3.098,3.1746,3.2512,3.3328,3.3321,3.3154,3.2858,3.2487,3.2301,3.2301,3.1948,3.18,3.18,3.18,3.1765,3.1679,3.1679,3.1627,3.1541,3.1627,3.1679,3.1679,3.1747,3.1746,3.169,3.1487,3.0571,2.9406,2.9384,2.9152,2.8818,2.8865,2.8897,2.9046,2.9887,3.0542,3.0998,3.0973,3.1207,3.131,3.0557,3.0532,3.0585,3.0184,3.0952,3.1869,0.0,3.2225,3.2788,3.4506,3.4486,3.4588,3.5865,3.6098,3.6112,3.6199,3.6199,3.5981,3.5378,3.529,3.5087,3.4486,3.4414,3.4414,3.4414,3.4414,3.4414,3.4414,3.4414,3.4414,3.4414,3.4414,3.438,3.4346,3.4264,3.423,3.4196,3.3528,3.2597,3.1363,3.0685,2.9642,2.833,2.833,2.8266,2.8201,2.8201,2.7855,2.7384,2.7953,2.7775,2.7018,2.6018,2.5608,2.5301,2.3417,2.272,2.272,0.0,2.5537,2.6318,2.6433,2.6639,2.6902,2.7263,2.7299,2.7345,2.7434,2.7465,2.7569,2.7844,2.7869,2.794,2.8088,0.0,0.0,3.0718,3.1938,3.2784,3.3157,3.3006,3.283,3.2685,3.237,3.2179,3.2179,3.2037,3.1965,3.1965,3.1965,3.1929,3.1892,3.2341,3.2511,3.2472,3.2938,3.3128,3.3128,3.3128,3.2852,3.2438,3.2381,3.1554,3.0365,3.0339,2.9908,0.0,0.0,2.9227,2.9139,2.9959,3.0394,3.0686,3.1097,3.1303,0.0,3.0752,3.1241,3.1897,3.1732,3.2196,3.2855,3.3608,3.3877,3.4183,3.5004,3.5292,3.5658,3.6599,3.6835,3.6881,3.6881,3.6881,3.6533,3.5537,3.5392,3.516,3.4486,3.4414,3.4414,3.4414,3.4414,3.4414,3.4414,3.4414,3.4414,3.4414,3.4414,3.4414,3.4414,3.4414,3.4414,3.4414,3.4153,3.3368,3.208,3.1793,3.0772,2.9125,2.9125,2.8921,2.8492,2.8492,2.833,2.8117,2.8363,2.8142,2.7554,2.7104,2.6488,2.5611,2.3657,2.2939,2.2939,0.0,2.507,2.5979,2.6453,2.6858,2.7169,2.7283,2.7299,2.7299,2.7299,2.7299,2.7376,2.7569,2.7585,2.7672,2.7855,0.0,0.0,0.0,3.199,3.2912,3.2961,3.2737,3.2556,3.2472,3.2232,3.2195,3.2404,3.2404,3.2526,3.2735,3.2735,3.2681,3.2625,3.3198,3.3384,3.3287,3.3893,3.4116,3.4113,3.4113,3.3749,3.3214,3.299,3.2351,3.1548,3.1168,3.0497,0.0,0.0,2.9355,2.9161,2.9501,2.9903,3.0315,3.078,3.1207,3.1489,3.1383,3.2044,3.2765,3.2683,3.3057,3.3625,3.432,3.4896,3.5291,3.5489,3.5939,3.6537,3.7213,3.7422,3.7587,3.7893,3.777,3.7281,3.6217,3.5932,3.5501,3.4636,3.4534,3.4534,3.4534,3.4433,3.4414,3.4414,3.4414,3.4414,3.4414,3.4414,3.4414,3.4414,3.4414,3.4414,3.4414,3.4414,3.3775,3.2481,3.2481,3.1565,2.987,2.987,2.9577,2.9079,2.9079,2.8985,2.8826,2.9016,2.8754,2.8216,2.802,2.7429,2.6446,2.4543,2.3777,2.3619,0.0,0.0,2.5575,2.605,2.6453,2.6842,2.7234,2.7299,2.7299,2.7299,2.7299,2.7297,2.7297,2.7297,2.733,0.0,0.0,0.0,3.0194,3.1722,3.2605,3.2622,3.2606,3.2455,3.2126,3.2108,3.2456,3.3169,3.3169,3.3571,3.4337,3.4337,3.4318,3.4318,3.4352,3.4278,3.4164,3.4198,3.4157,3.4113,3.4113,3.4096,3.3992,3.3197,3.2867,3.2689,3.1531,0.0,0.0,2.9043,2.8938,2.8988,2.8363,2.9113,0.0,3.022,3.12,3.2418,3.3056,3.3251,3.316,3.2711,3.3609,3.4455,3.4014,3.4941,3.6048,3.673,3.6864,3.7089,3.7847,3.7994,3.8308,3.9349,3.8921,3.8296,3.7888,3.7257,3.6359,3.5049,3.4902,3.4902,3.4902,3.4601,3.4414,3.4414,3.4414,3.4414,3.4414,3.4414,3.4414,3.4414,3.4414,3.4414,3.4414,3.4414,3.3775,3.2481,3.2481,3.183,3.0568,3.0568,3.0568,3.0538,3.0538,3.016,2.9623,3.0251,3.0146,2.9462,2.8902,2.8649,2.8406,2.6519,2.5453,2.4951,0.0,0.0,0.0,2.5596,2.5817,2.6034,2.6436,2.6957,2.7299,2.7299,2.7299,0.0,0.0,0.0,0.0,0.0,0.0,0.0,2.9969,3.1019,3.186,3.2439,3.2456,3.2405,3.2301,3.2792,3.3159,3.3387,3.393,3.4332,3.4595,3.4595,3.454,3.4501,3.5006,3.5174,3.5094,3.5615,3.6076,3.6371,3.589,3.5638,3.5473,3.4714,3.4111,3.3557,0.0,0.0,0.0,3.0075,2.9772,2.9467,2.8928,2.9082,2.9461,2.9461,3.0796,3.2244,3.1981,3.2598,3.3403,3.3899,3.4315,3.4944,3.5918,3.6489,3.7028,3.7741,3.7976,3.8107,3.8353,3.8818,3.9327,3.9677,3.9956,3.9906,3.9369,3.8674,3.7895,3.7056,3.6529,3.6217,3.6217,3.5335,3.4735,3.4735,3.465,3.465,3.4735,3.4501,3.4448,3.4597,3.4481,3.4414,3.4414,3.4414,3.3775,3.2481,3.1642,3.1019,3.0598,3.0598,3.0598,3.0598,3.0598,3.0477,3.0282,3.0507,3.0477,3.0237,3.0051,2.9691,2.923,2.8582,2.7968,2.723,0.0,0.0,0.0,0.0,0.0,0.0,0.0,0.0,0.0,0.0,0.0,0.0,0.0,0.0,0.0,0.0,0.0,0.0,0.0,0.0,3.1512,3.2371,3.2406,3.2563,3.2878,3.3371,3.3882,3.4428,3.4957,3.5447,3.5917,3.5917,3.6019,3.6241,3.6766,3.6916,3.6798,3.7059,3.7363,3.7606,3.6877,3.6523,3.6374,3.5572,3.4964,0.0,0.0,0.0,0.0,3.0508,2.9969,2.9673,2.8958,2.9136,2.9665,2.9801,3.1148,3.2506,3.2174,3.2803,3.3728,3.4332,3.4663,3.5149,3.6255,3.6729,3.7117,3.7857,3.8075,3.8216,3.8531,3.8999,3.958,4.0195,4.0473,4.0598,4.0578,3.9949,3.9239,3.8623,3.8119,3.7819,3.7819,3.7046,3.6195,3.5322,3.5188,3.5052,3.4916,3.4702,3.465,3.475,3.465,3.4549,3.4515,3.4282,3.346,3.2118,3.1212,3.0732,3.0672,3.0762,3.0791,3.0791,3.0791,3.0791,3.0791,3.0791,3.0791,3.0791,3.0791,3.0513,3.0119,2.9886,2.9535,2.8911,0.0,0.0,0.0,0.0,0.0,0.0,0.0,0.0,0.0,0.0,0.0,0.0,0.0,0.0,0.0,0.0,0.0,0.0,0.0,0.0,0.0,3.2353,3.2441,3.2896,3.3773,3.388,3.4641,3.613,3.6147,3.6813,3.8058,3.8058,3.8462,3.9178,3.9178,3.9119,3.8944,3.8248,3.7888,3.7749,3.7001,3.6719,3.6626,3.5815,0.0,0.0,0.0,0.0,0.0,3.0449,2.9728,2.9728,2.8621,2.936,3.0734,3.1116,3.2119,3.3178,3.3572,3.3866,3.4101,3.4126,3.4603,3.5079,3.5127,3.5687,3.64,3.7188,3.735,3.7616,0.0,3.8686,3.9269,4.0934,4.0674,4.061,4.1565,4.1069,4.0373,3.9723,3.9643,0.0,3.9612,3.9612,3.8635,3.6297,3.6024,3.568,3.5075,3.4949,3.4902,3.4935,3.4902,3.4835,3.4698,3.3995,3.2937,3.1511,3.1233,3.0984,3.0821,3.1014,3.1117,3.1117,3.1117,3.1117,3.1117,3.1117,3.1117,3.1117,3.1117,3.1117,3.1028,3.0394,3.0143,2.9938,0.0,0.0,0.0,0.0,0.0,0.0,0.0,0.0,0.0,0.0,0.0,0.0,0.0,0.0,0.0,0.0,0.0,0.0,0.0,0.0,0.0,0.0,0.0,0.0,3.3791,3.4925,0.0,0.0,0.0,3.7171,3.7503,3.7347,3.7393,3.7584,3.7584,3.7567,3.7509,3.7336,3.7519,3.7868,0.0,3.6915,3.7124,0.0,0.0,0.0,0.0,0.0,0.0,0.0,3.1973,3.1357,3.0854,3.0998,3.139,3.1702,3.2433,3.3129,3.3234,3.3671,3.4151,3.4349,3.4546,3.4832,3.5588,3.5918,3.6412,3.7696,3.7959,3.8212,3.8975,3.998,4.0828,4.1292,4.2097,4.2818,4.3045,4.2496,0.0,4.1817,4.131,4.0988,4.0988,4.0988,4.0526,3.9416,3.7809,3.6873,3.685,3.5601,3.4968,3.5115,3.4968,3.4902,3.4835,3.375,3.2748,3.1879,3.1353,3.1087,3.1014,3.1087,3.1117,3.1117,3.1117,3.1117,3.1117,3.1117,3.1117,3.1117,3.1117,3.1117,3.1087,3.0925,3.0851,3.0733,0.0,0.0,0.0,0.0,0.0,0.0,0.0,0.0,0.0,0.0,0.0,0.0,0.0,0.0,0.0,0.0,0.0,0.0,0.0,0.0,0.0,0.0,0.0,3.3794,3.4443,3.5616,0.0,0.0,0.0,0.0,0.0,3.7578,3.7672,3.8006,3.7845,3.7784,3.7766,3.7273,0.0,0.0,0.0,0.0,0.0,0.0,0.0,0.0,0.0,0.0,0.0,0.0,0.0,3.2289,3.2265,3.2547,3.2886,3.291,3.3372,3.3867,3.3746,3.4064,3.4497,3.4643,3.4683,3.4913,3.5802,3.6009,3.6423,3.7914,3.8186,3.8427,3.9166,4.0199,4.1061,4.1331,4.2357,0.0,4.3549,4.3265,4.3035,0.0,4.2663,0.0,4.2412,4.2412,4.2137,4.1441,3.9377,3.7979,3.751,3.6548,3.5913,3.5735,3.5623,3.5128,3.4206,3.3171,3.2313,3.1588,3.1368,3.1249,3.119,3.1249,3.1278,3.1278,3.1278,3.1278,3.1278,3.1278,3.1278,3.1278,3.1278,3.1278,3.1278,3.1278,3.1278,3.1219,0.0,0.0,0.0,0.0,0.0,0.0,0.0,0.0,0.0,0.0,0.0,0.0,0.0,0.0,0.0,0.0,0.0,0.0,0.0,0.0,0.0,0.0,0.0,0.0,3.5101,3.5936,0.0,0.0,0.0,0.0,0.0,0.0,0.0,0.0,0.0,0.0,0.0,0.0,0.0,0.0,0.0,0.0,0.0,0.0,0.0,0.0,0.0,0.0,0.0,0.0,3.3395,3.3013,3.3315,3.3999,3.4628,3.4512,3.4742,3.5,3.4766,3.4797,3.4899,3.4899,3.4899,3.5081,3.5827,3.6009,3.6423,3.7914,3.8186,3.8427,3.9166,3.9912,4.0641,4.1293,4.2009,4.2754,4.3499,4.3598,4.3598,4.3598,4.3598,4.3598,4.3598,4.3499,4.3184,4.2539,4.0665,3.8998,3.781,3.7523,3.71,3.6415,3.6384,3.5447,3.3441,3.2721,3.199,3.1278,3.1496,3.1553,3.1452,3.1582,3.1611,3.1611,3.1524,3.1511,3.1511,3.1511,3.1511,3.1511,3.1511,3.1511,3.1511,3.1511,3.1511,3.1511,0.0,0.0,0.0,0.0,0.0,0.0,0.0,0.0,0.0,0.0,2.6567,2.7418,0.0,0.0,0.0,0.0,0.0,0.0,0.0,0.0,0.0,0.0,0.0,0.0,0.0,0.0,0.0,0.0,0.0,0.0,0.0,0.0,0.0,0.0,0.0,0.0,0.0,0.0,0.0,0.0,0.0,0.0,0.0,0.0,0.0,0.0,0.0,0.0,0.0,0.0,3.4095,3.4292,3.4946,3.5274,3.5563,3.6347,3.6199,3.581,3.5761,3.5339,3.4899,3.4899,3.4899,3.5081,3.5827,3.6009,0.0,3.7914,3.8186,3.8427,3.9166,3.9912,4.0641,4.1293,4.2009,4.2754,4.3499,4.3598,4.3598,0.0,4.3598,4.3598,4.3598,4.3035,4.2638,4.2506,4.1094,3.9887,3.913,3.8016,3.7087,3.6344,3.6315,3.5582,3.4063,3.3488,3.2861,3.2176,3.2231,3.2231,3.2203,3.2231,3.2231,3.2203,3.1726,3.1511,3.1511,3.1511,3.1511,3.1511,3.1511,3.1511,3.1511,3.1511,3.1511,3.1511,0.0,0.0,0.0,0.0,0.0,0.0,0.0,2.4695,2.5713,2.6765,2.7551,2.8186,2.8586,2.9039,2.9526,0.0,0.0,0.0,0.0,0.0,0.0,0.0,0.0,0.0,0.0,0.0,0.0,0.0,0.0,0.0,0.0,0.0,0.0,0.0,0.0,0.0,0.0,0.0,0.0,0.0,0.0,0.0,0.0,0.0,0.0,0.0,0.0,0.0,0.0,0.0,3.4709,3.4652,3.5539,3.5795,3.5968,3.6836,3.6589,3.6009,3.6009,3.5744,3.5462,3.5462,3.5181,3.5297,3.6804,0.0,0.0,3.846,3.8758,3.8874,3.9232,3.9912,4.0525,4.0829,4.1475,4.2175,4.292,4.3019,4.3168,4.3549,4.3598,4.3598,4.3598,4.292,4.2324,4.1972,4.0978,4.0127,3.9421,3.8425,3.7546,3.6802,3.643,3.5577,3.4191,3.3595,3.3142,3.2815,3.2815,3.2815,3.2815,3.2815,3.2668,3.2398,3.2394,3.2244,3.1979,3.2256,3.2216,3.1966,3.1966,3.1783,3.1511,3.1511,3.1511,3.1511,0.0,0.0,0.0,0.0,0.0,0.0,0.0,2.4418,2.5673,2.7608,2.844,2.9077,2.9626,3.0077,3.0449,0.0,0.0,0.0,0.0,0.0,0.0,0.0,0.0,0.0,0.0,0.0,0.0,0.0,0.0,0.0,0.0,0.0,0.0,0.0,0.0,0.0,0.0,0.0,0.0,0.0,0.0,0.0,0.0,0.0,0.0,0.0,0.0,0.0,0.0,0.0,3.5251,3.4931,3.5555,3.5876,3.6141,3.6887,3.6688,3.6208,3.6042,3.6009,3.6009,3.6009,3.5446,3.5479,3.7715,3.7649,3.7516,3.9,3.9299,3.9299,3.9299,3.9779,4.0227,4.0376,4.0961,4.1674,4.239,4.2638,4.2936,4.3532,4.3449,0.0,4.335,4.2585,4.1823,4.1243,4.0547,3.9924,3.941,3.8669,3.7953,3.72,3.6505,3.558,3.4372,3.3693,3.3381,3.3381,3.3381,3.3381,3.3381,3.3381,3.3161,3.2792,3.3066,3.296,3.2586,3.3013,3.2933,3.2559,3.2559,3.2272,3.1866,3.1866,3.1866,3.1838,0.0,0.0,0.0,0.0,0.0,0.0,0.0,2.4046,2.5512,2.745,2.8313,2.9428,3.1348,3.1183,3.0979,0.0,0.0,0.0,0.0,0.0,0.0,0.0,0.0,0.0,0.0,0.0,0.0,0.0,0.0,0.0,0.0,0.0,0.0,0.0,0.0,0.0,0.0,0.0,0.0,0.0,0.0,0.0,0.0,0.0,0.0,0.0,0.0,0.0,0.0,0.0,0.0,3.5769,3.5181,3.5462,3.6141,3.6887,0.0,0.0,3.6191,3.6009,3.6009,3.6009,3.5446,3.5479,3.7715,0.0,3.7516,3.9,3.9299,3.9299,3.9299,3.9365,3.9613,4.0293,4.0961,4.1674,4.239,4.3069,4.3515,4.3582,0.0,0.0,4.2589,4.1375,4.0575,4.0509,3.9812,3.9371,3.9301,3.8613,3.7885,3.7116,3.6398,3.563,3.4838,3.4291,3.4009,3.4009,3.4009,3.4009,3.4009,3.4009,3.3984,3.3908,3.3423,3.3156,3.3145,3.3198,3.3156,3.3119,3.3119,3.3093,3.3039,3.3039,3.3039,3.296,0.0,0.0,0.0,0.0,0.0,0.0,2.221,2.2798,2.3985,2.6251,2.7163,2.8376,3.0396,3.0749,3.1004,3.1524,0.0,0.0,0.0,0.0,0.0,0.0,0.0,0.0,0.0,0.0,0.0,0.0,0.0,0.0,0.0,0.0,0.0,0.0,0.0,0.0,0.0,0.0,0.0,0.0,0.0,0.0,0.0,0.0,0.0,0.0,0.0,0.0,0.0,0.0,0.0,0.0,3.5309,3.5202,0.0,0.0,3.6439,3.6473,3.6622,3.6671,3.6771,3.7218,3.6771,3.6688,3.8444,3.8295,3.8063,3.91,3.9299,3.9299,3.9299,3.9299,3.9398,3.9696,3.9951,4.0382,4.1127,4.1839,4.2274,4.2274,4.2406,4.2324,4.1877,4.0961,4.0227,3.9779,3.9481,3.9116,3.8659,3.8361,3.7864,3.7119,3.639,3.5644,3.4899,3.4691,3.457,3.457,3.457,3.457,3.457,3.457,3.4399,3.4101,3.4193,3.4027,3.3764,3.4077,3.4027,3.3723,3.3723,3.3527,3.3182,3.3182,3.3182,3.3172,0.0,0.0,0.0,0.0,0.0,2.1171,2.1742,2.211,2.312,2.5423,2.6526,2.774,2.9479,3.0265,3.091,3.1609,3.1678,0.0,0.0,0.0,0.0,0.0,0.0,0.0,0.0,0.0,0.0,3.5748,0.0,0.0,0.0,0.0,0.0,0.0,0.0,0.0,0.0,0.0,0.0,0.0,0.0,0.0,0.0,0.0,0.0,0.0,0.0,0.0,0.0,0.0,0.0,0.0,0.0,0.0,0.0,0.0,3.5827,3.6075,3.6373,3.6622,3.6953,3.7673,3.7334,3.7218,3.8917,3.8725,3.8411,3.9149,3.9299,3.9299,3.9299,3.9299,3.9299,3.9299,3.9481,3.9879,4.058,4.1293,4.1794,4.2009,4.2109,4.196,4.1458,4.0597,3.9862,3.9332,3.9299,3.8984,3.8245,3.7971,3.7549,3.6804,3.6059,3.5429,3.4899,3.4899,3.4899,3.4899,3.4899,3.4899,3.4899,3.4899,3.4691,3.4349,3.4756,3.4691,3.4374,3.4739,3.4667,3.4325,3.4325,3.4093,3.3691,3.3691,3.3691,3.3665,0.0,0.0,0.0,0.0,0.0,0.0,2.1627,2.2326,2.3447,2.5259,2.6649,2.799,2.9261,3.0073,3.0741,3.135,3.1111,0.0,0.0,0.0,0.0,0.0,0.0,0.0,0.0,0.0,3.5813,3.7279,3.6011,3.6043,0.0,0.0,0.0,0.0,0.0,0.0,0.0,0.0,0.0,0.0,0.0,0.0,0.0,0.0,0.0,0.0,0.0,0.0,0.0,0.0,0.0,0.0,0.0,0.0,0.0,0.0,3.5429,3.5843,3.5114,3.5462,3.6191,3.6936,3.6555,3.6589,3.8801,3.8725,3.8411,3.9149,3.9299,3.9299,3.9299,3.9299,3.9299,3.9299,3.9912,4.0613,4.1309,4.2009,4.2754,4.3482,4.2291,4.1397,4.1409,4.0117,3.9315,3.9299,3.9299,3.8984,3.8245,3.7516,3.6771,3.6025,3.5297,3.4899,3.4899,3.4899,3.4899,3.4899,3.4899,3.4899,3.4899,3.4899,3.4899,3.4899,3.4899,3.4899,3.4899,3.4899,3.4899,3.4899,3.4899,3.4899,3.4899,3.4899,3.4899,3.4804,0.0,0.0,0.0,0.0,0.0,0.0,0.0,2.1549,2.2405,2.3393,2.4998,2.6375,2.7185,2.8232,2.9274,3.0275,3.0609,0.0,0.0,0.0,0.0,0.0,0.0,0.0,0.0,0.0,3.403,3.4912,3.4969,3.5195,3.5565,3.4727,3.4334,0.0,0.0,0.0,0.0,0.0,0.0,0.0,0.0,0.0,0.0,0.0,0.0,0.0,0.0,0.0,0.0,0.0,0.0,0.0,0.0,0.0,0.0,0.0,0.0,0.0,3.5578,3.6191,3.6936,3.7682,3.8046,3.8453,3.9133,3.9133,3.9033,3.9249,3.9299,3.9299,3.9299,3.9299,3.9299,3.9299,3.9497,3.9912,4.0613,4.0912,4.1143,4.1392,4.0547,3.9951,3.9951,3.9564,3.9299,3.9299,3.8825,3.8228,3.75,3.6754,3.6241,3.6009,3.528,3.4899,3.4899,3.4899,3.4899,3.4899,3.4899,3.4899,3.4899,3.4899,3.4899,3.4899,3.4899,3.4899,3.4899,3.4899,3.4899,3.4899,3.4899,3.4899,3.4899,3.4899,3.4899,3.4875,0.0,0.0,0.0,0.0,0.0,0.0,0.0,2.1329,2.2021,2.2664,2.4395,2.5729,2.6175,2.7341,2.8597,2.9746,2.9947,0.0,0.0,0.0,0.0,0.0,0.0,0.0,0.0,3.2648,3.3328,3.4195,3.4394,3.4585,3.4784,3.4189,3.3867,3.3829,3.3414,0.0,0.0,0.0,0.0,0.0,0.0,0.0,0.0,0.0,0.0,0.0,0.0,0.0,0.0,0.0,0.0,0.0,0.0,0.0,0.0,0.0,3.425,3.4717,0.0,3.596,3.6744,3.759,3.8344,3.8967,3.9249,3.9299,3.9299,3.9299,3.9299,3.9299,3.9299,3.9299,3.9299,3.9299,3.9299,3.9564,4.031,4.0502,4.0631,4.0792,4.0284,3.9794,3.9554,3.9379,3.9299,3.9299,3.8626,3.7932,3.732,3.6595,3.6061,3.5771,3.5203,3.4899,3.4899,3.4899,3.4899,3.4899,3.4899,3.4899,3.4899,3.4899,3.4899,3.4899,3.4899,3.4899,0.0,3.4899,3.4899,3.4899,3.4899,3.4899,3.4899,3.4899,3.4899,3.4899,0.0,0.0,0.0,0.0,0.0,0.0,0.0,2.1513,2.2159,2.284,2.4597,2.5847,2.6029,2.7277,2.8525,2.9648,0.0,0.0,0.0,0.0,0.0,0.0,0.0,0.0,0.0,3.2757,3.3387,3.4633,3.4129,3.4129,3.4599,3.4095,3.3589,3.3049,3.3039,0.0,0.0,0.0,0.0,0.0,0.0,0.0,0.0,0.0,0.0,0.0,0.0,0.0,0.0,0.0,0.0,0.0,0.0,0.0,0.0,0.0,0.0,0.0,0.0,3.5078,3.5916,3.6901,3.7722,3.846,3.9149,3.9299,0.0,3.9299,3.9299,3.9299,3.9299,3.9325,3.9352,3.9352,3.9379,3.9628,4.0375,4.0766,4.1041,4.1384,4.1077,4.0608,4.0002,3.9616,3.9345,3.9295,3.8605,3.8011,3.7578,3.6845,3.6121,3.5464,3.5118,3.4923,3.4899,3.4899,3.4899,3.4899,3.4899,3.4899,3.4899,3.4899,3.4899,3.4899,3.4899,3.4899,3.4899,3.4899,3.4899,3.4899,3.4899,3.4899,3.4899,3.4899,3.4899,3.4899,0.0,0.0,0.0,0.0,0.0,0.0,0.0,0.0,0.0,0.0,2.4184,2.5667,2.5699,2.6876,2.8108,0.0,0.0,0.0,0.0,0.0,0.0,0.0,0.0,0.0,0.0,3.1371,3.2062,3.281,3.2668,3.2668,3.281,3.2668,3.2692,3.2758,3.2298,3.182,0.0,0.0,0.0,0.0,0.0,0.0,0.0,0.0,0.0,0.0,3.4447,3.4225,0.0,0.0,0.0,0.0,0.0,0.0,0.0,0.0,3.345,3.3666,3.4428,0.0,3.6619,3.7377,3.8302,3.91,0.0,3.9299,3.9299,3.9299,3.9299,3.9299,3.9299,3.9563,3.9772,3.9772,3.9978,4.0417,4.1155,4.1316,4.1171,4.0717,4.0574,4.0457,4.0286,4.0195,3.99,3.9333,3.8628,3.7888,3.7177,3.644,3.5963,3.5793,3.5453,3.5165,3.4899,3.4899,3.4899,3.4899,3.4899,3.4899,3.4899,3.4899,3.4899,3.4899,3.4899,3.4899,3.4899,3.4899,3.4899,3.4899,3.4899,3.4899,3.4899,3.4899,3.4899,3.4923,0.0,0.0,0.0,0.0,0.0,0.0,0.0,0.0,0.0,0.0,0.0,2.5383,2.5447,2.655,0.0,0.0,0.0,0.0,0.0,0.0,0.0,0.0,0.0,0.0,3.0338,3.0793,3.1321,3.1927,3.1927,3.1927,3.1927,3.1927,3.2059,3.2295,3.1492,3.1089,0.0,0.0,0.0,0.0,0.0,0.0,0.0,0.0,0.0,0.0,3.3196,3.3294,0.0,3.3309,3.3309,3.3309,0.0,0.0,0.0,0.0,3.3309,3.3556,3.4705,3.5653,3.648,3.7302,3.8308,3.9067,3.9067,3.9175,3.9352,0.0,0.0,0.0,3.9773,3.9978,4.0129,4.0129,4.0269,4.0603,4.1202,4.1278,4.1195,4.0989,4.0795,4.0683,4.0683,4.0206,3.9744,3.9327,3.8276,3.7541,3.7303,3.6569,3.6178,3.6178,3.6002,3.565,3.5142,3.5142,3.5142,3.5142,3.5142,3.5142,3.5118,3.4954,3.4899,3.4899,3.4899,3.4899,3.4899,3.4899,3.4899,3.4899,3.4899,3.4899,3.4899,3.4899,3.4947,3.4994,0.0,0.0,0.0,0.0,0.0,0.0,0.0,0.0,0.0,0.0,0.0,0.0,0.0,0.0,0.0,0.0,0.0,0.0,0.0,0.0,0.0,0.0,0.0,3.0113,3.0641,3.0783,3.1089,3.1609,3.1609,3.1609,3.1609,3.1609,3.1576,3.1545,3.0807,3.0431,0.0,0.0,0.0,0.0,0.0,0.0,0.0,0.0,0.0,0.0,0.0,0.0,0.0,3.3229,3.3256,3.3282,3.3282,0.0,0.0,0.0,0.0,0.0,3.5015,3.5558,3.5993,3.712,3.8116,3.8805,3.8805,0.0,0.0,0.0,0.0,0.0,0.0,4.0449,0.0,4.0473,4.0546,4.0707,4.1047,4.1094,4.1226,4.156,4.1295,4.1059,4.0938,4.0048,3.9397,3.9134,3.7922,3.7283,3.7494,3.6912,3.6585,3.6585,3.6523,3.6212,3.5583,3.5498,3.5476,3.5476,3.5476,3.5476,3.5476,3.5171,3.5048,3.5048,3.5048,0.0,3.4994,3.4994,3.4947,3.4899,3.4899,3.4954,3.5024,3.5024,3.5148,3.531,0.0,0.0,0.0,0.0,0.0,0.0,0.0,0.0,0.0,0.0,0.0,0.0,0.0,0.0,0.0,0.0,0.0,0.0,0.0,0.0,0.0,0.0,3.0315,3.0358,3.0438,3.1123,3.1516,3.1609,3.1609,3.1609,3.1609,3.1609,3.1063,3.0139,3.065,3.0621,3.0198,0.0,0.0,0.0,0.0,0.0,0.0,0.0,0.0,0.0,0.0,0.0,0.0,3.2951,3.3032,3.3123,3.3123,0.0,0.0,0.0,0.0,0.0,3.5015,3.5435,3.5848,3.7406,3.829,3.8805,3.8805,0.0,0.0,0.0,0.0,0.0,0.0,4.0683,4.0913,4.0913,4.1186,4.1431,4.1498,4.1515,4.1538,4.1604,4.156,4.1253,4.0644,4.0425,3.9752,3.8402,3.807,3.7688,3.7138,3.6981,3.6911,3.6911,3.6647,3.6461,3.6339,3.5989,3.582,3.582,3.582,3.582,3.582,3.5776,3.5754,3.5754,0.0,3.5594,3.531,3.531,3.5165,3.4899,3.4899,3.5178,3.5582,3.5582,3.5878,3.626,0.0,0.0,0.0,0.0,0.0,0.0,0.0,0.0,0.0,0.0,0.0,0.0,0.0,0.0,0.0,0.0,0.0,0.0,0.0,0.0,0.0,2.9907,2.9923,2.9965,3.0074,3.0532,3.0642,3.0362,3.0362,3.0533,3.08,3.1214,3.0983,3.0161,3.0619,3.0699,3.0445,0.0,0.0,0.0,0.0,0.0,0.0,0.0,0.0,0.0,0.0,0.0,0.0,0.0,3.2924,3.3005,3.3085,0.0,0.0,0.0,0.0,0.0,3.4525,3.5094,3.566,3.68,3.77,3.8411,3.8767,3.9269,0.0,0.0,0.0,0.0,0.0,4.1209,4.1318,4.1318,4.1475,4.1604,4.1604,4.1604,4.1446,4.1042,4.1007,4.0691,3.9937,3.9445,3.8901,3.8164,3.7725,3.7356,3.7025,3.7007,3.7007,3.7007,3.6849,3.6768,3.6768,3.6591,3.6409,3.622,3.622,3.622,3.622,3.5994,3.5907,3.5907,0.0,3.582,3.5683,3.5683,3.5571,3.5459,3.5554,3.5737,3.5981,3.6155,3.6405,3.6588,0.0,0.0,0.0,0.0,0.0,0.0,0.0,0.0,0.0,0.0,0.0,0.0,0.0,0.0,0.0,0.0,0.0,0.0,0.0,0.0,2.9401,2.9578,2.9488,2.9459,2.9538,2.971,2.9611,2.9239,2.9239,2.9526,3.0113,3.0861,3.0895,3.0342,3.0692,3.0751,3.0667,3.1007,0.0,0.0,0.0,0.0,0.0,0.0,0.0,0.0,0.0,0.0,0.0,0.0,0.0,0.0,0.0,0.0,0.0,3.3256,3.3309,3.3451,3.4115,3.4699,3.5328,3.6121,0.0,3.8016,3.8739,3.9192,0.0,0.0,0.0,0.0,0.0,4.1604,4.1604,4.1604,4.1604,4.1604,4.1604,4.1446,4.113,4.0573,4.0344,3.9901,3.9111,3.8462,3.8041,3.7865,3.7323,3.7007,3.7007,3.7007,3.7007,3.7007,3.7007,3.7007,3.7007,3.7007,3.6869,3.6626,3.6626,3.6626,3.6606,3.6287,3.6143,3.6143,3.6143,3.6101,3.6054,3.6054,3.5994,3.5929,3.6062,3.6253,3.646,3.6884,3.7057,3.7018,0.0,0.0,0.0,0.0,0.0,0.0,0.0,0.0,0.0,0.0,0.0,0.0,0.0,0.0,0.0,0.0,0.0,0.0,0.0,0.0,2.9202,2.9742,2.9429,2.9082,2.8803,2.879,2.8872,2.9035,2.9035,2.9369,3.0113,3.0712,3.0686,3.015,3.0932,3.0953,3.0491,3.1229,0.0,0.0,0.0,0.0,0.0,0.0,0.0,0.0,0.0,0.0,0.0,0.0,0.0,0.0,0.0,0.0,3.3123,3.3256,3.3309,3.3451,3.4115,3.4336,3.4662,3.5835,3.6869,0.0,3.8706,3.9303,0.0,4.0839,0.0,0.0,0.0,4.1604,4.1604,4.1604,4.1604,4.1604,4.1604,4.1007,4.0555,4.0502,3.9831,3.9076,3.8269,3.8146,3.783,3.713,3.7042,3.7007,3.7007,3.7007,3.7007,3.7007,3.7007,3.7007,3.7007,3.7007,3.6987,3.695,3.695,3.695,3.695,3.693,3.6911,3.6911,3.6911,3.6751,3.6444,3.6444,3.6241,3.5907,3.5929,3.6374,3.711,3.7828,3.8089,3.8003,0.0,0.0,0.0,0.0,0.0,0.0,0.0,0.0,0.0,0.0,0.0,0.0,0.0,0.0,0.0,0.0,0.0,0.0,0.0,0.0,2.816,2.8725,2.827,2.7952,2.7822,2.8058,2.8068,2.7756,2.8579,2.9139,2.9457,3.0505,3.0869,3.0673,3.0957,3.0968,3.0784,0.0,0.0,0.0,0.0,0.0,0.0,0.0,0.0,0.0,0.0,0.0,0.0,0.0,3.212,3.2496,0.0,3.2827,3.3005,3.3139,3.3229,3.3356,3.3609,3.432,3.5058,3.5416,3.6349,0.0,0.0,3.9326,3.9812,4.1115,4.1475,0.0,0.0,4.1604,4.1604,4.1604,4.1218,4.0924,4.0924,4.0253,3.9568,3.9076,3.8743,3.8251,3.7479,3.7409,3.7306,3.7025,3.7007,3.7007,3.7007,3.7007,3.7007,3.7007,3.7007,3.7007,3.7007,3.7007,3.7007,3.7007,3.7007,3.7007,3.6989,3.7124,3.7124,3.7009,3.726,3.7222,3.7007,3.7007,3.6972,3.6976,3.7092,3.7412,3.7828,3.8089,3.8106,3.7969,0.0,0.0,0.0,0.0,0.0,0.0,0.0,0.0,0.0,0.0,0.0,0.0,0.0,0.0,0.0,0.0,0.0,0.0,2.6911,2.7174,2.7532,2.8084,2.7354,2.7055,2.7281,2.7128,2.7037,2.6909,2.8244,2.8983,2.9176,3.0344,3.0911,3.0911,3.0766,3.0725,3.0699,0.0,0.0,0.0,0.0,0.0,0.0,0.0,0.0,0.0,0.0,0.0,0.0,0.0,3.1908,0.0,0.0,0.0,0.0,0.0,3.315,3.3256,3.3282,3.4138,3.4995,3.4996,0.0,0.0,3.8847,3.9198,3.9675,4.1283,4.1411,4.1323,4.1569,0.0,4.1253,4.1253,4.0836,4.0414,4.0169,3.9427,3.8725,3.8181,3.79,3.7549,3.706,3.7007,3.7007,3.7007,3.7007,3.7007,3.7007,3.7007,3.7007,3.7007,3.7007,3.7007,3.7007,3.7007,3.7027,3.7105,3.7027,3.7007,3.7007,3.7201,3.722,3.7124,3.7448,3.7503,3.7391,3.7391,3.7484,3.7631,3.7828,3.7986,3.8106,3.8175,3.8106,3.7969,0.0,0.0,0.0,0.0,0.0,0.0,0.0,0.0,0.0,0.0,0.0,0.0,0.0,0.0,0.0,0.0,0.0,0.0,2.6082,2.6816,2.7507,2.8035,2.6785,2.6456,2.7293,2.5992,2.5781,2.6692,2.8033,2.8972,2.9498,3.0313,3.0685,3.0659,3.0275,3.01,3.0061,0.0,0.0,0.0,0.0,0.0,0.0,0.0,0.0,0.0,0.0,0.0,0.0,0.0,3.1879,3.2425,0.0,0.0,0.0,3.2989,3.3096,3.3123,3.3282,3.371,3.4226,3.469,0.0,0.0,3.8642,3.9003,3.9504,4.1244,4.1007,4.0731,4.1446,4.099,4.0485,4.0485,4.0485,4.0204,3.941,3.8602,3.8093,3.8093,3.7426,3.7007,3.7007,3.7007,3.7007,3.7007,3.7007,3.7007,3.7007,3.7007,3.7007,3.7007,3.7007,3.7007,3.7007,3.7007,3.7105,3.7297,3.7105,3.7007,3.7009,3.722,3.7297,3.7316,3.7521,3.7595,3.7595,3.7595,3.7595,3.7613,3.7828,3.7899,3.7916,3.8141,3.8192,3.8175,0.0,0.0,0.0,0.0,0.0,0.0,0.0,0.0,0.0,0.0,0.0,0.0,0.0,0.0,0.0,0.0,0.0,0.0,2.3881,2.4507,2.4992,2.5215,2.4759,2.526,2.698,2.6577,2.6627,2.7135,2.8033,2.8573,2.8764,2.9957,3.0133,2.9518,2.9751,2.9757,0.0,0.0,0.0,0.0,0.0,0.0,0.0,0.0,0.0,0.0,0.0,0.0,0.0,0.0,0.0,0.0,0.0,0.0,0.0,3.2897,3.3032,3.3203,3.372,3.4046,0.0,3.5168,0.0,0.0,0.0,3.9404,0.0,0.0,4.1007,4.0573,4.0801,4.0182,3.9656,3.9656,3.9182,3.8725,3.8497,3.7795,3.7341,3.7341,3.713,3.7007,3.7007,3.7007,3.7007,3.7007,3.7007,3.7007,3.7007,3.7007,3.7007,3.7007,3.7007,3.7007,3.7007,3.7143,3.7239,3.7297,3.7391,3.7411,3.7411,3.7466,3.7521,3.7539,3.7863,3.7951,3.7828,3.7969,3.7951,3.7828,3.8021,3.8021,3.7916,3.8141,3.8021,3.7793,0.0,0.0,0.0,0.0,0.0,0.0,0.0,0.0,0.0,0.0,0.0,0.0,0.0,0.0,0.0,0.0,0.0,0.0,0.0,0.0,2.3547,2.3678,2.3472,2.4081,2.5605,2.6066,2.6572,2.7182,2.7248,2.7481,2.7908,2.8446,2.8387,2.7864,2.8367,2.8458,0.0,0.0,0.0,0.0,2.9265,2.9096,2.861,0.0,0.0,0.0,0.0,0.0,0.0,0.0,0.0,0.0,3.2216,0.0,0.0,3.2843,3.2951,3.3123,3.3642,3.4137,0.0,3.5535,3.6697,3.7943,3.9153,0.0,0.0,0.0,4.0551,4.0007,4.0007,3.9375,3.881,3.881,3.8427,3.8006,3.769,3.7288,3.7007,3.7007,3.7007,3.7007,3.7007,3.7007,3.7007,3.7007,3.7007,3.7007,3.7007,3.7007,3.7007,3.7007,3.7085,3.7124,3.7124,3.7316,3.7466,3.7539,3.7576,3.7667,3.7828,3.7757,3.7721,3.7739,3.8055,3.8141,3.8021,3.8158,3.8141,3.8021,3.8158,3.8141,3.8021,3.8158,3.8055,3.7846,0.0,0.0,0.0,0.0,0.0,0.0,0.0,0.0,0.0,0.0,0.0,0.0,0.0,0.0,0.0,0.0,0.0,0.0,0.0,0.0,2.2809,2.2915,2.2856,2.3091,2.3655,2.4948,2.5984,2.682,2.6006,2.609,2.7018,2.6384,2.6074,2.6071,2.6481,2.6671,0.0,0.0,0.0,2.801,2.8204,2.8307,2.8307,2.8539,0.0,0.0,0.0,0.0,0.0,0.0,0.0,0.0,3.2188,3.2425,3.248,3.2816,3.2912,3.2978,3.3309,3.4092,3.5033,3.585,3.7356,0.0,3.9785,4.0704,4.1179,4.0537,0.0,3.9178,3.9178,3.855,3.8006,3.8006,3.8006,3.7777,3.7095,3.7007,3.7007,3.7007,3.7007,3.7007,3.7007,3.7007,3.7007,3.7007,3.7007,3.7007,3.7007,3.7007,3.7007,3.7007,3.7201,3.7297,3.7297,3.7521,3.7721,3.7899,3.7721,3.7846,3.8192,3.7986,3.7899,3.7934,3.8124,3.8209,3.8209,3.8209,3.8192,3.8175,3.8192,3.8175,3.8158,3.8192,3.8192,3.8175,0.0,0.0,0.0,0.0,0.0,0.0,0.0,0.0,0.0,0.0,0.0,0.0,0.0,0.0,0.0,0.0,0.0,0.0,0.0,0.0,2.1256,2.0851,2.2768,2.3769,2.3536,2.5322,2.6074,2.5591,2.5619,2.5906,2.6462,2.605,2.5824,2.5732,0.0,2.6639,0.0,0.0,2.7122,2.7259,2.7462,2.7551,2.7551,2.7686,2.7774,0.0,0.0,0.0,0.0,0.0,0.0,0.0,3.2048,3.2453,3.2594,3.2843,3.2978,3.3176,3.3771,3.4515,0.0,3.631,3.7655,3.8841,3.9151,3.9438,3.962,3.9564,3.8918,3.8374,3.8374,3.7742,3.7253,3.7253,3.7253,3.7183,3.7025,3.7007,3.7007,3.7007,3.7007,3.7007,3.7007,3.7007,3.7007,3.7007,3.7007,3.7007,3.7007,3.7007,3.7007,3.7007,3.7201,3.7297,3.7297,3.7667,3.7864,3.7899,3.8021,3.8106,3.8192,3.7986,3.8004,3.8141,3.8192,3.8209,3.8209,3.8209,3.8107,3.7969,3.8141,3.8003,3.7775,3.8089,3.8089,3.8004,0.0,0.0,0.0,0.0,0.0,0.0,0.0,0.0,0.0,0.0,0.0,0.0,0.0,0.0,0.0,0.0,0.0,0.0,0.0,0.0,2.0579,2.0827,2.2577,2.3469,2.3155,2.4535,2.5136,2.4859,2.4339,2.4471,0.0,0.0,0.0,2.4166,0.0,2.5768,0.0,0.0,2.6875,2.6863,2.7079,2.7214,2.7302,2.7369,2.749,2.7689,2.7868,0.0,0.0,0.0,0.0,0.0,0.0,0.0,3.2551,3.2816,3.2951,3.315,3.3899,0.0,0.0,3.6741,0.0,3.8725,3.8473,3.8492,3.8496,3.8248,3.8146,3.7988,3.7637,3.7271,3.7007,3.7007,3.7007,3.7007,3.7007,3.7007,3.7007,3.7007,3.7007,3.7007,3.7007,3.7007,3.7007,3.7007,3.7007,3.7007,3.7007,3.7007,3.7007,3.7007,3.7297,3.7447,3.7447,3.7828,3.8038,3.8038,3.8158,3.8209,3.8192,3.8089,3.8089,3.8209,3.8209,3.8209,3.8192,3.8107,3.8038,3.8038,3.8038,3.7986,3.7898,3.8123,3.8123,3.8073,0.0,0.0,0.0,0.0,0.0,0.0,0.0,0.0,0.0,0.0,0.0,0.0,0.0,0.0,0.0,0.0,0.0,0.0,0.0,1.9678,2.0379,2.1461,2.2302,2.2737,2.2798,2.3505,2.4022,2.427,2.3174,0.0,0.0,0.0,0.0,2.2754,0.0,0.0,0.0,0.0,2.6692,2.6692,2.6875,2.7045,2.7201,2.7268,2.7369,2.749,2.7723,2.7901,2.8164,2.9026,0.0,0.0,0.0,0.0,3.2496,3.2816,3.2912,3.3112,3.3873,3.4595,3.5502,3.7104,3.8044,0.0,3.7756,3.7707,3.7618,3.711,3.7479,3.7725,3.7112,3.7007,3.6954,3.6831,3.6919,3.6954,3.6814,3.6919,3.7007,3.7007,3.7007,3.7007,3.7007,3.7007,3.7007,3.7007,3.7007,3.7007,3.7007,3.7007,3.7027,3.7046,3.7411,3.7631,3.7649,3.8021,3.8209,3.8209,3.8209,3.8209,3.8209,3.8209,3.8209,3.8209,3.8175,3.8158,3.8141,3.7969,3.7969,3.8089,3.7986,3.8021,3.8158,3.8224,3.8224,3.8191,0.0,0.0,0.0,0.0,0.0,0.0,0.0,0.0,0.0,0.0,0.0,1.9912,1.9912,1.9541,0.0,0.0,0.0,0.0,1.9287,0.0,0.0,2.1461,2.185,2.2261,2.2798,2.3505,2.3712,2.337,0.0,0.0,0.0,0.0,0.0,2.3552,0.0,0.0,0.0,0.0,2.6521,2.6521,2.6692,2.676,2.6829,2.7167,2.7302,2.7369,2.7689,2.7822,2.7973,2.8949,2.9704,0.0,0.0,0.0,3.2621,3.2843,3.2978,3.3229,3.3899,0.0,3.6621,0.0,3.7581,3.7525,0.0,0.0,3.6888,3.6985,3.7077,3.713,3.7025,3.7007,3.6779,3.6075,3.6549,3.6761,3.6075,3.6549,3.7007,3.7007,3.7007,3.7007,3.7007,3.7007,3.7007,3.7007,3.7007,3.7007,3.7007,3.7007,3.7085,3.7259,3.7484,3.7685,3.7864,3.809,3.8209,3.8209,3.8209,3.8209,3.8209,3.8209,3.8209,3.8192,3.8021,3.7934,3.7934,3.7899,3.7793,3.7721,3.8038,3.8055,3.7986,3.8336,3.8354,3.8224,0.0,0.0,0.0,0.0,0.0,0.0,0.0,0.0,0.0,0.0,0.0,1.9708,1.957,1.918,0.0,0.0,0.0,0.0,1.9268,1.9463,0.0,0.0,2.1213,2.1609,2.2211,2.2716,2.2887,2.2801,0.0,0.0,0.0,2.2987,2.3146,0.0,0.0,0.0,0.0,0.0,0.0,2.5205,2.5721,2.5965,2.6173,2.6863,2.7214,2.7335,2.7556,2.7689,2.7875,2.843,2.9331,3.0286,3.0778,0.0,0.0,0.0,3.2924,3.3124,3.3722,3.4638,3.5552,0.0,3.6277,3.6395,3.6626,3.6725,3.6788,3.6968,3.7007,3.6867,3.6408,3.6338,3.6075,3.5302,3.5829,3.6197,3.5845,3.6478,3.7007,3.7007,3.7007,3.7007,3.7007,3.7007,3.7007,3.7007,3.7007,3.7007,3.7007,3.7007,3.7046,3.7124,3.7003,3.7202,3.7721,3.7587,3.7756,3.8209,3.8209,3.8209,3.8209,3.8209,3.8209,3.8192,3.8004,3.7951,3.8038,3.781,3.781,3.7933,3.8003,3.8105,3.8254,3.8322,3.8354,3.8352,0.0,0.0,0.0,0.0,0.0,0.0,0.0,0.0,0.0,0.0,0.0,0.0,1.9333,0.0,0.0,0.0,0.0,0.0,1.9092,0.0,0.0,0.0,0.0,2.1022,2.1638,2.1895,2.2091,0.0,0.0,0.0,2.3867,2.3525,2.3846,0.0,2.4898,2.469,0.0,0.0,0.0,0.0,0.0,2.5406,2.5639,2.6577,2.7011,2.7167,2.7369,2.7556,2.7723,2.7934,2.8839,2.9952,3.0315,3.1099,0.0,0.0,0.0,3.3049,0.0,0.0,3.4783,3.5129,3.5434,3.5815,0.0,3.6609,3.6849,3.6968,3.7007,3.6708,3.5706,3.5669,3.5495,3.4547,3.5197,3.5722,3.5565,3.6355,3.7007,3.7007,3.7007,3.7007,3.7007,3.7007,3.7007,3.7007,3.7007,3.7007,3.7007,3.6814,3.6728,3.6768,3.6308,3.6363,3.7059,3.7011,3.7393,3.8209,3.8209,3.8209,3.8209,3.8209,3.8209,3.8192,3.7934,3.7881,3.7951,3.7703,3.7775,3.8055,3.8054,3.8238,3.8494,3.8403,3.8417,3.8478,0.0,0.0,0.0,0.0,0.0,0.0,0.0,0.0,0.0,0.0,0.0,0.0,0.0,0.0,0.0,0.0,0.0,0.0,0.0,0.0,0.0,0.0,0.0,0.0,2.1235,2.1428,0.0,0.0,0.0,0.0,2.3919,2.3898,2.4322,2.515,2.5048,2.4516,2.3799,0.0,0.0,0.0,0.0,2.5312,2.5406,2.6371,2.6714,2.6782,2.7167,2.7302,2.7369,2.7689,2.8357,2.9192,2.9968,3.0397,3.0747,0.0,0.0,0.0,0.0,3.514,0.0,3.5266,3.5832,3.6281,3.5707,3.6207,3.6849,3.6968,3.7007,3.655,3.504,3.5337,3.532,3.381,3.4828,3.5547,3.4846,3.6059,3.7007,3.7007,3.7007,3.7007,3.7007,3.7007,3.7007,3.7007,3.7007,3.7007,3.7007,3.6285,3.594,3.6128,3.5456,3.5242,3.5598,3.6533,3.7393,3.8209,3.8209,3.8209,3.8209,3.8209,3.8209,3.8175,3.7793,3.7521,3.7353,3.7539,3.7613,3.7685,3.8252,3.8494,3.8541,3.8773,3.8713,3.851,0.0,0.0,0.0,0.0,0.0,0.0,0.0,0.0,0.0,0.0,0.0,0.0,0.0,1.9043,1.8633,1.8057,1.8008,0.0,0.0,0.0,0.0,0.0,0.0,0.0,0.0,0.0,0.0,0.0,0.0,2.2211,2.2998,2.3298,2.3453,2.3484,2.4063,2.3944,2.3361,2.3007,0.0,0.0,0.0,2.4528,2.4707,2.6139,2.6679,2.676,2.7167,2.7302,2.7335,2.7689,2.8287,2.8961,2.9407,2.9886,3.0477,3.1435,3.2029,3.2536,0.0,0.0,0.0,3.4652,3.4909,3.5218,3.5446,3.5846,3.6034,3.5618,3.5899,3.5759,3.4213,3.4565,3.474,3.367,3.4389,3.5162,3.539,3.632,3.7007,3.7007,3.7007,3.7007,3.7007,3.7007,3.7007,3.7007,3.7007,3.6759,3.6268,3.595,3.5621,3.5203,3.4571,3.4389,3.4733,3.5722,3.6635,3.743,3.743,3.7635,3.8003,3.8141,3.8055,3.781,3.7793,3.781,3.7863,3.7828,3.795,3.8185,3.843,3.8676,3.896,3.8906,3.8935,3.8927,0.0,0.0,0.0,0.0,0.0,0.0,0.0,0.0,0.0,2.0501,0.0,0.0,0.0,0.0,1.8864,1.8271,1.8188,1.812,1.8018,0.0,0.0,0.0,0.0,0.0,0.0,0.0,0.0,0.0,0.0,0.0,0.0,2.2811,2.2873,2.2749,2.3205,2.3246,0.0,0.0,0.0,2.2168,0.0,2.4108,2.4301,2.6,2.6624,2.6692,2.6998,2.7134,2.7248,2.7523,2.8006,2.8488,2.8713,2.9146,2.9749,3.0783,3.1347,0.0,3.2641,0.0,0.0,0.0,3.4583,3.5114,3.5136,3.5636,3.5929,3.5232,3.546,3.5318,3.3792,3.395,3.4108,3.3582,3.4179,3.4951,3.5687,3.6478,3.7007,3.7007,3.7007,3.7007,3.7007,3.7007,3.7007,3.7007,3.7007,3.6656,3.5845,3.5583,3.4969,3.395,3.3651,3.3745,3.4239,3.5004,3.5802,3.6598,3.6598,3.6898,3.7485,3.7352,3.7412,3.7595,3.747,3.7595,3.7899,3.7899,3.8053,3.833,3.8556,3.8873,3.9183,3.9064,3.9092,3.917,0.0,0.0,0.0,0.0,0.0,0.0,0.0,0.0,2.0599,2.0619,0.0,0.0,0.0,0.0,0.0,1.8695,1.8617,1.8442,1.8057,1.8027,0.0,0.0,0.0,0.0,0.0,0.0,0.0,0.0,0.0,0.0,0.0,0.0,2.2718,2.3122,2.2677,2.247,2.2459,0.0,2.248,2.2585,0.0,2.4108,2.4264,2.5908,2.6499,2.6521,2.6658,2.6841,2.7011,2.7248,2.7523,2.7802,2.788,2.8068,2.8461,2.9341,3.0161,0.0,0.0,0.0,0.0,0.0,0.0,3.6055,3.4699,3.5614,3.6549,3.5896,3.5775,3.5336,3.3827,3.3547,3.3529,3.3564,3.4214,3.4969,3.5722,3.6496,3.7007,3.7007,3.7007,3.7007,3.7007,3.7007,3.7007,3.7007,3.7007,3.6636,3.581,3.5056,3.395,3.2441,3.274,3.3275,3.4059,3.4398,3.4969,3.5768,3.5768,3.6085,3.664,3.5866,3.6232,3.7488,3.672,3.6701,3.7281,3.7739,3.7915,3.7997,3.8646,3.9036,3.921,3.921,3.921,3.9183,0.0,0.0,0.0,0.0,0.0,2.2072,2.1618,2.1128,2.0934,0.0,0.0,0.0,2.021,1.9824,1.9438,1.9131,1.9111,1.8926,1.8451,1.8432,1.8676,1.9268,1.9287,1.9772,2.0799,0.0,0.0,0.0,0.0,0.0,0.0,2.1994,2.2066,0.0,2.2056,2.1818,2.1518,2.1859,0.0,2.2137,2.3519,2.4108,2.4264,2.5908,2.6499,2.6521,2.6658,2.6726,2.6829,2.7167,2.7369,2.7472,2.7757,2.8009,2.8398,2.92,3.0035,0.0,3.2009,0.0,0.0,0.0,0.0,0.0,3.4263,3.4702,3.5081,3.4909,3.5368,3.5511,3.4547,3.4372,3.453,3.5073,3.4898,3.5144,3.6478,3.6867,3.7007,3.7007,3.7007,3.7007,3.7007,3.7007,3.7007,3.7007,3.7007,3.6427,3.5074,3.374,3.2845,3.2406,3.274,3.3007,3.3221,3.3553,3.4154,3.4917,3.4917,3.5255,3.5815,3.5596,3.564,3.5846,3.5685,3.5719,3.6038,3.7513,3.8232,3.8452,3.8927,3.9269,3.9483,3.9483,3.9483,3.947,0.0,0.0,0.0,2.3163,2.2749,2.2408,2.2128,2.1638,2.1367,0.0,0.0,0.0,2.0611,2.0289,1.9951,1.958,1.9551,1.9287,1.8637,1.8598,1.8715,1.9004,1.9298,1.9784,2.0599,2.1066,2.1397,0.0,0.0,2.1807,2.1807,2.1807,2.1807,2.1807,2.1807,2.1652,2.1424,2.1694,0.0,2.1678,2.3411,2.4108,2.4264,2.5908,2.6499,2.6499,2.6589,2.6658,2.676,2.6964,2.6979,2.702,2.7588,2.7882,0.0,2.9079,3.0077,0.0,0.0,0.0,0.0,0.0,0.0,0.0,3.4271,3.4627,3.4898,3.4974,3.5399,3.5544,3.4828,3.4706,3.4934,3.5669,3.5443,3.5583,3.6831,3.7007,3.7007,3.7007,3.7007,3.713,3.7446,3.7183,3.7271,3.79,3.7376,3.634,3.4776,3.3231,3.2406,3.2406,3.274,3.2868,3.2787,3.318,3.3584,3.3975,3.4054,3.4359,3.4872,3.4566,3.463,3.4978,3.4831,3.495,3.539,3.6848,3.7543,3.7757,3.8437,3.8857,3.9063,3.9063,3.9289,3.9589,0.0,0.0,2.3919,2.3919,2.3194,2.2635,2.2584,2.218,2.1901,0.0,2.1924,2.1771,2.1395,2.1263,2.0918,2.0127,2.001,1.9639,1.8802,1.8744,1.8724,1.8676,1.9301,1.9816,2.024,2.104,2.1512,2.154,2.1693,2.1807,2.1807,2.1807,2.1807,2.1807,2.1807,2.1776,2.1735,2.1852,2.162,2.134,2.3313,2.4145,2.4409,2.5908,2.6499,2.6487,2.6424,2.6501,2.6578,2.6515,2.6406,2.6421,2.7279,2.7624,2.7868,2.8858,3.0114,0.0,0.0,0.0,0.0,0.0,3.3266,0.0,3.4201,3.4679,3.5151,3.5416,3.5512,3.5397,3.4915,3.4811,3.5074,3.5792,3.5985,3.632,3.7025,3.713,3.7165,3.7253,3.7271,3.7496,3.8181,3.7637,3.7812,3.9196,3.7865,3.634,3.4776,3.3318,3.2476,3.2406,3.269,3.277,3.2606,3.3104,3.3256,3.3101,3.3271,3.354,3.3883,3.3221,3.3503,3.4499,3.4053,3.4274,3.5015,3.5901,3.633,3.6491,3.7506,3.801,3.8188,3.8281,3.8788,3.9477,0.0,2.3598,2.3919,2.3919,2.3774,2.3484,2.3111,2.2656,2.2501,2.2873,2.2795,2.2554,2.2271,2.181,2.1392,2.0986,2.0644,2.0215,1.966,1.9668,1.9512,1.918,1.9607,2.0068,2.0514,2.1022,2.1436,2.1731,2.1769,2.1807,2.1807,0.0,0.0,2.1807,2.1807,2.16,2.1306,2.2318,2.2243,2.1591,2.3358,2.4492,2.5158,2.6129,2.6499,2.6436,2.5971,2.5795,2.5766,2.5489,2.5467,2.5652,2.6485,2.6481,2.6572,2.8351,2.9279,2.9964,3.1121,3.209,0.0,0.0,3.1975,0.0,3.2039,3.2521,3.3174,3.3867,3.4345,3.483,3.5414,3.5504,3.5785,3.6636,3.7251,3.7725,3.7865,3.7883,3.8128,3.8778,3.8866,3.8918,3.9038,3.8954,3.8989,3.9266,3.7865,3.634,3.4776,3.381,3.3003,3.2423,3.2574,3.2639,3.2606,3.285,3.3042,3.3101,3.3132,3.3206,3.3273,3.3001,3.3093,3.3407,3.3148,3.3414,3.4118,3.505,3.5821,3.6463,3.7057,3.73,3.7411,3.8056,3.8413,3.8657,2.2801,2.3215,2.3536,2.3536,2.335,2.3184,2.3184,2.2791,2.2656,2.3122,2.3176,2.3022,2.2553,2.2159,2.1698,2.125,2.082,2.0458,2.0082,2.0062,1.9814,1.929,1.9996,2.0393,2.0413,2.1128,2.1617,2.1807,2.1807,2.1807,2.1807,2.1807,2.1987,2.2365,2.1997,2.1899,2.2062,2.2296,2.2559,2.2889,2.4187,2.4779,2.5021,2.6099,2.6311,2.6021,2.5699,2.5435,2.5242,2.5438,2.5377,2.5314,2.6119,2.6445,2.6813,2.7925,2.9117,3.0213,3.1091,3.1845,3.2249,3.1685,3.1781,0.0,0.0,3.2546,3.3203,3.4112,3.4423,3.4636,3.5155,3.5499,3.5834,3.6278,3.7038,3.7672,3.8058,3.8462,3.8866,3.9249,3.9284,3.9463,3.9849,3.955,3.9284,3.9284,3.8216,3.6882,3.5337,3.4126,3.3161,3.2423,3.2523,3.2556,3.2507,3.2836,3.2993,3.2993,3.3165,3.3165,3.3011,3.2932,3.293,3.2954,3.3032,3.3332,3.3852,3.4487,3.4983,3.5422,3.6171,3.6463,3.6489,3.6902,3.7338,3.7812,2.248,2.2801,2.308,2.3174,2.2946,2.2884,2.3267,2.3008,2.2904,2.3267,2.3546,2.3471,2.2907,2.259,2.2226,2.1635,2.1154,2.0781,2.049,2.046,2.0111,1.9434,2.0396,2.0767,2.0344,2.1281,2.1769,2.1807,2.1807,2.1807,2.1807,2.1807,2.2138,2.274,2.2252,0.0,0.0,0.0,0.0,2.4042,2.4968,2.5172,2.4986,2.5959,2.6034,2.5573,2.536,2.4946,2.4556,2.5158,2.5071,2.4824,2.5569,2.6179,2.6747,2.7317,2.8705,3.0134,3.0629,3.1246,3.1699,3.1404,3.1628,3.2007,0.0,0.0,0.0,3.4183,3.4153,3.4049,3.4351,3.4716,3.5074,3.5505,3.6284,3.7134,3.7985,3.8775,3.9375,3.9515,3.9533,3.9831,4.0643,4.0112,3.9691,3.955,3.8936,3.783,3.6127,3.4705,3.3529,3.2634,3.2578,3.2506,3.2406,3.2771,3.2914,3.2852,3.3168,3.3135,3.2852,3.293,3.2959,3.2905,3.3243,3.3578,3.3895,3.4185,3.4293,3.4367,3.5217,3.5544,3.5562,3.5742,3.6257,3.6979,2.2418,2.2542,2.2708,2.3122,2.3484,2.3743,2.3795,2.3795,2.3743,2.3795,2.4146,2.4276,2.401,2.3601,2.3264,2.3004,2.2386,2.1858,2.1481,2.1392,2.0956,2.014,2.0777,2.1037,2.0825,2.1295,2.1617,2.1807,2.1807,2.1807,2.1807,2.1807,2.1845,2.1949,2.259,0.0,0.0,0.0,2.3886,2.3513,2.4988,2.5861,2.6246,2.5862,2.5649,2.5473,2.4519,2.3816,2.3308,0.0,2.3376,2.3457,2.4202,2.4142,2.421,2.6163,2.6988,2.7513,2.8805,2.9687,3.0281,3.0352,3.0505,3.067,3.0814,0.0,3.1718,3.1999,0.0,3.194,3.2872,0.0,0.0,3.4768,3.5749,3.671,3.7927,3.8775,3.9568,4.0291,4.0362,4.0678,4.1394,4.1394,4.1078,4.0414,4.0291,3.9238,3.6989,3.6022,3.4881,3.3424,3.2774,3.2405,3.2406,3.2457,3.2541,3.2639,3.285,3.2834,3.2655,3.3065,3.3262,3.3258,3.3611,3.3908,3.4161,3.4257,3.4257,3.4233,3.4521,3.4645,3.475,3.5582,3.5942,3.6141,2.2056,2.2097,2.2159,2.2356,2.2542,2.2853,2.3391,2.3929,2.426,2.426,2.4383,2.4411,2.4206,2.3798,2.3439,2.3239,2.2712,2.233,2.213,2.2,2.1727,2.1334,2.1456,2.1497,2.1415,2.16,2.1731,2.1807,2.1807,2.1807,0.0,0.0,2.2063,2.2515,2.2852,0.0,2.3169,0.0,2.4179,2.4071,2.505,2.5478,2.5523,2.5573,2.5209,2.4569,2.3778,2.3308,2.3158,0.0,2.3384,0.0,2.3883,2.3988,2.4027,2.4935,2.5908,2.6832,2.7492,2.8495,2.93,2.9051,2.9937,3.0807,3.0536,3.1025,3.1558,3.1726,0.0,0.0,0.0,0.0,0.0,0.0,3.5019,3.6242,3.6845,3.746,3.8502,4.0291,4.0077,4.0112,4.0884,4.1341,4.1464,4.1148,4.0748,3.9659,3.7742,3.69,3.5583,3.3564,3.3195,3.2827,3.2406,3.2473,3.254,3.2606,3.2802,3.2898,3.2912,3.3096,3.3335,3.3611,3.3734,3.3947,3.4209,3.4233,3.4221,3.4209,3.4328,3.4416,3.4487,3.4929,3.5124,3.5259,2.1807,0.0,0.0,2.1807,2.1911,2.2304,2.3236,2.4043,2.4497,2.4497,2.4497,2.4454,2.4282,2.3995,2.3716,2.359,2.3254,2.2969,2.2796,2.2646,2.2492,2.2319,2.2125,2.1994,2.1994,2.1869,2.1807,2.1807,2.1807,2.1807,0.0,0.0,2.2101,2.2665,2.2889,2.3313,2.3829,0.0,2.4402,2.4759,2.5196,2.5133,2.4813,2.5071,2.4582,2.3703,2.3258,2.3108,2.317,2.3615,2.3446,0.0,2.3627,2.3833,2.39,2.3961,2.4931,2.6001,2.6121,2.7058,2.8005,2.7997,2.9154,3.028,3.0306,3.0782,3.1301,3.1621,3.1146,0.0,0.0,0.0,0.0,0.0,0.0,3.5367,3.5977,3.6367,3.7408,3.9582,3.9515,3.9533,4.0095,4.0656,4.106,4.1271,4.0818,3.9884,3.8515,3.7707,3.6233,3.3897,3.3617,3.3143,3.2406,3.2507,3.2557,3.2557,3.2739,3.288,3.3016,3.3172,3.3455,3.3807,3.3807,3.3947,3.4197,3.4124,3.4148,3.4233,3.4293,3.4363,3.442,3.4484,3.4539,3.4677,2.1807,2.1807,0.0,2.1807,2.218,2.278,2.3712,2.425,2.4497,2.4497,2.4497,2.4497,2.4497,2.4487,2.4476,2.4476,2.4251,2.3972,2.3491,2.344,2.3288,2.291,2.2609,2.247,2.247,2.2035,2.1807,2.1807,2.1807,2.1807,0.0,0.0,0.0,0.0,2.2665,2.3001,2.3117,2.405,2.4796,2.531,2.5487,2.5264,2.4738,0.0,2.3678,2.3133,2.3108,0.0,0.0,2.312,2.312,0.0,0.0,0.0,0.0,0.0,0.0,2.4403,0.0,0.0,0.0,2.7383,0.0,2.8354,2.9722,3.0125,3.0477,3.1232,3.0974,3.085,3.1633,0.0,0.0,0.0,0.0,0.0,0.0,3.6015,3.664,3.8015,3.8827,3.9301,3.9357,3.9354,3.9708,4.0485,4.052,4.0151,3.9301,3.8515,3.7023,3.4723,3.3897,3.3143,3.2406,3.2388,3.2423,3.2423,3.254,3.2669,3.2827,3.3353,3.3657,3.3807,3.3807,3.3947,3.4185,3.3921,3.3998,3.4305,3.4363,3.4439,3.4495,3.4495,3.4539,3.4602,0.0,0.0,0.0,2.2263,2.2387,2.2811,2.3774,2.426,2.4497,2.4497,2.4497,2.4497,2.4497,2.4497,2.4497,2.4497,2.4454,2.4264,2.3982,2.3822,2.3762,2.3747,2.3237,2.2956,2.2956,2.2501,2.2118,2.1807,2.1807,2.1807,0.0,0.0,0.0,0.0,0.0,2.3276,0.0,0.0,0.0,0.0,0.0,2.5184,2.5234,0.0,2.364,2.3108,2.3108,2.3108,0.0,2.3108,2.3108,2.3108,2.3108,2.3108,2.3108,2.3168,2.3437,2.3704,0.0,0.0,2.4983,2.5452,0.0,0.0,0.0,2.8054,2.8418,2.9078,2.8872,2.8889,3.0008,0.0,0.0,0.0,0.0,0.0,0.0,3.5537,3.637,3.714,3.8453,3.9091,3.8567,3.9006,3.9638,4.0432,4.0007,3.9585,3.9301,3.855,3.7286,3.5478,3.4688,3.3933,3.3143,3.2651,3.249,3.267,3.2718,3.2986,3.348,3.3652,3.3842,3.4061,3.4061,3.4124,3.4197,3.4099,3.4136,3.4245,3.4305,3.4363,3.445,3.4528,3.4572,3.4612,2.2087,2.2428,2.2687,2.2532,2.277,2.3184,2.3826,2.426,2.4497,2.4497,2.4497,2.4497,2.4497,2.4497,2.4497,2.4497,2.4497,2.4454,2.4335,2.4186,2.4155,2.4315,2.3742,2.3432,2.3432,2.2977,2.2511,2.2056,2.2056,2.1963,0.0,0.0,0.0,0.0,0.0,2.3154,2.412,2.4636,2.527,0.0,0.0,2.5372,0.0,0.0,2.391,2.3384,0.0,2.3108,2.3108,2.3108,2.3108,2.3108,2.3108,2.3108,2.3108,2.3108,2.3198,2.33,2.33,2.355,0.0,2.4056,2.4922,0.0,2.6221,0.0,2.7186,2.7811,2.7983,2.8221,2.8897,0.0,0.0,0.0,0.0,0.0,0.0,3.5203,3.6118,3.6509,3.7685,0.0,0.0,3.8181,3.8918,3.9972,3.9585,3.9284,0.0,3.8813,3.7687,3.5862,3.5074,3.4302,3.3494,3.2774,3.254,3.2795,3.2795,3.3151,3.3807,3.3807,3.3947,3.4197,3.4099,3.4111,3.4197,3.4099,3.4124,3.4245,3.4305,3.4393,3.445,3.4528,3.4572,3.4612,2.2615,2.2944,2.3171,2.2785,2.34,2.3908,2.3908,2.4271,2.4497,2.4497,2.4497,2.4497,2.4497,2.4497,2.4497,2.4497,2.4497,2.4497,2.4497,2.4497,2.4497,2.4497,2.4136,2.3898,2.3919,2.3443,2.2987,2.2501,2.2501,2.2263,0.0,0.0,0.0,0.0,2.1807,0.0,2.4108,2.4108,2.5028,2.6499,2.6499,2.5812,2.4825,2.48,2.4481,2.3916,2.3308,2.3108,2.3108,2.3108,2.3108,2.3108,2.3108,2.3108,2.3108,2.3108,2.3083,2.3058,2.3058,2.2829,2.2683,2.3187,2.345,0.0,0.0,0.0,2.6671,2.7291,2.8191,2.8739,2.8354,0.0,0.0,0.0,0.0,0.0,0.0,0.0,3.5781,3.6054,0.0,0.0,0.0,3.7007,3.7657,3.9178,3.9249,3.9249,0.0,3.9249,3.8196,3.5933,3.5109,3.4337,3.3565,3.2792,3.2557,3.2811,3.2842,3.3181,3.3807,3.3802,3.3947,3.4173,3.3921,3.3959,3.4185,3.3921,3.4011,3.4305,3.4363,3.4439,3.4495,3.4506,3.4539,3.4612,2.3029,2.3917,2.4941,2.5768,2.5057,2.4332,2.4332,2.4425,2.4497,2.4497,2.4497,2.4497,2.4497,2.4497,2.4497,2.4497,2.4497,2.4497,2.4497,2.4497,2.4497,2.4497,2.4394,2.4219,2.3929,2.3764,2.3308,2.2501,2.2501,2.2263,2.1807,0.0,0.0,0.0,0.0,2.2681,2.4108,2.4108,2.5028,2.6499,2.6499,2.6072,2.536,0.0,2.4481,2.3916,2.3308,2.3108,2.3108,2.3108,2.3108,2.3108,2.3108,2.3108,2.3108,2.3108,2.2819,2.2493,2.2493,2.215,2.1829,2.1939,2.2106,2.2301,0.0,0.0,0.0,0.0,0.0,0.0,0.0,0.0,0.0,0.0,0.0,0.0,0.0,3.464,3.534,3.5759,0.0,0.0,3.6987,3.7007,3.7657,3.9178,3.876,3.8673,3.9266,3.8722,3.7883,3.6724,3.5409,3.4601,3.4389,3.3278,3.2862,3.3169,3.3419,3.362,3.382,3.4011,3.4023,3.3908,3.4036,3.4136,3.4197,3.4124,3.4148,3.4233,3.4293,3.4404,3.4506,3.455,3.4591,3.4612,2.4106,2.4986,2.6044,2.6937,2.5955,2.5062,2.5062,2.4733,2.4497,2.4497,2.4497,2.4497,2.4497,2.4497,2.4497,2.4497,2.4497,2.4497,2.4497,2.4497,2.4497,2.4497,2.4497,2.4383,2.4178,2.4167,2.3815,2.3101,2.2904,2.2563,2.2097,0.0,0.0,0.0,0.0,2.2979,2.4156,2.485,2.5687,2.6499,2.6499,2.6147,0.0,2.4988,2.4481,2.3916,2.3308,2.3108,2.3108,2.3108,2.3108,2.3108,2.3108,2.3108,2.3108,2.3108,2.2719,2.2309,2.2309,2.1732,2.1157,2.1157,2.1211,2.1317,2.1569,2.2242,2.3011,0.0,2.4641,2.5689,0.0,0.0,0.0,0.0,0.0,0.0,3.3445,3.4268,3.4971,3.534,3.6114,0.0,3.6888,3.6911,3.7419,3.867,3.869,3.881,0.0,3.8863,3.8269,3.7496,3.5805,3.4871,3.4871,3.363,3.2943,3.2828,3.3488,3.3618,3.3301,3.392,3.4124,3.3985,3.4136,3.4197,3.4197,3.4197,3.4197,3.4209,3.4305,3.4416,3.4506,3.4591,3.4612,3.4612,2.5832,2.6399,2.7046,2.7406,2.6816,2.626,2.6163,2.5221,2.4497,2.4497,2.4497,2.4497,2.4497,2.4497,2.4497,2.4497,2.4497,2.4497,2.4497,2.4497,2.4497,2.4497,2.4497,2.4497,2.4497,2.4497,2.428,2.3919,2.3412,2.2946,2.248,0.0,0.0,0.0,0.0,0.0,0.0,2.5898,2.6537,2.66,2.6524,2.6147,2.5548,2.5096,2.4544,2.3929,2.3396,2.317,2.3108,2.3108,2.3108,2.3108,2.3108,2.3108,2.3108,2.3108,2.2719,2.2297,2.2221,2.1443,2.0679,2.0591,2.0578,2.0704,2.1154,2.1995,2.2787,2.3175,2.4054,2.4792,0.0,0.0,0.0,0.0,0.0,3.2563,3.2864,3.3795,3.4576,0.0,0.0,0.0,3.6731,3.6771,3.7146,3.802,3.876,0.0,0.0,0.0,3.8796,3.7988,3.6095,3.5098,3.5098,3.3947,3.302,3.2367,3.3268,3.3338,3.2724,3.363,3.4074,3.4148,3.4185,3.4197,3.4197,3.4197,3.4197,3.4209,3.434,3.4439,3.4495,3.4561,3.4612,3.4612,2.8671,2.8943,2.9168,2.952,2.9199,2.8729,2.8111,2.6008,2.4497,2.4497,2.4497,2.4497,2.4497,2.4497,2.4497,2.4497,2.4497,2.4497,2.4497,2.4497,2.4497,2.4497,2.4497,2.4497,2.4497,2.4497,2.428,2.3919,2.3412,2.2946,2.248,0.0,0.0,0.0,0.0,0.0,2.5768,2.6293,0.0,2.714,2.6675,2.6147,2.5586,2.5498,2.4858,2.3979,2.3891,2.3509,2.3108,2.3108,2.3108,2.3108,2.3108,2.3108,2.3108,2.3108,2.2719,2.2209,2.1757,2.1182,2.0578,2.0075,1.9962,1.9974,2.0075,2.1026,2.1926,2.1986,2.3397,2.4639,2.4657,0.0,0.0,0.0,0.0,3.1674,3.1838,3.298,3.4012,0.0,3.522,3.5854,3.6485,3.669,3.7146,3.802,3.8234,3.8322,3.8322,0.0,3.797,0.0,3.5847,3.5098,0.0,0.0,3.351,3.3103,3.314,3.3158,3.3186,3.3197,3.3457,3.3881,3.4099,3.4197,3.4197,3.4197,3.4197,3.4209,3.434,3.4416,3.442,3.455,3.4612,3.4612,3.0351,3.0304,3.0251,3.0687,2.9803,2.8996,2.8952,2.7158,2.5684,2.5221,2.4775,2.4497,2.4497,2.4497,2.4497,2.4497,2.4497,2.4497,2.4497,2.4497,2.4497,2.4497,2.4497,2.4497,2.4497,2.4497,2.4394,2.4219,2.3764,2.3432,2.3235,2.2939,0.0,2.3388,0.0,2.5418,0.0,0.0,0.0,2.7231,2.6713,2.6336,2.6047,2.5711,2.5109,2.4393,2.4104,2.3597,2.3108,2.3108,2.3108,2.3108,2.3108,2.3108,2.3108,2.3108,2.2719,2.2246,2.1995,2.1333,2.0629,2.0352,2.0024,1.9875,2.0156,2.0733,2.1366,2.1889,2.2879,2.3935,2.4943,2.6859,0.0,0.0,0.0,3.1221,3.1056,3.2147,3.3358,3.439,3.5035,3.5661,3.6322,3.6564,3.6867,3.7396,3.7819,3.805,3.8091,0.0,3.7935,0.0,0.0,0.0,3.4742,0.0,3.2677,3.1704,3.2163,3.2151,3.1722,3.26,3.3135,3.342,3.3963,3.4197,3.4197,3.4197,3.4221,3.4257,3.4351,3.4427,3.4461,3.4561,3.4612,3.4658,3.148,3.1276,3.1062,3.1266,3.0183,2.9272,2.9387,2.8448,2.7224,2.5955,2.5179,2.47,2.454,2.4658,2.47,2.4497,2.4658,2.47,2.4497,2.4658,2.47,2.4497,2.47,2.47,2.4497,2.4497,2.4497,2.4497,2.4294,2.4199,2.4178,2.4179,2.4215,0.0,0.0,0.0,0.0,0.0,2.7216,2.7231,2.6713,2.6499,2.6449,2.5984,2.5448,2.4888,2.4494,2.3904,2.3283,2.3283,2.3208,2.3108,2.3108,2.3108,2.3108,2.3108,2.2794,2.246,2.2347,2.1594,2.0842,2.0729,2.0264,1.9927,2.0485,2.0795,2.1224,2.2151,2.2649,2.3441,2.5267,2.6864,0.0,0.0,0.0,0.0,3.0632,3.1524,3.2739,3.417,3.4847,3.5464,3.6216,0.0,3.6527,3.671,3.7368,3.7761,3.7825,3.7845,3.7865,3.7865,0.0,3.468,3.4315,0.0,3.1671,3.0351,3.1157,3.115,3.0491,3.2031,3.2853,3.3039,3.3844,3.4197,3.4197,3.4197,3.4233,3.4281,3.4381,3.442,3.4495,3.4561,3.4612,3.4752,3.236,3.2377,3.2035,3.1113,3.1345,3.1242,2.9966,2.968,2.8724,2.6124,2.5746,2.539,2.4583,2.5221,2.5337,2.4583,2.5221,2.5337,2.454,2.5221,2.5337,2.454,2.5263,2.5306,2.4497,2.4497,2.4497,2.4497,2.4887,2.509,0.0,2.5452,2.5949,0.0,0.0,0.0,0.0,2.7002,2.6864,2.7231,2.6713,2.6499,2.6487,2.6436,2.6047,2.5523,2.546,2.4782,2.3916,2.3916,2.3534,2.3108,2.3108,2.3108,2.3108,2.3108,2.307,2.292,2.2418,2.187,2.132,2.0817,2.0264,1.9927,2.0485,2.1091,2.1704,2.2337,2.3031,2.3933,2.5337,2.527,2.5811,0.0,0.0,0.0,0.0,0.0,3.2181,3.4006,3.4382,3.4948,3.6101,3.6276,3.6381,0.0,3.6777,3.6913,3.6933,3.7053,3.7112,3.7112,3.5137,3.4081,3.4042,3.2352,3.1283,3.0826,3.075,3.0868,3.1212,3.1686,3.2314,3.3039,3.3844,3.4197,3.4197,3.4197,3.4209,3.4221,3.434,3.4397,3.4409,3.455,3.4612,3.4838,3.2827,3.2676,3.2422,3.1949,3.1682,3.1315,3.0724,3.0378,2.9603,2.8011,2.7209,2.6689,2.6329,2.6453,2.6453,2.6091,2.637,2.6442,2.6091,2.637,2.6412,2.6091,2.6412,2.6412,2.6091,2.6049,2.6049,2.6049,2.6263,2.6325,2.6355,0.0,0.0,0.0,0.0,2.7406,2.7582,2.7178,2.7115,2.7231,2.6713,2.6499,2.6499,2.6499,2.6135,2.5598,2.5598,2.5121,2.4494,2.4494,2.386,2.3108,2.3108,2.3108,2.3108,2.3108,2.3108,2.3058,2.2832,2.2397,2.193,2.1705,2.1208,2.0926,2.1499,2.1823,2.2198,2.2844,2.3282,2.3724,2.4276,2.4852,2.53,2.5625,0.0,0.0,0.0,0.0,0.0,3.3393,3.4012,3.4459,3.4896,3.5724,3.6104,0.0,3.6284,3.667,3.6791,3.6849,3.6928,3.7007,0.0,3.3646,3.3519,3.1415,3.024,3.0005,2.9913,2.9975,3.0209,3.1303,3.25,3.3733,3.4048,3.4197,3.4209,3.4245,3.4281,3.4328,3.4374,3.445,3.4517,3.4528,3.458,3.4771,3.3124,3.2967,3.2764,3.2558,3.1977,3.1472,3.1227,3.0843,3.0317,2.9651,2.8924,2.8227,2.7666,2.7597,2.7516,2.7342,2.7476,2.7476,2.7232,2.7395,2.7395,2.711,2.7354,2.7395,2.711,2.711,2.711,2.711,2.7395,0.0,0.0,0.0,0.0,0.0,2.7595,2.7431,2.7268,2.714,2.7077,2.704,2.665,2.6499,2.6499,2.6499,2.6248,2.585,2.585,2.5498,2.5046,2.5046,2.4387,2.3572,2.3409,2.3246,2.3108,2.3108,2.3245,2.3395,2.3395,2.3122,2.2786,2.26,2.2115,2.1788,2.2198,2.2291,2.2512,2.3194,2.3451,2.3538,2.3588,2.4373,2.4837,2.4283,0.0,0.0,0.0,2.9618,0.0,3.3181,3.3887,3.4306,3.4645,3.5586,3.6006,0.0,0.0,3.6301,3.669,3.6561,0.0,0.0,0.0,0.0,3.24,3.0365,2.9332,2.9283,2.9347,2.9396,2.9452,3.1069,3.2555,3.3863,3.4104,3.4197,3.4209,3.4245,3.4305,3.4363,3.4386,3.4473,3.458,3.4539,3.455,3.4714,3.3124,3.327,3.3208,3.2704,3.2472,3.2107,3.133,3.1073,3.0911,3.0698,3.066,2.9922,2.8004,2.8359,2.849,2.7844,2.8398,2.8422,2.7545,2.8131,2.8051,0.0,2.7971,2.8051,2.711,2.711,2.711,2.711,0.0,0.0,2.8502,0.0,2.9465,2.885,2.8335,2.7795,2.7291,2.6738,2.6499,2.6499,2.6499,2.6499,2.6499,2.6499,2.6487,2.6487,2.6487,2.6109,2.5586,2.5586,2.5234,2.4675,2.4167,2.359,2.3108,2.3108,2.3573,2.4102,2.4102,2.4083,2.3933,2.3336,2.2751,2.23,2.2292,2.2291,2.2535,2.3319,2.356,2.3595,2.3595,2.361,2.4044,2.5375,0.0,0.0,0.0,3.0215,0.0,3.3707,3.4103,3.4671,3.5854,3.6122,3.6212,0.0,0.0,0.0,0.0,0.0,0.0,3.4556,3.2371,0.0,3.0538,2.9197,2.8688,2.9003,2.9272,2.9396,2.9452,3.1069,3.224,3.3057,3.3844,3.4197,3.4197,3.4197,3.4245,3.4305,3.4363,3.445,3.4506,3.4561,3.4602,3.4714,3.3471,3.3696,3.3685,3.3132,3.2796,3.2384,3.1721,3.1276,3.0986,3.0911,3.0811,3.0533,3.0012,2.9922,2.9806,0.0,2.9767,2.969,0.0,2.9613,2.9548,2.8961,2.9353,2.9404,2.8961,2.8922,2.8922,2.8922,0.0,0.0,0.0,2.8875,2.8549,2.8335,2.7394,2.6927,2.6738,2.6562,2.6499,2.6499,2.6499,2.6499,2.6499,2.6499,2.6499,2.6499,2.6589,2.6497,2.638,2.6494,2.6205,2.5708,2.5542,2.4672,2.3715,2.3715,2.397,2.4234,2.4234,2.4603,2.4942,2.4677,2.4123,2.3692,2.3786,2.3495,2.3253,2.3523,2.3588,2.3595,2.3595,2.3962,2.441,2.4844,2.583,0.0,2.9062,0.0,3.1057,3.3206,3.3818,3.421,3.4538,3.5472,0.0,0.0,0.0,0.0,0.0,0.0,0.0,0.0,3.2524,0.0,3.0776,2.9501,2.8984,2.9272,2.9365,2.9973,3.1069,3.2128,3.3057,3.3826,3.4086,3.4197,3.4209,3.4245,3.4281,3.4305,3.4316,3.4386,3.4495,3.4473,3.4517,3.4714,3.3556,3.3852,3.3972,3.361,3.306,3.2568,3.2215,3.1496,3.0986,3.0986,3.0874,3.0836,3.0986,3.0798,0.0,3.0634,3.0558,3.0457,3.0343,3.0368,3.0292,3.0049,3.0152,3.0152,3.0049,2.9934,0.0,2.9895,2.983,2.9792,2.9779,2.885,2.8298,2.8072,2.7381,2.6889,2.6512,2.6713,2.6688,2.6499,2.6499,2.6499,2.6499,2.6499,2.6521,2.6589,2.6692,2.676,2.6829,2.6943,2.678,2.6499,2.6499,2.591,2.5125,2.4669,2.4793,2.5062,2.5047,2.5536,2.6019,2.5704,2.5131,2.4534,2.4192,2.3836,2.3595,2.3595,2.3595,2.3595,2.3595,2.4141,2.4605,2.4605,2.5843,2.7312,2.8804,2.9683,3.0912,3.2857,3.3391,3.3745,0.0,3.4766,3.5219,0.0,0.0,0.0,0.0,0.0,3.397,3.3173,3.1815,3.0746,3.0008,2.9326,2.9134,2.9396,2.9712,3.053,3.1831,3.263,3.328,3.377,3.4067,3.4197,3.4209,3.4245,3.4281,3.4293,3.4293,3.4381,3.4461,3.445,3.4495,3.4692,3.3484,3.3823,3.4118,3.4118,3.3335,3.2685,3.2685,3.1718,3.0986,3.0986,3.0986,3.0986,3.0986,3.0986,3.0986,3.0986,0.0,0.0,3.0698,3.0533,3.0444,3.0406,3.0406,3.0406,3.0406,3.0228,3.0113,3.0113,2.9895,2.9792,2.9779,2.9202,2.8624,2.8109,2.8146,2.753,2.6571,2.7112,2.7037,2.6521,2.6521,2.6521,2.6521,2.6521,2.6624,2.6714,2.676,2.6863,2.7024,2.7024,2.7024,2.7024,2.7024,2.7144,2.7055,2.5858,2.5928,2.6384,2.6376,2.6791,2.7085,2.6455,2.5761,2.4952,2.3844,2.3589,2.3595,2.3595,2.364,2.367,2.367,2.4246,2.4739,2.4739,2.5978,2.7433,2.888,2.9724,3.0897,3.27,0.0,0.0,3.4486,3.4099,3.4411,0.0,0.0,0.0,0.0,0.0,3.3127,3.1133,3.0584,2.9765,2.8594,2.8887,2.9175,2.9489,3.0288,3.1106,3.1905,3.2723,3.3083,3.3131,3.3863,3.4197,3.4197,3.4197,3.4233,3.4293,3.4293,3.4328,3.4386,3.4473,3.4532,3.4712,0.0,0.0,3.4314,3.4314,3.3416,3.2685,3.2685,3.1718,3.0986,3.0986,3.0986,3.0986,3.0986,3.0986,3.0986,3.0986,3.0949,3.0836,3.0698,3.0798,3.071,3.0406,3.0533,3.0571,3.0406,3.0368,3.0254,3.0113,2.9895,2.9792,2.9779,2.9341,2.8847,2.8341,2.8486,2.7921,2.6914,2.7509,2.742,2.6875,2.6875,2.6875,2.6875,2.6875,2.6909,2.6943,2.71,2.7201,2.7248,2.7335,2.7369,2.7369,2.7369,2.7749,2.802,2.7046,2.6968,2.7225,2.7219,2.7363,2.7469,2.7305,2.637,2.5297,2.4515,2.3962,2.3595,2.3595,2.4007,2.4365,2.4365,2.533,2.6123,2.6123,2.7285,2.8553,2.9613,3.0258,3.1171,0.0,3.2765,3.2934,3.3639,3.4164,3.4406,0.0,0.0,3.4272,3.3731,3.2854,3.2464,3.2645,3.1322,3.0232,2.9419,2.9331,2.9641,3.0326,3.1125,3.1942,3.2741,3.3559,3.3918,3.3918,3.4123,3.4197,3.4197,3.4197,3.4209,3.4221,3.4221,3.4257,3.4328,3.4386,3.4873,3.5611,3.4243,3.4356,3.4397,3.4397,3.3679,3.3012,3.2738,3.194,3.1287,3.1013,3.0986,3.0986,3.0986,3.0986,3.0986,3.0986,3.0986,3.0949,3.0849,3.0949,3.0911,3.0672,3.0761,3.0798,3.0672,3.0558,3.0457,3.0228,3.0113,3.0075,3.0062,2.9567,2.9044,2.8522,2.8654,2.8075,2.7062,2.7601,2.7511,2.699,2.699,2.699,2.699,2.699,2.7045,2.7146,2.7268,2.7335,2.7403,2.7503,2.749,2.7556,2.7842,2.8403,2.8929,2.8771,2.859,2.8349,2.8071,2.8047,2.7914,2.73,2.6587,2.5809,2.4829,2.4321,2.4073,2.4073,2.435,2.4694,2.4993,2.5899,2.6692,2.7016,2.7919,2.9117,3.0595,3.0753,3.1205,3.2599,3.2373,3.2319,3.2857,3.3094,3.3233,3.3188,3.3416,0.0,3.2438,3.1696,3.1461,3.176,3.0701,2.9864,2.9342,2.9739,3.0344,3.1162,3.1961,3.2778,3.3547,3.3993,3.4197,3.4197,3.4197,3.4197,3.4197,3.4197,3.4197,3.4197,3.4197,3.4221,3.4257,3.4328,3.4946,3.5883,3.416,3.4272,3.4397,3.4397,3.3953,3.3391,3.2777,3.2176,3.1602,3.1065,3.0986,3.0986,3.0986,3.0986,3.0986,3.0986,3.0986,3.0986,3.0986,3.0986,3.0986,3.0986,3.0986,3.0986,3.0986,3.0811,3.0622,3.0444,3.0406,3.0406,3.0394,2.9829,2.9265,2.8739,2.8774,2.8145,2.7117,2.7657,2.758,2.7079,2.7079,2.7079,2.7079,2.7079,2.718,2.7335,2.7335,2.7403,2.749,2.749,2.7556,2.7756,2.832,2.903,2.9766,3.0329,3.0176,2.9652,2.8925,2.8607,2.8173,2.7046,2.6662,2.6303,2.5158,2.4829,2.4754,2.4754,2.4829,2.5068,2.5659,2.6303,2.6986,2.767,2.8306,2.9472,3.1535,0.0,3.1246,3.2467,3.1923,3.1604,3.1931,3.1672,3.1632,3.2061,3.179,3.1557,3.1455,3.0748,3.023,2.9988,2.9711,2.9502,2.9312,3.0287,3.118,3.1998,3.2667,3.3417,3.4197,3.4197,3.4197,3.4197,3.4197,3.4197,3.4197,3.4197,3.4197,3.4197,3.4197,3.4197,3.4228,3.4418,3.5086,3.6004,3.4356,3.4397,3.4397,3.4397,3.3953,3.3391,3.2777,3.2176,3.1602,3.1065,3.0986,3.0986,3.0986,3.0986,3.0986,3.0986,3.0986,3.0986,3.0986,3.0986,3.0986,3.0986,3.0986,3.0986,3.0986,3.0811,3.0698,3.066,3.0482,3.0406,3.0394,2.9965,2.9447,2.8967,2.9132,2.8552,2.7475,2.8069,2.7944,2.7436,2.7436,2.7436,2.7436,2.7436,2.7436,2.7469,2.7469,2.7503,2.749,2.749,2.7875,2.8352,2.8481,2.9345,3.0359,3.0464,3.0837,3.0933,2.9747,2.8618,2.7705,2.7495,2.7031,2.6542,2.6333,2.5854,2.5427,2.5427,2.5899,2.6318,2.6422,2.7001,2.771,2.8488,2.9037,2.9964,3.1726,0.0,3.1559,3.2491,3.1801,3.1027,3.0478,3.098,3.0891,2.9808,3.0327,3.0452,2.9903,2.9161,2.8955,2.9411,3.0069,3.069,3.1263,3.1496,3.2017,3.2816,3.2946,3.3417,3.4197,3.4197,3.4197,3.4197,3.4197,3.4197,3.4197,3.4197,3.4197,3.4197,3.4197,3.4197,3.4302,3.51,3.5956,3.6838,3.4397,3.4397,3.4397,3.4397,3.4188,3.3835,3.326,3.2947,3.2463,3.1561,3.1444,3.1326,3.1013,3.0986,3.0986,3.0986,3.0986,3.0986,3.0986,3.0986,3.0986,3.0986,3.0986,3.0986,3.0986,3.0911,3.0836,3.0836,3.0761,3.071,3.0697,3.0201,2.9678,2.9168,2.89,2.849,2.7981,2.7941,2.7941,2.7968,2.762,2.749,2.749,2.749,2.749,2.749,2.749,2.7723,2.8039,2.8039,2.8468,2.9111,2.947,2.9995,3.0584,3.0925,3.0981,3.0748,2.9834,2.8861,2.8064,2.769,2.736,2.7046,2.6677,2.6363,2.6138,2.6138,2.6378,2.6692,2.7076,2.739,2.7911,2.8905,2.9325,3.0107,3.1862,3.1639,3.145,3.1796,3.1102,3.0311,2.9583,2.988,2.97,2.8681,2.9402,2.9455,2.8368,2.8512,2.8634,2.8659,2.9809,3.0839,3.1691,3.2171,3.2595,3.302,3.3436,3.3844,3.4197,3.4197,3.4197,3.4197,3.4197,3.4197,3.4197,3.4197,3.4197,3.4197,3.4197,3.4197,3.4321,3.52,3.6124,3.7025,3.4397,3.4397,3.4397,3.4397,3.4397,3.4214,3.3679,3.3587,3.3221,3.2137,3.1889,3.1628,3.1235,3.1065,3.0986,3.0986,3.0986,3.0986,3.0986,3.0986,3.0986,3.0986,3.0986,3.0986,3.0986,3.0986,3.0986,3.0986,3.0986,3.0986,3.0973,3.0361,2.9823,2.9297,2.8826,2.8551,2.8394,2.8059,2.819,2.8577,2.7954,2.7777,2.7868,2.7594,2.7581,2.7706,2.7729,2.8072,2.85,2.8693,2.9174,2.9827,3.0329,3.0614,3.0837,3.1351,3.1137,3.0567,2.9816,2.9101,2.8442,2.7764,2.76,2.7465,2.6956,2.6811,2.6811,2.6811,2.6811,2.7001,2.751,2.7685,2.8122,2.9218,0.0,3.0252,3.203,3.1567,3.1066,3.1202,3.0395,2.955,2.8807,2.8795,2.8577,2.7896,2.8493,2.8406,2.7351,2.8097,2.8617,2.8766,2.9941,3.11,3.2223,3.2858,3.3209,3.3287,3.39,3.4197,3.4197,3.4197,3.4197,3.4197,3.4197,3.4197,3.4197,3.4197,3.4197,3.4197,3.4197,3.4197,3.4327,3.5398,3.6249,3.7044,3.4397,3.4397,3.4397,3.4397,3.4397,3.4214,3.3679,3.3587,3.3365,3.2712,3.2137,3.1784,3.1745,3.13,3.0986,3.0986,3.0986,3.0986,3.0986,3.0986,3.0986,3.0986,3.0986,3.0986,3.0986,3.0986,3.0986,3.0986,3.0986,3.0986,3.0973,3.0361,2.9823,2.931,2.9235,2.893,2.8446,2.8935,2.917,2.9192,2.859,2.866,2.9039,2.7941,2.7863,2.8344,2.839,2.8449,2.8597,2.9205,2.9858,3.0419,3.0494,3.0925,3.1438,3.1511,3.1466,3.1152,2.9924,2.9101,2.8442,2.7764,2.76,2.7585,2.754,2.7525,2.7525,2.7525,2.7525,2.754,2.7585,2.7953,2.8568,2.9532,0.0,0.0,3.2337,3.1199,3.0439,3.1123,2.9958,2.8755,2.7959,2.8013,2.7811,2.7127,2.7208,2.7288,2.7299,2.7607,2.8695,3.0731,3.1193,3.2195,3.3807,3.3944,3.4043,3.4104,3.416,3.4197,3.4197,3.4197,3.4197,3.4197,3.4197,3.4197,3.4197,3.4197,3.4197,3.4197,3.4197,3.4197,3.4401,3.603,3.6733,3.7137,3.4397,3.4397,3.4551,3.5114,3.4758,3.4526,3.4834,3.4441,3.3757,3.2816,3.292,3.2625,3.143,3.1527,3.1505,3.1061,3.0986,3.0986,3.0986,3.0986,3.0986,3.0986,3.0986,3.0986,3.0986,3.0986,3.0986,3.0986,3.0986,3.0986,3.0973,3.0361,2.9983,2.9797,2.9444,2.9353,2.9457,2.9327,2.9483,2.9758,2.917,2.9114,2.9231,2.8373,2.8449,2.896,2.8633,2.903,2.978,3.0042,3.0584,3.1117,3.1117,3.1278,3.1511,3.1511,3.1511,3.1212,2.9939,2.9427,2.8978,2.7869,2.76,2.76,2.76,2.76,2.7685,2.7978,2.8027,2.8149,2.8463,2.8677,2.9037,2.9774,0.0,3.0448,3.1466,3.1133,3.0548,2.9924,2.9348,2.8502,2.7249,2.7165,2.7148,2.7009,2.7024,2.7121,2.7282,2.8187,2.938,3.0885,3.1746,3.2746,3.3934,3.3998,3.4074,3.4136,3.4185,3.4197,3.4197,3.4197,3.4197,3.4197,3.4197,3.4197,3.4197,3.4197,3.4197,3.4197,3.4197,3.4531,3.5138,3.629,3.7067,3.7753,3.4799,3.5019,3.5372,3.5963,3.5575,3.5372,3.6002,3.5575,3.4888,3.4125,3.4122,3.3731,3.2444,3.2185,3.1978,3.1713,3.1468,3.1431,3.169,3.1468,3.1222,3.1024,3.0986,3.0986,3.0986,3.0986,3.0986,3.0986,3.0986,3.0986,3.0973,3.0594,3.027,3.0087,2.9915,2.9941,3.0087,2.9902,3.0045,3.0309,2.9784,2.9653,2.9768,2.9249,2.9321,2.9665,2.9509,2.9919,3.0524,3.0748,3.1117,3.1511,3.1511,3.1511,3.1511,3.1511,3.1511,3.1256,3.0178,2.9729,2.9292,2.7929,2.76,2.76,2.76,2.76,2.7735,2.8207,2.8288,2.8472,2.9005,2.9257,2.9528,2.9968,3.0225,3.0539,3.0995,3.0746,3.0144,2.9128,2.857,2.7859,2.6793,2.6691,2.6775,2.6975,2.6991,2.7152,2.7524,2.8673,2.9839,3.1007,3.1959,3.2902,3.3855,3.3959,3.4036,3.4099,3.4173,3.4197,3.4197,3.4197,3.4197,3.4197,3.4197,3.4197,3.4197,3.4197,3.4197,3.4197,3.4197,3.4729,3.5603,3.6402,3.7259,3.813,3.5709,3.6346,3.688,3.6919,3.688,3.688,3.6919,3.6919,3.6866,3.6866,3.584,3.5096,3.5096,3.3321,3.2398,3.3143,3.2541,3.2434,3.3143,3.2506,3.1773,3.1061,3.0986,3.0986,3.0986,3.0986,3.0986,3.0986,3.0986,3.0986,3.0986,3.1024,3.0686,3.0127,3.0725,3.0673,3.014,3.0738,3.1024,3.0934,3.0335,3.0477,3.0955,3.0575,3.0371,3.0406,3.1228,3.1061,3.0614,3.1278,3.1511,3.1511,3.1511,3.1511,3.1511,3.1511,3.1511,3.1346,3.0687,3.0058,2.9292,2.7944,2.76,2.76,2.76,2.76,2.7735,2.8207,2.8328,2.8472,2.9005,2.9595,3.0032,3.0102,3.0617,3.1052,3.1171,2.9941,2.901,2.8993,2.7639,2.6725,2.6691,2.6691,2.6775,2.6975,2.6991,2.734,2.8061,2.8873,2.994,3.1353,3.1847,3.2647,3.3788,3.3934,3.4036,3.4099,3.4173,3.4197,3.4197,3.4197,3.4197,3.4197,3.4197,3.4197,3.4197,3.4197,3.4197,3.4197,3.4197,3.4736,3.5621,3.642,3.7246,3.813,3.6543,3.6738,3.7088,3.7706,3.7295,3.7088,3.7706,3.6888,3.6248,3.6314,3.565,3.4975,3.453,3.3974,3.3512,3.3213,3.3003,3.2967,3.3178,3.3003,3.2541,3.1809,3.1259,3.0986,3.0986,3.0986,3.0986,3.0986,3.0986,3.0986,3.1024,3.1529,3.1412,3.0775,3.1997,3.1874,3.0775,3.1499,3.1468,3.096,3.079,3.1138,3.1729,3.1162,3.1294,3.1756,3.1575,3.1379,3.1219,3.1438,3.1511,3.1511,3.1511,3.1511,3.1511,3.1511,3.1511,3.1346,3.0687,3.0058,2.9397,2.8502,2.7959,2.76,2.76,2.7845,2.8231,2.8756,2.9127,2.9489,3.0006,3.0321,3.0531,3.0634,3.0855,3.1052,3.1171,3.0378,2.9583,2.9061,2.8095,2.7283,2.6742,2.6691,2.6775,2.6975,2.7138,2.7613,2.8543,2.9349,3.0325,3.1498,3.2455,3.3114,3.3451,3.381,3.4011,3.4036,3.4148,3.4197,3.4197,3.4197,3.4197,3.4197,3.4197,3.4197,3.4197,3.4197,3.4197,3.4253,3.4866,3.5621,3.6439,3.7257,3.8056,3.8808,3.7424,3.7677,3.8032,3.8575,3.8248,3.8084,3.8575,3.7876,3.7304,3.7407,3.6851,3.6301,3.5933,3.5157,3.4656,3.4513,3.4248,3.4104,3.4104,3.3817,3.3443,3.2989,3.2268,3.1713,3.1431,3.1431,3.1579,3.1859,3.1859,3.1859,3.1896,3.234,3.2304,3.1896,3.2804,3.2698,3.1896,3.234,3.2268,3.1859,3.1859,3.2137,3.2536,3.2444,3.259,3.2745,3.242,3.2123,3.1854,3.1585,3.1511,3.1511,3.1511,3.1511,3.1511,3.1511,3.1511,3.1406,3.1002,3.0447,2.9849,2.9445,2.8483,2.7635,2.7845,2.81,2.8504,2.9234,2.9595,2.9941,3.0405,3.0651,3.081,3.0892,3.1012,3.1112,3.119,3.0565,2.9939,2.9482,2.8755,2.8095,2.7656,2.7622,2.7691,2.7862,2.8128,2.8576,2.925,3.0129,3.1,3.1769,3.2769,3.3364,3.3494,3.3815,3.3972,3.3998,3.4111,3.4173,3.4197,3.4197,3.4197,3.4197,3.4197,3.4197,3.4234,3.4581,3.4699,3.4804,3.564,3.6476,3.7225,3.7708,3.8414,3.9115,3.8315,3.8885,3.9388,3.9388,3.9388,3.9388,3.9388,3.9364,3.9313,3.9373,3.8766,3.8317,3.8377,3.6659,3.5771,3.6443,3.5893,3.5504,3.5504,3.4791,3.438,3.4312,3.3665,3.2967,3.2326,3.2218,3.2541,3.3178,3.3178,3.3178,3.3178,3.3262,3.3248,3.3213,3.3332,3.3332,3.3178,3.3283,3.3248,3.3178,3.3178,3.3248,3.3353,3.4027,3.3968,3.3503,3.3566,3.3125,3.2392,3.1735,3.1511,3.1511,3.1511,3.1511,3.1511,3.1511,3.1511,3.1511,3.1511,3.1002,3.0507,3.0507,2.9154,2.7936,2.8314,2.8383,2.8646,2.9601,2.9815,3.0006,3.0426,3.0712,3.0892,3.0892,3.1072,3.119,3.119,3.0565,3.0108,3.0108,2.9448,2.8993,2.8993,2.901,2.9066,2.9246,2.9574,2.9858,3.0091,3.1015,3.1717,3.2159,3.2864,3.3437,3.3807,3.3855,3.3921,3.3998,3.4074,3.4136,3.4185,3.4197,3.4197,3.4197,3.4197,3.4197,3.4271,3.5138,3.551,3.5584,3.6458,3.7257,3.7912,3.7968,3.8469,3.9101,3.9156,3.9265,3.9388,3.9388,3.9388,3.9388,3.9388,3.896,3.8811,3.9313,3.8377,3.7823,3.8332,3.7521,3.6816,3.6522,3.5893,3.5504,3.5504,3.5359,3.4953,3.4346,3.4143,3.3993,3.3822,3.3248,3.3038,3.3178,3.3178,3.3178,3.3213,3.3802,3.3768,3.3262,3.4471,3.4322,3.3248,3.3837,3.3734,3.3178,3.3178,3.3561,3.4075,3.4245,3.4266,3.4252,3.4276,3.3499,3.2392,3.1735,3.1511,3.1511,3.1511,3.1511,3.1511,3.1511,3.1511,3.1511,3.1511,3.1002,3.0507,3.0507,3.0152,2.9664,2.9193,2.8995,2.9097,2.9683,3.0092,3.0384,3.0468,3.0712,3.0892,3.0892,3.1072,3.119,3.119,3.0565,3.0108,3.0108,2.9448,2.8993,2.8993,2.9047,2.9245,2.9642,2.9575,2.9919,3.0897,3.0905,3.1423,3.2606,3.2816,3.3199,3.3788,3.3802,3.3873,3.3921,3.4049,3.4111,3.4124,3.4173,3.4197,3.4197,3.4197,3.4197,3.4271,3.5138,3.551,3.564,3.7076,3.7745,3.7968,3.8599,3.8952,3.9101,3.9388,3.9388,3.9388,3.9388,3.9388,3.9388,3.9388,3.911,3.9005,3.9328,3.8811,3.8497,3.8841,3.8272,3.7629,3.6985,3.6342,3.5968,3.5968,3.5684,3.5311,3.4905,3.4872,3.4872,3.4872,3.4491,3.4288,3.4288,3.4288,3.4288,3.4322,3.4691,3.4673,3.4322,3.5148,3.5034,3.4322,3.4691,3.4673,3.4288,3.4288,3.4524,3.4872,3.4872,3.491,3.4921,3.4623,3.3634,3.2392,3.1735,3.1511,3.1511,3.1511,3.1511,3.1511,3.1511,3.1511,3.1511,3.1511,3.1241,3.0972,3.0972,3.0919,3.067,2.981,2.9793,2.999,3.0114,3.0342,3.0506,3.0506,3.0712,3.0892,3.0892,3.1072,3.119,3.119,3.0869,3.0632,3.0632,3.0277,3.0059,3.0059,3.0078,3.0248,3.0575,3.0628,3.0889,3.1464,3.1619,3.203,3.2779,3.297,3.3288,3.3807,3.3807,3.382,3.3842,3.3959,3.4036,3.4099,3.4136,3.4173,3.4216,3.4643,3.4822,3.4915,3.6142,3.6643,3.6773,3.7986,3.8469,3.8525,3.8934,3.9101,3.9101,3.9388,3.9388,3.9388,3.9388,3.9388,3.9388,3.9388,3.9388,3.9388,3.9388,3.9388,3.9388,3.9388,3.8796,3.8167,3.7629,3.7,3.6641,3.6641,3.6028,3.5729,3.5833,3.5624,3.5549,3.5669,3.5564,3.5504,3.5504,3.5504,3.5504,3.5504,3.5504,3.5504,3.5504,3.5504,3.5504,3.5504,3.5504,3.5504,3.5504,3.5504,3.5504,3.5504,3.5504,3.5504,3.5429,3.4861,3.3799,3.2587,3.1899,3.16,3.1511,3.1511,3.1511,3.1511,3.1511,3.1511,3.1511,3.1511,3.1511,3.1511,3.1511,3.1597,3.1461,3.0555,3.0734,3.0998,3.0735,3.0688,3.0654,3.0522,3.0712,3.0892,3.0892,3.1072,3.119,3.119,3.119,3.119,3.119,3.119,3.119,3.119,3.119,3.1308,3.1576,3.1841,3.1967,3.1893,3.2402,3.2731,3.2795,3.3078,3.3408,3.3807,3.3807,3.3862,3.4009,3.4062,3.4076,3.4074,3.4234,3.4358,3.4445,3.533,3.5714,3.5826,3.7281,3.7894,3.7968,3.8785,3.9101,3.9101,3.9101,3.9101,3.9101,3.9388,3.9388,3.9388,3.9388,3.9388,3.9388,3.9388,3.9388,3.9388,3.9388,3.9388,3.9388,3.9388,3.8796,3.8347,3.8257,3.7659,3.7285,3.7285,3.6701,3.6596,3.712,3.6088,3.5774,3.6342,3.5804,3.5504,3.5504,3.5504,3.5504,3.5504,3.5504,3.5504,3.5504,3.5504,3.5504,3.5504,3.5504,3.5504,3.5504,3.5504,3.5504,3.5504,3.5504,3.5504,3.5489,3.54,3.4502,3.326,3.2602,3.1974,3.1511,3.1511,3.1511,3.1511,3.1511,3.1511,3.1511,3.1511,3.1511,3.1511,3.1511,3.2235,3.2772,3.1978,3.1822,3.1785,3.1511,3.1449,3.1267,3.0621,3.0712,3.0892,3.0892,3.1072,3.119,3.119,3.119,3.119,3.119,3.119,3.119,3.119,3.119,3.1389,3.1895,3.1967,3.2074,3.2214,3.2318,3.2504,3.2795,3.2842,3.3184,3.3788,3.3807,3.4156,3.4839,3.4853,3.4527,3.397,3.4838,3.5223,3.5291,3.6153,3.6551,3.6606,3.7522,3.7894,3.7968,3.8785,3.9101,3.9101,3.9101,3.9101,3.9101,3.9388,3.9388,3.9388,3.9388,3.9388,3.9388,3.9388,3.9388,3.9388,3.9388,3.9388,3.9388,3.9388,3.9155,3.896,3.896,3.8347,3.7958,3.7958,3.736,3.712,3.7404,3.6866,3.6537,3.6492,3.6207,3.5878,3.5504,3.5504,3.5504,3.5504,3.5504,3.5504,3.5504,3.5504,3.5504,3.5504,3.5504,3.5504,3.5504,3.5504,3.5504,3.5504,3.5504,3.5504,3.5459,3.507,3.4307,3.3395,3.2736,3.2049,3.1511,3.1511,3.1511,3.1511,3.1511,3.1511,3.1511,3.1511,3.1511,3.1511,3.1511,3.2367,3.3103,3.2803,3.3176,3.3336,3.2403,3.1879,3.152,3.1269,3.1037,3.0912,3.0952,3.1092,3.119,3.119,3.119,3.119,3.119,3.119,3.119,3.119,3.119,3.1406,3.1913,3.2144,3.2351,3.252,3.275,3.2923,3.3078,3.3078,3.3302,3.3807,3.3807,3.4197,3.5004,3.5004,3.5101,3.5312,3.5767,3.6001,3.6118,3.6941,3.7334,3.7429,3.8228,3.8562,3.8599,3.8952,3.9101,3.9101,3.9101,3.9101,3.9101]}]]